[[{"header":{"parameterUnit":"m.s-1","parameterCategory":1,"la1":30.6,"la2":29.2853,"lo1":-89.7004,"lo2":-87.6739,"dy":0.0162,"dx":0.0183,"nx":112,"ny":82,"refTime":"2024-10-09T12:00:00:Z","depth":0,"parameterNumber":2,"parameterNumberName":"U-component_of_WINDS"},"data":[0.0,0.0,0.0,0.0,0.0,0.0,0.0,0.0,0.0,0.0,0.0,0.0,0.0,0.0,0.0,0.0,0.0,0.0,0.0,0.0,0.0,0.0,0.0,0.0,0.0,0.0,0.0,0.0,0.0,0.0,0.0,0.0,0.0,0.0,0.0,0.0,0.0,0.0,0.0,0.0,0.0,0.0,0.0,0.0,0.0,0.0,0.0,0.0,0.0,0.0,0.0,0.0,0.0,0.0,0.0,0.0,0.0,0.0,0.0,0.0,0.0,0.0,0.0,0.0,0.0,0.0,0.0,0.0,0.0,0.0,0.0,0.0,0.0,0.0,0.0,0.0,0.0,0.0,0.0,0.0,0.0,0.0,0.0,0.0,0.0,0.0,0.0,0.0,0.0,0.0,1.0491,1.1294,1.2602,1.3446,1.3511,1.2465,1.1725,1.1568,0.0,0.0,0.0,0.0,0.0,0.0,0.0,0.0,0.0,0.0,0.0,0.0,0.0,0.0,0.0,0.0,0.0,0.0,0.0,0.0,0.0,0.0,0.0,0.0,0.0,0.0,0.0,0.0,0.0,0.0,0.0,0.0,0.0,0.0,0.0,0.0,0.0,0.0,0.0,0.0,0.0,0.0,0.0,0.0,0.0,0.0,0.0,0.0,0.0,0.0,0.0,0.0,0.0,0.0,0.0,0.0,0.0,0.0,0.0,0.0,0.0,0.0,0.0,0.0,0.0,0.0,0.0,0.0,0.0,0.0,0.0,0.0,0.0,0.0,0.0,0.0,0.0,0.0,0.0,0.0,0.0,0.0,0.0,0.0,0.0,0.0,0.0,0.0,0.0,0.0,0.0,0.0,0.0,0.0,0.0,0.0,0.0,0.0,0.0,0.0,0.0,0.0,0.0,0.0,1.1542,1.2887,1.331,1.3528,1.3652,1.3625,1.3081,1.1824,0.0,0.0,0.0,0.0,0.0,0.0,0.0,0.0,0.0,0.0,0.0,0.0,0.0,0.0,0.0,0.0,0.0,0.0,0.0,0.0,0.0,0.0,0.0,0.0,0.0,0.0,0.0,0.0,0.0,0.0,0.0,0.0,0.0,0.0,0.0,0.0,0.0,0.0,0.0,0.0,0.0,0.0,0.0,0.0,0.0,0.0,0.0,0.0,0.0,0.0,0.0,0.0,0.0,0.0,0.0,0.0,0.0,0.0,0.0,0.0,0.0,0.0,0.0,0.0,0.0,0.0,0.0,0.0,0.0,0.0,0.0,0.0,0.0,0.0,0.0,0.0,0.0,0.0,0.0,0.0,0.0,0.0,0.0,0.0,0.0,0.0,0.0,0.0,0.0,0.0,0.0,0.0,0.0,0.0,0.0,0.0,0.0,0.0,0.0,0.0,0.0,0.0,0.0,1.0848,1.1861,1.3404,1.3591,1.3653,1.3793,1.3165,1.2496,1.1895,0.9934,0.0,0.0,0.0,0.0,0.0,0.0,0.0,0.0,0.0,0.0,0.0,0.0,0.0,0.0,0.0,0.0,0.0,0.0,0.0,0.0,0.0,0.0,0.0,0.0,0.0,0.0,0.0,0.0,0.0,0.0,0.0,0.0,0.0,0.0,0.0,0.0,0.0,0.0,0.0,0.0,0.0,0.0,0.0,0.0,0.0,0.0,0.0,0.0,0.0,0.0,0.0,0.0,0.0,0.0,0.0,0.0,0.0,0.0,0.0,0.0,0.0,0.0,0.0,0.0,0.0,0.0,0.0,0.0,0.0,0.0,0.0,0.0,0.0,0.0,0.0,0.0,0.0,0.0,0.0,0.0,0.0,0.0,0.0,0.0,0.0,0.0,0.0,0.0,0.0,0.0,0.0,0.0,0.0,0.0,0.0,0.0,0.0,0.0,0.0,0.0,0.0,0.0,1.1408,1.1985,1.3576,1.3761,1.3736,1.3669,1.2654,1.1927,1.1675,0.9814,0.0,0.0,0.0,0.0,0.0,0.0,0.0,0.0,0.0,0.0,0.0,0.0,0.0,0.0,0.0,0.0,0.0,0.0,0.0,0.0,0.0,0.0,0.0,0.0,0.0,0.0,0.0,0.0,0.0,0.0,0.0,0.0,0.0,0.0,0.0,0.0,0.0,0.0,0.0,0.0,0.0,0.0,0.0,0.0,0.0,0.0,0.0,0.0,0.0,0.0,0.0,0.0,0.0,0.0,0.0,0.0,0.0,0.0,0.0,0.0,0.0,0.0,0.0,0.0,0.0,0.0,0.0,0.0,0.0,0.0,0.0,0.0,0.0,0.0,0.0,0.0,0.0,0.0,0.0,0.0,0.0,0.0,0.0,0.0,0.0,0.0,0.0,0.0,0.0,0.0,0.0,0.0,0.0,0.0,0.0,0.0,0.0,0.0,0.0,0.0,0.0,0.0,1.1581,1.2165,1.3731,1.3944,1.3715,1.304,1.3004,1.2412,1.1059,1.0169,0.0,0.0,0.0,0.0,0.0,0.0,0.0,0.0,0.0,0.0,0.0,0.0,0.0,0.0,0.0,0.0,0.0,0.0,0.0,0.0,0.0,0.0,0.0,0.0,0.0,0.0,0.0,0.0,0.0,0.0,0.0,0.0,0.0,0.0,0.0,0.0,0.0,0.0,0.0,0.0,0.0,0.0,0.0,0.0,0.0,0.0,0.0,0.0,0.0,0.0,0.0,0.0,0.0,0.0,0.0,0.0,0.0,0.0,0.0,0.0,0.0,0.0,0.0,0.0,0.0,0.0,0.0,0.0,0.0,0.0,0.0,0.0,0.0,0.0,0.0,0.0,0.0,0.0,0.0,0.0,0.0,0.0,0.0,0.0,0.0,0.0,0.0,0.0,0.0,0.0,0.0,0.0,0.0,0.0,0.0,0.0,0.0,0.0,0.0,0.0,0.0,0.0,1.1723,1.2329,1.3922,1.415,1.3867,1.3082,1.2684,1.2049,1.1023,0.0,0.0,0.0,0.0,0.0,0.0,0.0,0.0,0.0,0.0,0.0,0.0,0.0,0.0,0.0,0.0,0.0,0.0,0.0,0.0,0.0,0.0,0.0,0.0,0.0,0.0,0.0,0.0,0.0,0.0,0.0,0.0,0.0,0.0,0.0,0.0,0.0,0.0,0.0,0.0,0.0,0.0,0.0,0.0,0.0,0.0,0.0,0.0,0.0,0.0,0.0,0.0,0.0,0.0,0.0,0.0,0.0,0.0,0.0,0.0,0.0,0.0,0.0,0.0,0.0,0.0,0.0,0.0,0.0,0.0,0.0,0.0,0.0,0.0,0.0,0.0,0.0,0.0,0.0,0.0,0.0,0.0,0.0,0.0,0.0,0.0,0.0,0.0,0.0,0.0,0.0,0.0,0.0,0.0,0.0,0.0,0.0,0.0,0.0,0.0,0.0,0.0,1.1698,1.1898,1.2513,1.4125,1.4356,1.3967,1.2873,1.239,1.1741,1.0709,0.0,0.0,0.0,0.0,0.0,0.0,0.0,0.0,0.0,0.0,0.0,0.0,0.0,0.0,0.0,0.0,0.0,0.0,0.0,0.0,0.0,0.0,0.0,0.0,0.0,0.0,0.0,0.0,0.0,0.0,0.0,0.0,0.0,0.0,0.0,0.0,0.0,0.0,0.0,0.0,0.0,0.0,0.0,0.0,0.0,0.0,0.0,0.0,0.0,0.0,0.0,0.0,0.0,0.0,0.0,0.0,0.0,0.0,0.0,0.0,0.0,0.0,0.0,0.0,0.0,0.0,0.0,0.0,0.0,0.0,0.0,0.0,0.0,0.0,0.0,0.0,0.0,0.0,0.0,0.0,0.0,0.0,0.0,0.0,0.0,0.0,0.0,0.0,0.0,0.0,0.0,0.0,0.0,0.0,0.0,0.0,0.0,0.0,0.0,0.0,0.0,0.0,1.1893,1.2095,1.2719,1.4334,1.4556,1.3916,1.2253,1.2218,1.1629,0.0,0.0,0.0,0.0,0.0,0.0,0.0,0.0,0.0,0.0,0.0,0.0,0.0,0.0,0.0,0.0,0.0,0.0,0.0,0.0,0.0,0.0,0.0,0.0,0.0,0.0,0.0,0.0,0.0,0.0,0.0,0.0,0.0,0.0,0.0,0.0,0.0,0.0,0.0,0.0,0.0,0.0,0.0,0.0,0.0,0.0,0.0,0.0,0.0,0.0,0.0,0.0,0.0,0.0,0.0,0.0,0.0,0.0,0.0,0.0,0.0,0.0,0.0,0.0,0.0,0.0,0.0,0.0,0.0,0.0,0.0,0.0,0.0,0.0,0.0,0.0,0.0,0.0,0.0,0.0,0.0,0.0,0.0,0.0,0.0,0.0,0.0,0.0,0.0,0.0,0.0,0.0,0.0,0.0,0.0,0.0,0.0,0.0,0.0,0.0,0.0,0.0,0.0,1.2033,1.2236,1.2879,1.4522,1.4738,1.4083,1.2443,1.2399,1.175,1.013,0.0,0.0,0.0,0.0,0.0,0.0,0.0,0.0,0.0,0.0,0.0,0.0,0.0,0.0,0.0,0.0,0.0,0.0,0.0,0.0,0.0,0.0,0.0,0.0,0.0,0.0,0.0,0.0,0.0,0.0,0.0,0.0,0.0,0.0,0.0,0.0,0.0,0.0,0.0,0.0,0.0,0.0,0.0,0.0,0.0,0.0,0.0,0.0,0.0,0.0,0.0,0.0,0.0,0.0,0.0,0.0,0.0,0.0,0.0,0.0,0.0,0.0,0.0,0.0,0.0,0.0,0.0,0.0,0.0,0.0,0.0,0.0,0.0,0.0,0.0,0.0,0.0,0.0,0.0,0.0,0.0,0.0,0.0,0.0,0.0,0.0,0.0,0.0,0.0,0.0,0.0,0.0,0.0,0.0,0.0,0.0,0.0,0.0,0.0,0.0,0.0,0.0,1.2166,1.238,1.301,1.4696,1.4883,1.436,1.3069,1.27,1.1992,1.0701,0.0,0.0,0.0,0.0,0.0,0.0,0.0,0.0,0.0,0.0,0.0,0.0,0.0,0.0,0.0,0.0,0.0,0.0,0.0,0.0,0.0,0.0,0.0,0.0,0.0,0.0,0.0,0.0,0.0,0.0,0.0,0.0,0.0,0.0,0.0,0.0,0.0,0.0,0.0,0.0,0.0,0.0,0.0,0.0,0.0,0.0,0.0,0.0,0.0,0.0,0.0,0.0,0.0,0.0,0.0,0.0,0.0,0.0,0.0,0.0,0.0,0.0,0.0,0.0,0.0,0.0,0.0,0.0,0.0,0.0,0.0,0.0,0.0,0.0,0.0,0.0,0.0,0.0,0.0,0.0,0.0,0.0,0.0,0.0,0.0,0.0,0.0,0.0,0.0,0.0,0.0,0.0,0.0,0.0,0.0,0.0,0.0,0.0,0.0,0.0,0.0,0.0,1.2287,1.2502,1.3147,1.4825,1.5,1.4668,1.3882,1.3064,1.2267,1.1463,0.0,0.0,0.0,0.0,0.0,0.0,0.0,0.0,0.0,0.0,0.0,0.0,0.0,0.0,0.0,0.0,0.0,0.0,0.0,0.0,0.0,0.0,0.0,0.0,0.0,0.0,0.0,0.0,0.0,0.0,0.0,0.0,0.0,0.0,0.0,0.0,0.0,0.0,0.0,0.0,0.0,0.0,0.0,0.0,0.0,0.0,0.0,0.0,0.0,0.0,0.0,0.0,0.0,0.0,0.0,0.0,0.0,0.0,0.0,0.0,0.9159,0.9248,0.0,0.0,0.0,0.0,0.0,0.0,0.0,0.0,0.0,0.0,0.0,0.0,0.0,0.0,0.0,0.0,0.0,0.0,0.0,0.0,0.0,0.0,0.0,0.0,0.0,0.0,0.0,0.0,0.0,0.0,0.0,0.0,0.0,0.0,0.0,0.0,0.0,0.0,0.0,0.0,1.2357,1.2579,1.3214,1.4899,1.5087,1.4756,1.3956,1.3133,1.2343,1.1531,1.0501,0.0,0.0,0.0,0.0,0.0,0.0,0.0,0.0,0.0,0.0,0.0,0.0,0.0,0.0,0.0,0.0,0.0,0.0,0.0,0.0,0.0,0.0,0.0,0.0,0.0,0.0,0.0,0.0,0.0,0.0,0.0,0.0,0.0,0.0,0.0,0.0,0.0,0.0,0.0,0.0,0.0,0.0,0.0,0.0,0.0,0.0,0.0,0.0,0.0,0.0,0.0,0.0,0.0,0.0,0.0,0.0,0.0,0.0,0.0,1.0121,0.9821,0.0,0.0,0.0,0.0,0.0,0.0,0.0,0.0,0.0,0.0,0.0,0.0,0.0,0.0,0.0,0.0,0.0,0.0,0.0,0.0,0.0,0.0,0.0,0.0,0.0,0.0,0.0,0.0,0.0,0.0,0.0,0.0,0.0,0.0,0.0,0.0,0.0,0.0,0.0,0.0,1.2425,1.2947,1.3666,1.4953,1.5127,1.4972,1.4563,1.3782,1.3163,1.2765,1.1533,0.0,0.0,0.0,0.0,0.0,0.0,0.0,0.0,0.0,0.0,0.0,0.0,0.0,0.0,0.0,0.0,0.0,0.0,0.0,0.0,0.0,0.0,0.0,0.0,0.0,0.0,0.0,0.0,0.0,0.0,0.0,0.0,0.0,0.0,0.0,0.0,0.0,0.0,0.0,0.0,0.0,0.0,0.0,0.0,0.0,0.0,0.0,0.0,0.0,0.0,0.0,0.0,0.0,1.073,1.0847,1.1097,1.171,1.2075,1.2183,1.1364,1.0712,1.0242,1.0778,0.0,0.0,0.0,0.0,0.0,0.0,0.0,0.0,0.0,0.0,0.0,0.0,0.0,0.0,0.0,0.0,0.0,0.0,0.0,0.0,0.0,0.0,1.3815,1.3815,1.4337,1.4517,1.3365,0.0,0.0,0.0,0.0,0.0,0.0,0.0,0.0,0.0,0.0,0.0,1.2685,1.3404,1.4157,1.5031,1.5171,1.5199,1.5222,1.4477,1.4044,1.4104,1.2602,1.1754,0.0,0.0,0.0,0.0,0.0,0.0,0.0,0.0,0.0,0.0,0.0,0.0,0.0,0.0,0.0,0.0,0.0,0.0,0.0,0.0,0.0,0.0,0.0,0.0,0.0,0.0,0.0,0.0,0.0,0.0,0.0,0.0,0.6138,0.6139,0.0,0.0,0.0,0.0,0.0,0.0,0.0,0.0,0.0,0.0,0.0,0.0,0.0,0.968,1.0245,1.0533,1.1232,1.2283,1.2406,1.2745,1.3291,1.3428,1.3642,1.3871,1.3878,0.0,1.2613,1.2303,0.0,0.0,0.0,0.0,0.0,0.0,0.0,0.0,0.0,0.0,0.0,0.0,0.0,0.0,0.0,0.0,0.0,0.0,0.0,0.0,0.0,0.0,1.6324,1.626,1.6411,1.6542,1.6423,1.4783,1.3364,1.3446,1.2842,1.2103,0.0,0.0,0.0,0.0,0.0,0.0,1.3512,1.3811,1.4226,1.5088,1.5188,1.5211,1.5274,1.4561,1.4084,1.4102,1.3161,1.2622,1.2645,1.1747,0.0,0.0,0.0,0.0,0.0,0.0,0.0,0.0,0.0,0.0,0.0,0.0,0.0,0.0,0.0,0.0,0.0,0.0,0.0,0.0,0.0,0.0,0.0,0.0,0.0,0.0,0.0,0.0,0.0,0.5899,0.6123,0.6241,0.6284,0.6353,0.0,0.0,0.0,0.0,0.0,0.0,0.0,0.0,0.0,0.9746,1.0308,1.0962,1.1693,1.2094,1.2802,1.3797,1.3833,1.4031,1.4319,1.4477,1.4657,1.4893,1.5152,1.5113,1.4812,1.3827,1.3321,1.3198,0.0,0.0,0.0,0.0,1.3766,1.4223,1.4108,1.439,1.4765,1.4603,0.0,0.0,0.0,0.0,0.0,0.0,0.0,1.5108,1.5954,1.6831,1.7478,1.7445,1.7818,1.8221,1.8323,1.7219,1.6105,1.5791,1.4744,1.3816,1.3481,1.2645,0.0,0.0,0.0,1.3051,1.3798,1.4283,1.4737,1.5152,1.5204,1.5226,1.5283,1.5002,1.4837,1.4831,1.4004,1.3522,1.3523,1.2762,1.1692,0.0,0.0,0.0,0.0,0.0,0.0,0.0,0.0,0.0,0.0,0.0,0.0,0.0,0.0,0.0,0.0,0.0,0.0,0.0,0.0,0.0,0.0,0.0,0.0,0.0,0.0,0.0,0.0,0.6224,0.6411,0.6617,0.6742,0.6888,0.0,0.0,0.0,0.0,0.0,0.0,0.9728,0.985,1.0233,1.0968,1.1524,1.215,1.2851,1.3279,1.3924,1.4747,1.4787,1.4888,1.5064,1.5291,1.5476,1.5698,1.5862,1.6133,1.6354,1.5248,1.4674,1.4495,1.4564,1.4701,1.4878,1.5034,1.5284,1.5562,1.5823,1.6021,1.6174,1.6193,1.6051,1.5846,1.5431,0.0,0.0,0.0,0.0,1.6817,1.7693,1.8411,1.8899,1.8915,1.9385,1.9799,1.9709,1.9294,1.8702,1.7864,1.6592,1.5597,1.547,1.4405,0.0,1.3566,1.4123,1.4615,1.4846,1.5389,1.5786,1.5856,1.5865,1.5792,1.5655,1.5686,1.5621,1.5403,1.4786,1.4421,1.4422,1.3642,1.259,1.1305,0.0,0.0,0.0,0.0,0.0,0.0,0.0,0.0,0.0,0.0,0.0,0.0,0.0,0.0,0.0,0.0,0.0,0.0,0.0,0.0,0.0,0.0,0.0,0.0,0.0,0.0,0.0,0.0,0.0,0.753,0.7753,0.0,0.0,0.0,0.0,0.8878,0.8869,0.9276,1.0298,1.0725,1.1204,1.1805,1.2519,1.304,1.3383,1.3657,1.4129,1.4893,1.4965,1.5271,1.5764,1.6027,1.6232,1.6439,1.6184,1.6389,1.6851,1.6597,1.6618,1.6829,1.6978,1.7177,1.7436,1.7567,1.7789,1.8099,1.8489,1.8677,1.8764,1.8456,1.7618,1.6775,1.6937,1.7093,0.0,0.0,1.981,2.0083,2.1025,2.1279,2.1334,2.1407,2.1497,2.1385,2.0613,2.0572,2.0252,1.8817,1.7917,1.7138,1.6452,0.0,1.6206,1.6214,1.6247,1.6573,1.7392,1.7547,1.7587,1.7658,1.767,1.7358,1.6604,1.6534,1.6217,1.5442,1.5352,1.5338,1.5324,1.4503,1.3995,1.3917,1.1523,0.0,0.0,0.0,0.0,0.0,0.0,0.0,0.0,0.0,0.0,0.0,0.0,0.0,0.0,0.0,0.0,0.0,0.0,0.0,0.0,0.0,0.0,0.0,0.0,0.0,0.0,0.0,0.0,0.8108,0.8261,0.0,0.9046,0.8984,0.9363,1.0456,1.0348,1.0611,1.1388,1.1398,1.1591,1.2006,1.2711,1.3216,1.3542,1.4059,1.4472,1.4776,1.4821,1.4957,1.5232,1.5501,1.5756,1.6051,1.6253,1.6584,1.6968,1.7128,1.7019,1.6823,1.7058,1.7229,1.7349,1.7486,1.7747,1.8051,1.8361,1.8663,1.8952,1.9153,1.9018,1.8843,1.9098,1.9343,1.9682,2.0477,2.0777,2.0966,2.1387,2.1516,2.1571,2.1643,2.1715,2.1694,2.1465,2.1488,2.1291,2.0327,1.9166,1.8279,1.8051,1.7581,1.7233,1.724,1.7247,1.7343,1.767,1.7696,1.7702,1.7722,1.7761,1.768,1.7403,1.6895,1.6506,1.6254,1.5701,1.5397,1.5402,1.5109,1.4679,1.4112,1.3202,1.2206,0.0,0.0,0.0,0.0,0.0,0.0,0.0,0.0,0.0,0.0,0.0,0.0,0.0,0.0,0.0,0.0,0.0,0.0,0.0,0.0,0.0,0.0,0.0,0.0,0.0,0.7838,0.8295,0.8875,0.9142,0.9496,0.9961,1.0029,1.0377,1.1281,1.1152,1.1338,1.2043,1.1876,1.1945,1.2408,1.2873,1.3303,1.3587,1.4082,1.4373,1.4479,1.4479,1.4525,1.4674,1.496,1.5232,1.5579,1.602,1.6466,1.6879,1.7186,1.7183,1.6996,1.7354,1.762,1.7818,1.7928,1.8204,1.854,1.8932,1.9154,1.9354,1.9727,1.9837,1.9924,2.0458,2.0839,2.115,2.1688,2.1971,2.2116,2.2238,2.2335,2.2428,2.2502,2.2557,2.2537,2.2331,2.2323,2.2173,2.1498,2.0417,1.9554,1.9362,1.8893,1.8547,1.8561,1.8581,1.8581,1.8581,1.8581,1.8581,1.8581,1.8615,1.8538,1.8264,1.7504,1.694,1.6717,1.5875,1.5395,1.5402,1.5402,1.5129,1.4542,1.4257,1.3416,1.1998,0.0,0.0,0.0,0.0,0.0,0.0,0.0,0.0,0.0,0.0,0.0,0.0,0.0,0.0,0.0,0.0,0.0,0.0,0.0,0.0,0.0,0.0,0.0,0.7453,0.871,0.9643,0.982,1.0431,1.0919,1.0982,1.0982,1.1081,1.1303,1.1214,1.1438,1.218,1.2061,1.2347,1.3065,1.3142,1.3324,1.3563,1.3716,1.3847,1.3978,1.3978,1.4071,1.4176,1.443,1.4754,1.5108,1.5457,1.5901,1.6479,1.6791,1.7115,1.7557,1.8068,1.8567,1.8993,1.9078,1.9302,1.9683,2.0289,2.0319,2.0138,2.0286,2.0073,1.997,2.1,2.1499,2.1955,2.3005,2.3448,2.3629,2.3753,2.3896,2.4016,2.4094,2.4151,2.3988,2.3217,2.3087,2.2947,2.2256,2.1663,2.1062,2.0403,2.0257,2.0263,2.0323,2.0331,0.0,2.0312,2.0312,2.0312,2.0312,2.0308,1.9978,1.92,1.8387,1.7579,1.679,1.591,1.5394,1.5402,1.5402,1.5402,1.5402,1.4531,1.3685,1.284,0.0,0.0,0.0,0.0,0.0,0.0,0.0,0.0,0.0,0.0,0.0,0.0,0.0,0.0,0.0,0.0,0.0,0.0,0.0,0.0,0.0,0.7444,0.8166,0.8716,0.9279,0.9827,1.0283,1.0498,1.075,1.1055,1.1091,1.1246,1.1718,1.1689,1.184,1.2252,1.2252,1.2406,1.2774,1.292,1.3065,1.322,1.3334,1.3362,1.3399,1.3399,1.3505,1.361,1.3905,1.4244,1.4605,1.5062,1.5457,1.5901,1.6281,1.6723,1.7115,1.7828,1.824,1.8528,1.8736,1.9101,1.9603,2.003,2.042,2.0719,2.0893,2.107,2.1292,2.1703,2.2048,2.2479,2.3,2.3289,2.3499,2.3732,2.3858,2.3976,2.4074,2.4151,2.4154,2.3915,2.3952,2.3818,2.3114,2.2957,2.2735,2.2064,2.1493,2.1144,2.1169,2.0677,2.0312,2.0312,2.0312,2.0312,2.0312,2.0308,2.0203,1.9999,1.8692,1.7804,1.7586,1.6193,1.5392,1.5397,1.5401,1.5404,1.5408,1.4531,1.3978,0.0,0.0,0.0,0.0,0.0,0.0,0.0,0.0,0.0,0.0,0.0,0.0,0.0,0.0,0.0,0.0,0.0,0.0,0.0,0.0,0.0,0.0,0.7843,0.8632,0.9229,0.9692,1.0129,1.0536,1.0655,1.0798,1.0934,1.0951,1.1045,1.136,1.1528,1.1719,1.2126,1.2224,1.2431,1.2676,1.2832,1.2929,1.3027,1.3055,1.3094,1.3094,1.3094,1.3142,1.3296,1.3478,1.3752,1.4186,1.4605,1.5017,1.5412,1.5844,1.6238,1.6723,0.0,0.0,0.0,0.0,1.9078,1.9508,1.9839,2.0292,2.0745,2.0958,2.1262,2.1587,2.184,2.213,2.248,2.2825,2.3119,2.3383,2.3598,2.3771,2.3896,2.4016,2.4113,2.417,2.4191,2.4247,2.421,2.3828,2.3914,0.0,2.3655,2.2717,2.2009,2.2034,2.1658,2.135,2.135,2.1023,2.0812,2.0812,2.0493,2.0304,2.0288,1.914,0.0,0.0,0.0,1.5779,1.5416,1.5401,0.0,0.0,0.0,0.0,0.0,0.0,0.0,0.0,1.2911,1.2448,0.0,0.0,0.0,0.0,0.0,0.0,0.0,0.0,0.0,0.0,0.0,0.0,0.0,0.0,0.0,0.0,0.8191,0.8791,0.9259,0.9839,1.0319,1.0586,1.0872,1.0922,1.0667,1.0616,1.0616,1.0616,1.0871,1.1276,1.1778,1.2076,0.0,0.0,0.0,1.2881,1.2881,1.2881,1.2881,1.2881,1.2881,1.2978,1.3085,1.3142,1.3372,1.3763,1.414,1.4605,1.5017,1.5412,1.5844,1.6355,1.7086,1.7625,1.8042,1.8659,1.9093,1.9362,1.966,0.0,0.0,2.0662,2.0925,2.123,2.1617,2.1882,2.2153,2.2561,2.2902,2.3217,2.3407,2.3638,2.3795,2.3955,2.4054,2.4113,2.419,2.4209,2.4248,2.4355,2.451,2.467,2.4921,2.3797,2.2863,2.2938,2.2851,2.2793,2.2793,2.212,2.162,2.1504,2.0869,0.0,2.0306,1.9561,1.9123,1.9176,1.7716,1.6497,1.5733,1.5695,1.5697,1.5699,1.5683,1.6073,1.6845,1.6079,1.6447,1.7829,1.4688,1.3655,0.0,0.0,0.0,0.0,0.0,0.0,0.0,0.0,0.0,0.0,0.0,0.0,0.0,0.0,0.0,0.806,0.8468,0.887,0.9328,0.9475,0.9731,1.0257,1.0364,1.03,1.0154,1.0035,1.0035,1.0154,1.0403,1.0812,1.1377,1.1769,1.2126,1.2529,1.2686,1.2774,1.2881,1.2881,1.2881,1.2881,1.2881,0.0,1.2929,1.3075,1.32,1.3314,1.3763,1.4093,1.4408,1.496,1.5623,1.6355,1.6976,1.7406,1.7679,1.8149,1.8528,1.8822,1.9325,1.9741,2.0131,2.0376,2.0712,2.1007,2.1309,2.1661,0.0,2.2275,2.2607,2.2944,2.3265,2.3499,2.3703,2.3876,2.4016,2.4113,2.419,2.4209,2.4229,2.4284,2.4426,2.4575,2.4804,2.4195,2.3684,2.3765,2.3217,2.2793,2.2793,2.2639,2.2274,2.1581,2.137,2.1012,2.0369,1.9555,1.9115,1.9119,1.8254,1.7667,1.7503,1.7507,1.7491,1.7492,1.7496,1.7578,1.7749,1.7587,1.7634,1.788,1.6509,1.6336,0.0,0.0,0.0,0.0,0.0,0.0,0.0,0.0,0.0,0.0,0.0,0.652,0.6583,0.0,0.7602,0.7944,0.8327,0.8669,0.8974,0.9099,0.9368,0.9829,0.9829,0.9732,0.9629,0.9517,0.9517,0.9577,0.9932,1.0344,1.0812,1.1267,1.1719,1.2175,1.2372,1.2578,1.2783,1.2881,1.2881,1.2881,1.2881,1.2881,1.2881,1.2988,1.3065,1.3152,1.342,1.3705,1.4046,1.4869,1.5546,1.612,1.6595,1.7073,1.7502,1.7855,1.824,1.8669,1.9101,1.9508,1.9884,2.0115,2.041,2.0712,2.099,2.1324,2.1705,2.201,2.2381,2.2738,2.3052,2.3313,2.3526,2.3792,2.3917,2.4054,2.417,2.419,2.421,2.4247,2.4321,2.4461,2.467,2.4478,2.4366,2.4568,2.4293,2.4044,2.4062,2.3697,2.3283,2.2851,2.2023,2.1331,2.0924,2.0185,1.9585,1.9173,1.8795,1.842,1.8028,1.7992,1.7995,1.7998,1.7999,1.822,1.8652,1.8649,1.8858,1.9239,1.8807,1.8575,0.0,0.0,0.0,0.0,0.0,0.0,0.0,0.0,0.592,0.6014,0.6538,0.6988,0.6858,0.7267,0.7619,0.7674,0.8013,0.8368,0.8527,0.8738,0.9054,0.9413,0.9361,0.9263,0.9159,0.9159,0.9106,0.9159,0.9517,0.9873,1.0241,1.071,1.1226,1.1728,1.1977,1.2283,1.2578,1.2735,1.2832,1.2881,1.2881,1.2881,1.2881,1.2881,1.2978,1.3075,1.318,1.342,1.3915,1.4823,1.5367,1.5792,1.6175,1.6693,1.7267,1.7611,1.8028,1.8553,1.8936,1.9325,1.969,1.9884,2.0115,2.0376,2.0662,2.1039,2.1448,2.1781,2.2147,2.2542,2.2868,2.3095,2.3342,2.3667,2.3834,2.3937,2.4151,2.419,2.4209,2.4191,2.4247,2.4338,2.4526,2.4639,2.4785,2.5115,2.522,2.5271,2.5283,2.4716,2.4245,2.4091,2.2822,2.1861,2.1551,2.0822,2.0113,1.9463,1.9449,1.9166,1.8512,1.8496,1.8519,1.8506,1.8503,1.8858,1.9548,1.9726,2.0174,2.0857,2.1017,2.0592,0.2811,0.3104,0.3365,0.3684,0.3952,0.4184,0.0,0.5101,0.5593,0.599,0.6382,0.673,0.7024,0.7109,0.7218,0.7494,0.7759,0.8043,0.8215,0.8474,0.8685,0.8857,0.8956,0.9061,0.9008,0.891,0.891,0.9008,0.9263,0.9562,0.9865,1.03,1.0769,1.1175,1.1427,1.1778,1.2175,1.2431,1.2578,1.2725,1.2832,1.2881,1.2881,1.2881,1.2929,1.2929,1.3132,1.3515,1.402,1.4477,1.5028,1.5558,1.5901,1.625,1.6693,1.7227,1.772,1.8147,1.8707,1.9139,1.9487,1.9741,1.9919,2.0096,2.0426,2.0844,2.1293,2.1617,2.202,2.2394,2.2659,2.2944,2.3217,2.3549,2.375,2.3937,2.4074,2.4151,2.419,2.419,2.4209,2.4266,2.4389,2.4528,2.4704,2.4981,2.5094,2.513,2.5198,2.5133,2.4788,2.408,2.3832,2.314,2.1702,2.0807,2.0296,2.0263,2.0318,2.0317,2.0213,2.0287,2.0315,2.03,2.03,2.036,2.0459,2.1226,2.1659,2.1777,2.2486,2.2355,0.2493,0.2869,0.3232,0.3648,0.3918,0.4164,0.4608,0.5076,0.5489,0.5922,0.6268,0.6504,0.6659,0.6675,0.6759,0.7015,0.7192,0.7461,0.7836,0.8162,0.8427,0.8633,0.8798,0.891,0.891,0.8857,0.8804,0.8857,0.9106,0.9361,0.9562,0.9888,1.035,1.0967,1.1289,1.1756,1.2334,1.2492,1.2679,1.2862,1.2791,1.2832,1.2881,1.2881,1.2881,1.2929,1.3132,1.3362,1.3668,1.4233,1.4743,1.5187,1.5591,1.6001,1.6392,1.7031,1.7557,1.7948,1.8539,1.8988,1.9376,1.9596,1.9777,1.9955,2.027,2.0679,2.1087,2.1479,2.184,2.2203,2.2497,2.2764,2.3003,2.3348,2.3616,2.3831,2.3955,2.4054,2.4094,2.4113,2.4152,2.4191,2.4321,2.441,2.4549,2.4734,2.4893,2.5013,2.5075,2.5118,2.4847,2.4089,2.4005,2.3535,2.2406,2.196,2.1775,2.1849,2.1928,2.1973,2.2007,2.204,2.2049,2.2057,2.2057,2.2057,2.2057,2.2413,2.2594,2.2617,2.2947,2.3177,0.2168,0.2584,0.2936,0.3336,0.3678,0.3983,0.4335,0.477,0.5188,0.5558,0.5846,0.6055,0.6105,0.6164,0.6218,0.6376,0.6598,0.6928,0.7408,0.7836,0.8162,0.8521,0.8692,0.8745,0.8857,0.8804,0.8804,0.8857,0.9061,0.9299,0.9542,0.9708,1.0128,1.0786,1.1067,1.1516,1.2159,1.234,1.2573,1.2862,1.2851,1.2864,1.2938,1.293,1.2881,1.2929,1.3094,1.3276,1.3457,1.3999,1.4466,1.4869,1.5311,1.5736,1.6188,1.6863,1.7352,1.7787,1.8344,1.8822,1.9228,1.9465,1.9647,1.9812,2.02,2.0561,2.0958,2.1401,2.1748,2.2056,2.2388,2.2605,2.2825,2.3109,2.3412,2.3656,2.375,2.3855,2.3937,2.3996,2.4054,2.4113,2.4247,2.4321,2.4393,2.4549,2.4689,2.4837,2.4934,2.5,2.4846,2.4364,2.4089,2.3746,2.3197,2.2945,2.284,2.2901,2.2953,2.3009,2.3098,2.3107,2.3101,2.3091,2.3091,2.3091,2.3091,2.3347,2.3451,2.3457,2.3711,2.416,0.1869,0.227,0.2535,0.2686,0.3013,0.3397,0.3568,0.3964,0.4379,0.4856,0.5062,0.5179,0.5336,0.5504,0.5622,0.5622,0.6055,0.6549,0.6879,0.7408,0.7883,0.8368,0.8527,0.8732,0.8956,0.8857,0.8857,0.8956,0.9106,0.939,0.9857,0.9871,1.0132,1.0565,1.0743,1.0978,1.1228,1.184,1.227,1.252,1.2959,1.3127,1.2978,1.2908,1.2881,1.2929,1.3027,1.321,1.342,1.3716,1.415,1.4673,1.5142,1.5501,1.5881,1.6663,1.7157,1.7598,1.8108,1.8606,1.9069,1.9317,1.9501,1.9683,2.0166,2.0543,2.0909,2.137,2.1748,2.2056,2.2332,2.2569,2.2738,2.2893,2.3168,2.343,2.3504,2.3602,2.3714,2.3795,2.3917,2.4054,2.417,2.4191,2.4266,2.4464,2.4517,2.4566,2.4791,2.4851,2.4949,2.5065,2.4361,2.3955,2.4043,2.3302,2.2835,2.29,2.2895,2.2959,2.3088,2.3104,2.3101,2.3091,2.3091,2.3091,2.3091,2.3952,2.4367,2.4372,2.5234,2.5644,0.1327,0.1795,0.2198,0.2487,0.2717,0.2952,0.3217,0.346,0.3744,0.4119,0.4294,0.4463,0.4736,0.4904,0.5073,0.5352,0.5572,0.595,0.6652,0.7085,0.7563,0.8315,0.8586,0.885,0.9106,0.9008,0.9008,0.9106,0.9454,0.9724,0.9885,1.0086,1.0344,1.0718,1.0909,1.1189,1.1594,1.1964,1.2299,1.2577,1.3001,1.3312,1.344,1.3282,1.319,1.3281,1.3155,1.3152,1.3266,1.3563,1.3952,1.4373,1.4858,1.5266,1.5736,1.6392,1.6905,1.7406,1.8016,1.8489,1.8912,1.9228,1.9465,1.9683,2.0045,2.041,2.0778,2.123,2.1631,2.1986,2.2209,2.2422,2.2605,2.2738,2.297,2.3168,2.3289,2.3412,2.3531,2.3649,2.3774,2.3917,2.4094,2.4172,2.4248,2.4412,2.4498,2.4615,2.4726,2.4779,2.4907,2.5075,2.4905,2.4798,2.488,2.4639,2.4503,2.4559,2.4592,2.4677,2.4763,2.4797,2.4835,2.4822,2.4827,2.4829,2.4829,2.5121,2.526,2.5263,2.5565,2.5703,0.0969,0.1451,0.1824,0.2182,0.2485,0.2666,0.2778,0.3017,0.3291,0.3527,0.3688,0.3858,0.4187,0.4411,0.4636,0.5022,0.5187,0.5593,0.6423,0.6934,0.7516,0.838,0.8844,0.9228,0.9594,0.9547,0.9498,0.9439,0.9717,1.0041,1.0328,1.0415,1.0607,1.0988,1.1124,1.1348,1.1615,1.189,1.2262,1.2679,1.3002,1.3377,1.3709,1.3609,1.3488,1.3496,1.3322,1.3204,1.319,1.3372,1.3705,1.4186,1.4628,1.513,1.568,1.6293,1.682,1.7282,1.7868,1.8347,1.876,1.9101,1.9376,1.9596,1.9975,2.0308,2.0679,2.1151,2.157,2.1915,2.214,2.2366,2.2515,2.2605,2.279,2.297,2.307,2.3217,2.3383,2.3513,2.3689,2.3876,2.4036,2.4153,2.4266,2.4339,2.4481,2.4599,2.4645,2.4723,2.4837,2.5032,2.513,2.519,2.5283,2.5303,2.5341,2.5404,2.5441,2.5512,2.5595,2.564,2.5687,2.5698,2.5705,2.5707,2.5707,2.5707,2.5707,2.5707,2.5702,2.5703,0.0751,0.1249,0.1578,0.1853,0.2238,0.2536,0.2354,0.2644,0.3027,0.3039,0.3241,0.3461,0.3741,0.4018,0.4294,0.4632,0.5022,0.552,0.6208,0.6867,0.7646,0.8586,0.9214,0.9744,1.0365,1.0422,1.0307,0.9957,0.9936,1.0313,1.1041,1.0905,1.0988,1.1296,1.1303,1.1303,1.1303,1.1615,1.2182,1.2797,1.3042,1.3385,1.3816,1.3919,1.3777,1.3535,1.3516,1.3372,1.3133,1.318,1.3515,1.4067,1.4536,1.5073,1.568,1.6293,1.682,1.7282,1.772,1.8163,1.8556,1.895,1.9228,1.9487,1.994,2.0273,2.0595,2.1119,2.1526,2.1827,2.2111,2.2338,2.2487,2.2515,2.2659,2.2816,2.2893,2.307,2.3265,2.3453,2.3682,2.3876,2.3996,2.4172,2.4284,2.4303,2.4411,2.4534,2.4599,2.4645,2.4783,2.4966,2.5063,2.5138,2.5282,2.5293,2.5332,2.5406,2.541,2.5452,2.5593,2.56,2.5636,2.5698,2.5703,2.5707,2.5707,2.5707,2.5707,2.5709,2.5702,2.5703,0.0472,0.1099,0.1617,0.1816,0.2216,0.2484,0.2307,0.2589,0.2857,0.2819,0.2911,0.3042,0.3453,0.3667,0.4063,0.4718,0.5014,0.552,0.6554,0.7043,0.7755,0.893,0.9389,0.9911,1.0473,1.0537,1.0595,1.0755,1.077,1.0902,1.1063,1.1182,1.1224,1.1303,1.1303,1.1303,1.1303,1.1809,1.2305,1.292,1.3245,1.3723,1.4304,1.4251,1.4112,1.3902,1.3643,1.3372,1.3133,1.318,1.3515,1.4067,1.4536,1.5107,1.58,1.6293,1.682,1.724,1.7625,1.8083,1.8556,1.895,1.9228,1.945,1.9762,2.008,2.0426,2.0827,2.1198,2.157,2.1869,2.2163,2.2394,2.2487,2.2623,2.2738,2.2816,2.3003,2.3265,2.3458,2.3789,2.4056,2.4135,2.4229,2.4321,2.4376,2.4447,2.4517,2.4512,2.4631,2.4757,2.4921,2.5025,2.5153,2.5282,2.5293,2.5322,2.5407,2.5401,2.5437,2.5512,2.5561,2.5621,2.5701,2.5693,2.5705,2.5698,2.5691,2.5694,2.5702,2.5703,2.5703,0.0373,0.1008,0.1597,0.1916,0.2252,0.2518,0.2474,0.2648,0.2742,0.265,0.2666,0.2826,0.3093,0.3365,0.3825,0.4495,0.4846,0.5399,0.661,0.7244,0.8008,0.9332,0.9873,1.0421,1.0959,1.1011,1.1092,1.1336,1.1158,1.1136,1.1282,1.1396,1.1435,1.1435,1.1435,1.1428,1.149,1.1934,1.2428,1.2928,1.3398,1.3941,1.4519,1.4666,1.4609,1.4394,1.3965,1.3596,1.3343,1.3319,1.3658,1.4244,1.4686,1.5311,1.6044,1.6436,1.6863,1.724,1.7584,1.8003,1.8439,1.8874,1.9176,1.945,1.9726,2.001,2.0373,2.0695,2.1103,2.1524,2.1823,2.2147,2.2405,2.2515,2.2632,2.279,2.2944,2.3144,2.3365,2.3664,2.3935,2.4152,2.4192,2.4303,2.4393,2.4447,2.45,2.4549,2.458,2.4647,2.4738,2.4888,2.5025,2.5134,2.5241,2.5283,2.5313,2.5351,2.5376,2.5426,2.5444,2.5543,2.5615,2.5668,2.569,2.5709,2.57,2.5699,2.5701,2.5703,2.5703,2.5703,0.0375,0.0959,0.155,0.2071,0.2342,0.2535,0.2627,0.2687,0.2717,0.2664,0.2618,0.2654,0.2871,0.316,0.3642,0.4261,0.4707,0.5416,0.6601,0.7472,0.8429,0.9655,1.0395,1.0996,1.156,1.1622,1.1622,1.1622,1.1358,1.126,1.1608,1.1622,1.1622,1.1622,1.1622,1.1685,1.1864,1.2236,1.2552,1.2928,1.3588,1.4121,1.4597,1.5029,1.5032,1.4821,1.4326,1.4001,1.373,1.3516,1.3847,1.4512,1.4971,1.5603,1.6287,1.659,1.6918,1.724,1.7543,1.7868,1.8268,1.876,1.9101,1.945,1.969,2.001,2.0323,2.0662,2.1087,2.1554,2.1823,2.2203,2.2515,2.2579,2.2712,2.2893,2.3168,2.336,2.3571,2.3955,2.4113,2.4209,2.4247,2.4375,2.45,2.4517,2.4566,2.4631,2.4698,2.4711,2.4749,2.4888,2.5031,2.5138,2.5212,2.5264,2.5313,2.5313,2.536,2.5412,2.5414,2.5525,2.559,2.5601,2.5673,2.5691,2.57,2.5703,2.5703,2.5703,2.5703,2.5703,0.0389,0.1166,0.1765,0.2026,0.2465,0.2695,0.2496,0.2657,0.0,0.2787,0.2766,0.2866,0.3255,0.3429,0.3817,0.4658,0.5128,0.5801,0.6971,0.7783,0.8729,0.9762,1.0456,1.0996,1.156,1.1622,1.1622,1.1622,1.1571,1.1564,1.1622,1.1622,1.1622,1.1622,1.1685,1.1934,1.2182,1.2658,1.3139,1.3649,1.4121,1.4538,1.4911,1.5088,1.509,1.4933,1.4488,1.4158,1.4012,1.3807,1.4071,1.4709,1.5085,1.5756,1.6479,1.6633,1.6918,1.724,1.7447,1.776,1.8121,1.8707,1.9101,1.9376,1.9654,1.9889,2.017,2.0494,2.0909,2.1433,2.1794,2.2147,2.246,2.2632,2.2842,2.3003,2.3241,2.3553,2.3876,2.4132,2.4172,2.4247,2.4411,2.4482,2.4534,2.4652,2.4679,2.4707,2.4783,2.4787,2.4832,2.4966,2.5043,2.5138,2.5282,2.5293,2.5322,2.5389,2.5397,2.5412,2.5468,2.5499,2.554,2.5601,2.5665,2.5705,2.57,2.5703,2.5703,2.5703,2.5703,2.5703,0.0617,0.1277,0.1917,0.2184,0.2527,0.2785,0.2725,0.0,0.0,0.2896,0.2895,0.3004,0.3203,0.343,0.3795,0.4544,0.5073,0.5733,0.6798,0.7739,0.8673,0.9799,1.035,1.0939,1.1545,1.1622,1.1622,1.1622,1.1685,1.1685,1.1622,1.1685,1.1747,1.1879,1.2058,1.2313,1.256,1.3155,1.364,1.401,1.4588,1.5001,1.5196,1.5439,1.5563,1.5532,1.4858,1.4644,1.4786,1.4334,1.4536,1.522,1.5591,1.6163,1.6748,1.6918,1.7099,1.7337,1.7625,1.7895,1.8214,1.8745,1.9064,1.9339,1.9617,1.994,2.0254,2.0478,2.0958,2.1509,2.1853,2.2231,2.2552,2.2764,2.3102,2.3412,2.3531,2.3792,2.4036,2.4172,2.4266,2.4358,2.4482,2.4584,2.4679,2.4738,2.4813,2.4884,2.4953,2.4947,2.4974,2.5063,2.5111,2.519,2.5282,2.5332,2.5361,2.5398,2.5434,2.5476,2.5495,2.5525,2.5565,2.5601,2.5671,2.5696,2.57,2.5703,2.5703,2.5703,2.5703,2.5703,0.1175,0.1607,0.2113,0.2448,0.2751,0.3022,0.3097,0.3247,0.3291,0.3105,0.3174,0.3251,0.3218,0.3492,0.3864,0.4389,0.5013,0.572,0.667,0.7646,0.8676,0.9814,1.0368,1.0959,1.1593,1.1685,1.1747,1.1747,1.1864,1.1864,1.1747,1.1809,1.1934,1.212,1.2498,1.2744,1.292,1.364,1.4121,1.4419,1.5069,1.541,1.5584,1.5846,1.6016,1.6033,1.5275,1.5174,1.5463,1.4901,1.5085,1.578,1.6175,1.6577,1.7002,1.7199,1.7337,1.7528,1.7842,1.8109,1.8347,1.8822,1.9139,1.9376,1.9654,2.0045,2.0392,2.0597,2.1103,2.1645,2.1924,2.2326,2.2685,2.2944,2.3365,2.3725,2.3816,2.3978,2.4152,2.4229,2.4339,2.4447,2.4551,2.4695,2.4798,2.4832,2.4947,2.5044,2.5106,2.5134,2.5138,2.5141,2.519,2.5262,2.5331,2.5361,2.5416,2.5416,2.5476,2.5515,2.5524,2.5564,2.5609,2.5625,2.5671,2.5697,2.5698,2.5703,2.5703,2.5703,2.5703,2.5699,0.2168,0.2411,0.257,0.2774,0.3216,0.3605,0.3579,0.0,0.3845,0.3581,0.3644,0.3715,0.3676,0.3978,0.4323,0.4705,0.5319,0.6081,0.7047,0.7862,0.878,0.9884,1.0607,1.1262,1.171,1.1934,1.212,1.2243,1.2367,1.2297,1.2058,1.2058,1.212,1.2305,1.2621,1.2981,1.345,1.4231,1.4765,1.5108,1.5604,1.5904,1.6056,1.6056,1.6048,1.6007,1.5595,1.5491,1.559,1.5395,1.5623,1.6188,1.6509,1.685,1.7199,1.7393,1.7543,1.772,1.8043,1.8293,1.8553,1.902,1.9273,1.945,1.9848,2.02,2.0561,2.0795,2.1308,2.1811,2.2056,2.2409,2.2816,2.3241,2.3531,2.3753,2.3937,2.4077,2.4229,2.4358,2.4447,2.4551,2.4745,2.4783,2.4832,2.4968,2.5043,2.5122,2.5176,2.5252,2.5274,2.5293,2.5293,2.5313,2.5389,2.5395,2.5421,2.5484,2.5503,2.5531,2.5593,2.5607,2.5634,2.5697,2.5703,2.5702,2.5709,2.5702,2.5702,2.5709,2.5709,2.5709,0.2494,0.2878,0.3239,0.3418,0.3834,0.4177,0.4094,0.4313,0.4388,0.3898,0.3968,0.4108,0.3878,0.4148,0.4541,0.492,0.571,0.6485,0.7126,0.7979,0.8837,0.9596,1.0365,1.1027,1.1601,1.2058,1.2544,1.2972,1.3086,1.3208,1.3373,1.2911,1.2797,1.3216,1.3407,1.3761,1.4231,1.4765,1.5186,1.5488,1.5961,1.6249,1.64,1.6627,1.6752,1.664,1.6338,1.6241,1.6232,1.6017,1.6194,1.6663,1.6905,1.7144,1.7434,1.7774,1.7975,1.8135,1.8567,1.8822,1.8983,1.9427,1.9717,1.9925,2.0131,2.0392,2.0761,2.1039,2.1479,2.1928,2.2243,2.2694,2.3151,2.3499,2.3685,2.3876,2.4074,2.4191,2.4303,2.4429,2.4549,2.466,2.4783,2.4893,2.5013,2.5099,2.5179,2.5243,2.5312,2.5341,2.5359,2.5359,2.5369,2.5369,2.5395,2.5437,2.5468,2.5505,2.5551,2.5579,2.5601,2.5648,2.5668,2.5693,2.5701,2.5705,2.5701,2.5703,2.5699,2.5707,2.569,2.5701,0.2873,0.3328,0.3746,0.3948,0.4308,0.4632,0.4603,0.4782,0.4846,0.4262,0.4309,0.4389,0.4102,0.4464,0.4892,0.5179,0.6106,0.6955,0.7379,0.8193,0.8956,0.9576,1.0453,1.118,1.176,1.251,1.3199,1.3752,1.3923,1.4154,1.4569,1.4043,1.3872,1.4061,1.4189,1.4478,1.4942,1.5294,1.5642,1.5961,1.6363,1.6694,1.6853,1.7245,1.7276,1.7065,1.6988,1.6848,1.6704,1.6573,1.6723,1.7115,1.7365,1.7557,1.7787,1.8254,1.845,1.8592,1.9049,1.9295,1.9427,1.9788,2.0139,2.0395,2.0579,2.0794,2.1039,2.1386,2.1811,2.2215,2.2605,2.3028,2.3412,2.3682,2.3873,2.4016,2.419,2.4303,2.4393,2.4517,2.4629,2.4764,2.4847,2.5013,2.5141,2.522,2.5283,2.5351,2.5388,2.5421,2.5434,2.5441,2.5453,2.5453,2.5441,2.549,2.5525,2.5535,2.5586,2.5625,2.5625,2.5676,2.5702,2.5703,2.5703,2.5702,2.57,2.5694,2.5705,2.5696,2.5683,2.5663,0.3454,0.3718,0.3956,0.4306,0.4637,0.4914,0.4969,0.5091,0.5117,0.4857,0.4702,0.4544,0.4438,0.4993,0.5515,0.5596,0.6569,0.7445,0.7916,0.856,0.9286,1.0024,1.1114,1.1922,1.223,1.3457,1.4273,1.4469,1.4942,1.5235,1.5352,1.5507,1.5332,1.4706,1.4834,1.5128,1.5594,1.5941,1.6285,1.657,1.6842,1.7179,1.7523,1.7799,1.7617,1.7107,1.7363,1.7217,1.6735,1.6905,1.7199,1.7516,1.7868,1.8108,1.8344,1.8745,1.8988,1.9139,1.942,1.9624,1.9823,2.0104,2.0462,2.086,2.1261,2.1386,2.1479,2.1794,2.2271,2.2764,2.3119,2.3342,2.3571,2.3834,2.3996,2.4133,2.4266,2.4393,2.4517,2.4582,2.4704,2.4847,2.4981,2.5111,2.522,2.5293,2.5351,2.5397,2.5393,2.5456,2.5499,2.5499,2.555,2.5576,2.5499,2.555,2.559,2.559,2.5664,2.5698,2.5702,2.5702,2.5697,2.5696,2.5701,2.569,2.569,2.5691,2.5699,2.5699,2.563,2.556,0.3959,0.4364,0.4775,0.4977,0.5246,0.5445,0.5526,0.5534,0.5455,0.5127,0.5023,0.4951,0.4778,0.5405,0.6005,0.6109,0.7272,0.8222,0.8569,0.9286,0.9959,1.0374,1.1772,1.2972,1.3752,1.4571,1.5167,1.5584,1.57,1.5931,1.6228,1.6275,1.6104,1.5642,1.57,1.5874,1.6285,1.64,1.657,1.6899,1.7301,1.7689,1.8061,1.8536,1.8449,1.7786,1.8154,1.7811,1.706,1.7378,1.7584,1.7788,1.8082,1.8383,1.8707,1.9101,1.9362,1.9581,1.994,2.01,2.0258,2.0648,2.0942,2.1293,2.1748,2.1823,2.1853,2.2436,2.2833,2.3182,2.3422,2.3624,2.3834,2.4057,2.4172,2.4266,2.4409,2.4512,2.4594,2.4711,2.4837,2.4981,2.5111,2.522,2.5303,2.5359,2.544,2.548,2.5459,2.5531,2.5568,2.5561,2.5636,2.5642,2.557,2.559,2.5598,2.5599,2.5664,2.568,2.5625,2.5636,2.5621,2.5629,2.5636,2.5632,2.5632,2.5624,2.5605,2.5554,2.5486,2.5444,0.4164,0.4508,0.4839,0.5043,0.5274,0.5444,0.5572,0.5608,0.5538,0.5401,0.5336,0.5293,0.524,0.5896,0.6453,0.6556,0.7856,0.8896,0.9136,1.0067,1.0904,1.1498,1.2509,1.3565,1.4753,1.5236,1.5693,1.6275,1.64,1.657,1.6864,1.6909,1.6853,1.6684,1.6503,1.657,1.6864,1.6976,1.7134,1.7446,1.7909,1.8302,1.8643,1.9019,1.8859,1.8342,1.8507,1.8149,0.0,1.7814,1.8069,1.8293,1.8539,1.8846,1.9199,1.9545,1.9762,1.9975,2.0357,2.0545,2.0681,2.1103,2.1552,2.201,2.2385,2.2429,2.2419,2.2952,2.3253,2.3468,2.3649,2.3858,2.4057,2.4229,2.4356,2.4444,2.4596,2.4673,2.4746,2.4842,2.4987,2.5103,2.522,2.5284,2.5359,2.5426,2.5461,2.5517,2.5535,2.5566,2.5605,2.5603,2.5661,2.5664,2.5602,2.5623,2.5625,2.5599,2.5637,2.5629,2.5565,2.556,2.5562,2.556,2.5549,2.5568,2.556,2.5543,2.5493,2.5418,2.5382,2.534,0.0,0.427,0.4442,0.4758,0.4891,0.5034,0.5297,0.5389,0.0,0.5711,0.5655,0.5652,0.5841,0.6446,0.6929,0.6994,0.8417,0.9536,0.9665,1.0836,1.2004,1.3135,1.3253,1.3841,1.5257,1.5564,1.5946,1.6543,1.6888,1.7134,1.7334,1.739,1.7556,1.7711,1.7268,1.7157,1.7323,1.7567,1.7797,1.8101,1.8531,1.8879,1.9157,1.9096,1.8955,1.8682,1.853,1.8286,1.8028,1.8266,1.8592,1.8936,1.9132,1.9442,1.9747,2.003,2.022,2.0373,2.0728,2.0942,2.1118,2.1552,2.222,2.2867,2.314,2.3133,2.3102,2.336,2.3531,2.3692,2.3878,2.4078,2.4248,2.4389,2.4524,2.4673,2.4787,2.4884,2.4929,2.5006,2.5122,2.5243,2.5293,2.5367,2.5434,2.5499,2.5517,2.5525,2.5598,2.5601,2.5599,2.5605,2.5655,2.5654,2.559,2.5659,2.5664,2.559,2.5599,2.5551,2.5492,2.5485,2.5483,2.5485,2.5483,2.5483,2.5485,2.5422,2.5346,2.5283,2.5283,2.519,0.4181,0.0,0.5007,0.5105,0.5261,0.5484,0.0,0.5776,0.5875,0.6181,0.0,0.6501,0.6763,0.7379,0.7902,0.8023,0.9299,1.031,1.0535,1.1865,1.3017,1.3573,1.3988,1.4437,1.511,1.5827,1.6461,1.6774,1.7258,1.7545,1.7601,1.7342,1.7404,1.7843,1.7695,1.7684,1.7744,1.7642,1.7699,1.7949,1.8065,1.8325,1.87,1.9019,1.9006,1.8712,1.8932,1.8782,1.8422,1.8784,1.9011,1.9184,1.9442,1.9747,2.003,2.0239,2.0478,2.0728,2.1055,2.1308,2.1582,2.2275,2.2824,2.3212,2.345,2.3495,2.3495,2.3728,2.3937,2.4097,2.4247,2.4389,2.4559,2.4749,2.4804,2.4861,2.4993,2.5038,2.5072,2.5141,2.5215,2.5312,2.5429,2.5464,2.5499,2.5571,2.5578,2.5587,2.5599,2.5605,2.5597,2.5598,2.5576,2.5543,2.551,2.5579,2.5585,2.5535,2.5525,2.5483,2.5441,2.5426,2.541,2.5421,2.5423,2.5397,2.534,2.5274,2.5203,2.5141,2.5043,2.4981,0.4448,0.4698,0.4898,0.5223,0.5434,0.5641,0.591,0.0,0.0,0.0,0.0,0.7172,0.741,0.807,0.8683,0.8982,1.0094,1.12,1.21,1.302,1.3705,1.4046,1.4233,1.4564,1.5143,1.5625,1.6122,1.6539,1.6871,1.7145,1.7304,1.7123,1.7347,1.8119,1.8235,1.8291,1.829,1.8147,1.8181,1.8472,1.8417,1.8588,1.8924,1.9128,1.9121,1.899,1.9107,1.902,1.8831,1.9236,1.9457,1.9624,1.9889,2.015,2.0392,2.0597,2.0844,2.1087,2.1479,2.1907,2.2368,2.289,2.3312,2.3646,2.3858,2.3961,2.4022,2.4077,2.421,2.4374,2.4493,2.4623,2.4779,2.4912,2.4987,2.5063,2.5184,2.5212,2.5245,2.5274,2.5354,2.5425,2.5525,2.5551,2.5554,2.5598,2.5598,2.5605,2.5597,2.5564,2.5541,2.5542,2.5518,2.5483,2.5471,2.5495,2.5488,2.5456,2.5453,2.5421,2.535,2.535,2.5331,2.5303,2.5283,2.5233,2.5209,2.5111,2.5019,2.4949,2.4861,2.4775,0.4884,0.4848,0.4814,0.548,0.578,0.6,0.6372,0.0,0.0,0.0,0.0,0.0,0.8211,0.8852,0.0,1.001,1.1032,1.2327,1.3825,1.415,1.4291,1.4558,1.4419,1.4584,1.5263,1.5363,1.5624,1.6176,1.64,1.6646,1.6884,1.6926,1.7349,1.835,1.866,1.8846,1.8851,1.8808,1.8857,1.9124,1.8937,1.9052,1.9273,1.9225,1.9221,1.9327,1.9243,1.9273,1.9369,1.9675,1.996,2.0204,2.0357,2.0577,2.0843,2.1039,2.1229,2.1509,2.201,2.2625,2.3218,2.3432,2.3738,2.4077,2.4266,2.4444,2.4528,2.4426,2.4478,2.4594,2.4704,2.4856,2.4966,2.5019,2.5141,2.5241,2.5322,2.5378,2.5418,2.5425,2.5486,2.5522,2.5582,2.5609,2.5593,2.5605,2.5581,2.5583,2.5586,2.5537,2.5483,2.5478,2.5488,2.5456,2.5385,2.5378,2.5369,2.5379,2.5388,2.5351,2.5293,2.5264,2.5243,2.519,2.5115,2.5056,2.5057,2.4915,2.4818,2.476,2.4692,2.4596,0.542,0.5718,0.5925,0.6577,0.7273,0.7843,0.8099,0.0,0.0,0.0,0.0,0.0,0.0,1.0421,1.1025,1.1286,1.2573,1.3872,1.4903,1.5108,1.5165,1.5334,1.5096,1.5051,1.528,1.566,1.6031,1.6338,1.6834,1.7179,1.7363,1.7168,1.7449,1.8219,1.875,1.9114,1.9239,1.9021,1.9028,1.9199,1.867,1.8504,1.8717,1.8984,1.9194,1.939,1.9581,1.9767,1.9919,2.0254,2.0444,2.0563,2.078,2.1055,2.1324,2.1521,2.1774,2.2164,2.2781,2.3289,2.3649,2.3842,2.4061,2.4283,2.4491,2.4654,2.4775,2.4865,2.487,2.4856,2.494,2.5057,2.5164,2.5239,2.5303,2.5387,2.5449,2.548,2.549,2.5556,2.557,2.5595,2.5599,2.5605,2.5602,2.5595,2.5551,2.5513,2.5511,2.5464,2.5429,2.5412,2.5351,2.5322,2.5312,2.5253,2.5241,2.5236,2.5271,2.5282,2.5209,2.5168,2.5134,2.5106,2.4981,2.4902,2.4847,2.4716,2.4607,2.4526,2.4481,2.4447,0.6115,0.6637,0.7226,0.8498,0.8678,0.8662,0.9207,0.0,0.0,0.0,0.0,0.0,0.0,0.0,1.2494,1.3045,1.4021,1.4898,1.5487,1.5635,1.5691,1.5668,1.5501,1.5367,1.5468,1.568,1.5946,1.6275,1.6608,1.6958,1.732,1.7332,1.7709,1.861,1.8987,1.941,1.9943,1.9697,1.953,1.9374,1.8936,1.8846,1.9035,1.9332,1.9566,1.9762,2.0065,2.0239,2.0342,2.0613,2.0828,2.1055,2.1197,2.1491,2.1878,2.2214,2.2565,2.2908,2.3335,2.3671,2.3961,2.4192,2.4424,2.4586,2.476,2.4888,2.4975,2.5087,2.5063,2.5019,2.5099,2.519,2.5274,2.5341,2.5401,2.5478,2.5549,2.5556,2.557,2.5586,2.56,2.5605,2.56,2.5564,2.5554,2.5542,2.5492,2.5439,2.5401,2.5369,2.5332,2.5293,2.5252,2.522,2.5209,2.5157,2.5164,2.5195,2.5164,2.5141,2.516,2.5063,2.4981,2.4934,2.4804,2.4697,2.4639,2.4528,2.4462,2.4393,2.4321,2.4284,0.6825,0.7427,0.8179,0.9988,0.0,0.9627,1.0421,0.0,0.0,0.0,0.0,0.0,0.0,1.3117,1.3937,1.4732,1.5274,1.57,1.602,1.6151,1.6194,1.6139,1.6064,1.5976,1.5976,1.5976,1.612,1.6491,1.6637,1.6964,1.7393,1.7639,1.8126,1.8933,1.9263,1.9707,2.0321,2.0294,2.0079,1.9698,1.9429,1.942,1.966,1.9874,2.005,2.022,2.0527,2.0712,2.0795,2.1055,2.1291,2.1615,2.1702,2.2062,2.2512,2.2972,2.33,2.3602,2.378,2.4022,2.4284,2.4508,2.4712,2.4902,2.5025,2.5122,2.5152,2.5234,2.5215,2.5205,2.5234,2.5303,2.5354,2.541,2.5479,2.5537,2.5582,2.5598,2.56,2.5605,2.5592,2.5567,2.5566,2.5508,2.5473,2.5464,2.541,2.535,2.5303,2.5282,2.5239,2.5176,2.5153,2.5099,2.5043,2.5013,2.5032,2.5094,2.5025,2.4987,2.5038,2.4907,2.4804,2.4731,2.4607,2.4528,2.4444,2.4393,2.4321,2.4247,2.421,2.4172,0.7427,0.7812,0.8333,1.0125,1.0965,0.0,1.2258,1.289,0.0,1.3338,0.0,0.0,0.0,1.4708,1.5308,1.6034,1.6201,1.6367,1.6778,1.6892,1.6964,1.7073,1.7073,1.706,1.706,1.706,1.7186,1.7393,1.7489,1.7666,1.8027,1.8291,1.8592,1.8889,1.9686,2.0015,1.9752,2.0474,2.067,2.0327,2.0077,2.008,2.0342,2.041,2.0579,2.0828,2.1071,2.123,2.1386,2.1675,2.1953,2.2164,2.2405,2.2848,2.3346,2.3631,2.386,2.4079,2.4284,2.4472,2.4682,2.4818,2.4968,2.5096,2.5233,2.5274,2.5302,2.5363,2.5437,2.5466,2.539,2.543,2.5479,2.549,2.5537,2.5593,2.5593,2.5605,2.5595,2.56,2.5546,2.5492,2.5427,2.541,2.5393,2.5313,2.5322,2.5273,2.5222,2.5217,2.518,2.5113,2.5,2.4902,2.4832,2.4764,2.4738,2.4738,2.4842,2.4889,2.4836,2.4689,2.4591,2.4528,2.4464,2.4375,2.4303,2.4247,2.4191,2.4113,2.4113,2.4056,0.8065,0.8372,0.8915,1.112,1.1893,0.0,0.0,1.344,1.4192,1.4277,1.493,0.0,0.0,0.0,1.6368,1.6612,1.6765,1.6934,1.7183,1.7419,1.7598,1.7679,1.7733,1.776,1.776,1.776,1.7881,1.8159,1.8277,1.8511,1.8893,1.9132,1.9347,1.9566,1.9951,2.0146,2.022,2.0555,2.0767,2.0889,2.0553,2.0512,2.073,2.0958,2.115,2.1291,2.1628,2.1849,2.2034,2.2258,2.2502,2.2798,2.3183,2.3548,2.3862,2.4041,2.4211,2.4371,2.4522,2.4693,2.485,2.5037,2.5182,2.5303,2.5357,2.539,2.5441,2.5511,2.5547,2.5556,2.5485,2.5511,2.5565,2.557,2.5583,2.5604,2.5602,2.5603,2.559,2.5546,2.5492,2.5418,2.5354,2.535,2.5313,2.5252,2.5239,2.5214,2.5149,2.5101,2.5051,2.498,2.4823,2.4685,2.4623,2.4594,2.4561,2.451,2.461,2.4642,2.4613,2.453,2.4445,2.4375,2.4303,2.4247,2.4171,2.4075,2.3998,2.3976,2.3896,2.3837,0.8608,0.89,0.9429,1.1693,0.0,0.0,1.3302,1.4218,1.5082,1.5375,1.6186,1.6943,1.73,0.0,1.7269,1.724,1.7352,1.7529,1.7666,1.7989,1.8214,1.8344,1.8447,1.8511,1.8535,1.8535,1.865,1.8954,1.9109,1.931,1.9588,1.9818,1.9995,2.0185,2.0289,2.0444,2.0761,2.0828,2.1055,2.1417,2.1229,2.115,2.1229,2.1493,2.1688,2.1832,2.2175,2.2449,2.2643,2.2822,2.3093,2.3432,2.3821,2.4079,2.4265,2.4405,2.4554,2.4678,2.4809,2.4943,2.5077,2.5235,2.5359,2.5445,2.5454,2.549,2.5542,2.56,2.5607,2.5593,2.5531,2.5564,2.559,2.5604,2.5604,2.559,2.5574,2.5556,2.5517,2.5456,2.5393,2.534,2.5284,2.5262,2.5228,2.5141,2.5137,2.512,2.5044,2.4985,2.4879,2.4798,2.4626,2.4512,2.4444,2.4426,2.4392,2.4338,2.4374,2.4374,2.4409,2.4358,2.4284,2.4191,2.4133,2.4074,2.3976,2.3876,2.3795,2.3771,2.3667,2.358,0.907,0.9361,0.9787,0.0,0.0,0.0,1.4724,1.5529,1.624,1.6937,1.7683,1.8202,1.8202,1.8147,1.808,1.8028,1.7988,1.8068,1.8266,1.8592,1.886,1.9064,1.9302,1.9435,1.9493,1.953,1.9588,1.9788,1.994,2.0025,2.01,2.0308,2.0478,2.0597,2.0745,2.0958,2.1309,2.1355,2.1554,2.1911,2.2124,2.2096,2.1911,2.2039,2.2231,2.2512,2.2721,2.2923,2.3117,2.3392,2.3738,2.4135,2.4247,2.4422,2.4623,2.476,2.4888,2.5019,2.5149,2.5284,2.5404,2.5471,2.5505,2.5506,2.559,2.5607,2.5602,2.5605,2.5602,2.5593,2.5601,2.5595,2.5603,2.5592,2.56,2.5576,2.5503,2.5451,2.5376,2.5303,2.5302,2.528,2.5222,2.5229,2.5175,2.5044,2.5031,2.5004,2.4936,2.4842,2.4738,2.4547,2.4446,2.4394,2.434,2.4247,2.421,2.421,2.4152,2.4133,2.4192,2.419,2.4094,2.3896,2.3896,2.3816,2.3692,2.3628,2.3562,2.3486,2.3435,2.3319,0.954,1.0051,0.0,1.2722,0.0,0.0,0.0,1.6641,0.0,0.0,1.8579,1.8798,1.8721,1.8679,1.8626,1.8461,1.85,1.8616,1.8717,1.8945,1.9184,1.9493,1.9705,1.9848,1.9925,2.001,2.0115,2.022,2.0289,2.0392,2.0509,2.0761,2.0925,2.1038,2.1198,2.1432,2.1721,2.1853,2.2068,2.2409,2.2643,2.2599,2.2313,2.2617,2.2848,2.3069,2.3369,2.3592,2.3762,2.3966,2.421,2.4458,2.4556,2.4693,2.4883,2.4981,2.5099,2.5225,2.5311,2.5403,2.5486,2.5547,2.557,2.5562,2.5584,2.5603,2.5607,2.5609,2.558,2.5517,2.5479,2.5465,2.5471,2.5517,2.548,2.5446,2.544,2.5379,2.5303,2.5241,2.5654,2.5977,2.5907,2.6407,2.6778,2.6643,2.6582,2.6484,2.6332,2.5739,2.5539,2.6004,2.5483,2.5312,2.5803,2.5226,2.4816,2.4816,2.4247,2.3937,2.4037,2.3958,2.3876,2.3774,2.3664,2.3598,2.3553,2.3348,2.3247,2.3199,2.3052,2.2952,0.9912,1.0498,0.0,1.3359,1.4362,1.546,1.7644,0.0,0.0,0.0,1.9236,1.9384,1.9347,1.9369,1.9303,1.9095,1.9184,1.9273,1.9332,1.9515,1.9711,1.994,2.0166,2.0304,2.0392,2.0527,2.0644,2.0711,2.0761,2.0844,2.0958,2.1214,2.1402,2.1509,2.1705,2.1924,2.2215,2.2337,2.2581,2.2867,2.3122,2.32,2.3093,2.3212,2.3392,2.3588,2.3941,2.4155,2.4301,2.4472,2.4632,2.4766,2.485,2.5012,2.5152,2.5192,2.5293,2.5386,2.546,2.5503,2.5558,2.5586,2.5603,2.5603,2.5568,2.557,2.5551,2.5529,2.5478,2.5412,2.5365,2.532,2.5302,2.5404,2.5393,2.5337,2.5322,2.5292,2.5248,2.5172,2.5755,2.6227,2.6176,2.6813,2.7299,2.7203,2.7098,2.7009,2.6878,2.6375,2.6167,2.6604,2.6112,2.5932,2.6344,2.5855,2.5497,2.5452,2.4608,2.4257,2.4581,2.4031,2.379,2.3937,2.3554,2.3436,2.3664,2.3185,2.2944,2.2893,2.2764,2.2659,1.0207,1.0892,1.1893,1.3783,1.4897,0.0,1.8764,1.9435,1.9545,1.9566,0.0,1.9909,2.0025,2.0096,2.0065,1.9874,1.996,2.0025,2.0025,2.02,2.0373,2.0457,2.0626,2.0777,2.0827,2.1023,2.1167,2.123,2.1294,2.1371,2.1448,2.1648,2.184,2.2039,2.2192,2.2429,2.2764,2.2876,2.3084,2.3371,2.3562,2.3795,2.4018,2.3837,2.3878,2.4096,2.4426,2.4626,2.4749,2.4874,2.4975,2.5053,2.5171,2.5293,2.5418,2.5425,2.5459,2.5511,2.5584,2.5592,2.5586,2.5583,2.5588,2.558,2.5513,2.5493,2.5476,2.5412,2.533,2.5284,2.5262,2.5168,2.5107,2.5235,2.5264,2.5273,2.5182,2.5164,2.5163,2.5184,2.5787,2.6284,2.6302,2.6864,2.7286,2.7196,2.7063,2.6984,2.6982,2.6804,2.6698,2.6771,2.6545,2.6367,2.6369,2.6225,2.6117,2.6061,2.5151,2.4885,2.5412,2.4302,2.3875,2.4356,2.3638,2.3476,2.387,2.3143,2.2701,2.2579,2.2515,2.246,1.0682,1.1982,0.0,0.0,1.6368,1.8313,1.9499,2.0142,2.0444,2.0239,2.0273,2.0342,2.0308,2.0339,2.0304,2.022,2.0254,2.0308,2.0392,2.0561,2.0728,2.0778,2.0974,2.1103,2.1183,2.1277,2.1355,2.1448,2.1556,2.1648,2.1691,2.1969,2.2192,2.2395,2.2686,2.296,2.3253,2.3335,2.3518,2.3753,2.3979,2.4117,2.4229,2.4192,2.4338,2.4636,2.4823,2.4942,2.503,2.5099,2.5215,2.5321,2.5361,2.5414,2.5479,2.5539,2.5579,2.5583,2.5586,2.5576,2.5528,2.5527,2.5527,2.5511,2.5432,2.5374,2.5332,2.5262,2.5179,2.5111,2.5006,2.4968,2.4942,2.491,2.4981,2.5069,2.5057,2.4966,2.5059,2.5695,2.639,2.7095,2.7662,2.8389,2.8832,2.8664,2.8574,2.8484,2.8328,2.7711,2.7513,2.8033,2.7396,2.7161,2.7727,2.6952,2.6408,2.639,2.5515,2.5028,2.5108,2.4383,2.4244,2.4837,2.4585,2.4207,2.3732,2.3465,2.3022,2.2432,2.2377,2.2338,1.0908,0.0,0.0,1.5576,0.0,1.9264,1.9989,2.0684,2.1151,2.1007,2.0811,2.0712,2.0744,2.0726,2.0726,2.0744,2.0794,2.0844,2.0909,2.1103,2.123,2.1293,2.1417,2.1556,2.157,2.1705,2.1807,2.182,2.1986,2.2118,2.2231,2.2419,2.2643,2.2883,2.3122,2.3353,2.358,2.3674,2.386,2.4096,2.4266,2.4456,2.464,2.457,2.4663,2.491,2.5068,2.5182,2.5255,2.5307,2.5386,2.5447,2.5471,2.552,2.5554,2.5586,2.5602,2.5603,2.5559,2.5503,2.5451,2.5454,2.5418,2.5393,2.5293,2.5234,2.5171,2.5068,2.5013,2.4934,2.4837,2.476,2.47,2.467,2.4775,2.4907,2.4907,2.4823,2.4979,2.5759,2.6501,2.7252,2.7974,2.8709,2.9138,2.8952,2.8858,2.8761,2.8619,2.8157,2.7947,2.8237,2.7745,2.7508,2.7829,2.7291,2.6899,2.6852,2.6021,2.5661,2.5966,2.5257,2.5033,2.5369,2.4923,2.4488,2.4079,2.368,2.3078,2.2366,2.231,2.231,1.1122,0.0,1.4202,1.6631,1.8294,0.0,2.0007,2.0829,2.1483,2.1483,2.1212,2.1007,2.1119,2.1167,2.1151,2.1247,2.1325,2.1402,2.1479,2.1661,2.1797,2.1797,2.1928,2.2015,2.2044,2.2181,2.2292,2.2347,2.249,2.2659,2.2799,2.2935,2.3133,2.3399,2.3544,2.3717,2.3901,2.404,2.4192,2.4393,2.4556,2.479,2.5077,2.4948,2.4948,2.5088,2.5255,2.5374,2.5444,2.5482,2.552,2.5512,2.5579,2.5586,2.5574,2.5564,2.557,2.5565,2.5495,2.541,2.5371,2.535,2.5293,2.5222,2.5103,2.5049,2.5,2.4869,2.4804,2.4731,2.4676,2.458,2.4478,2.4461,2.4575,2.4716,2.4731,2.4786,2.5061,2.5795,2.6637,2.7428,2.8033,2.8562,2.8858,2.8644,2.8543,2.8466,2.8388,2.8201,2.8045,2.7915,2.7713,2.7552,2.7434,2.7373,2.7279,2.7166,2.6487,2.6373,2.6925,2.6264,2.5924,2.5939,2.5312,2.4808,2.4506,2.3883,2.3139,2.231,2.231,2.231,1.1514,0.0,1.5905,0.0,1.7957,1.8973,0.0,0.0,2.0978,2.0978,2.1157,2.1355,2.1371,2.1371,2.1355,2.1355,2.1587,2.1751,2.184,2.2027,2.2136,2.222,2.2326,2.247,2.2561,2.2632,2.2694,2.2876,2.2902,2.301,2.3206,2.341,2.361,2.3803,2.4001,2.4173,2.4319,2.4388,2.4538,2.4746,2.4987,2.5184,2.5348,2.5333,2.5333,2.5354,2.5441,2.5507,2.5578,2.5586,2.5583,2.5585,2.5609,2.5561,2.5517,2.5444,2.5437,2.5426,2.536,2.5293,2.5212,2.516,2.508,2.5032,2.4942,2.4842,2.4741,2.4651,2.4591,2.4528,2.4464,2.443,2.4375,2.4266,2.4266,2.4321,2.4429,2.4949,2.5615,2.6346,2.7596,2.8565,2.8585,2.8639,2.8587,2.838,2.821,2.8027,2.7829,2.773,2.7642,2.7478,2.7355,2.7244,2.7166,2.7023,2.6959,2.6942,2.6723,2.6656,2.6725,2.664,2.6572,2.6572,2.6488,2.581,2.4506,2.4421,2.3646,2.231,2.231,2.231,1.2166,1.3766,1.536,0.0,1.7944,1.8676,1.9097,1.9932,2.0619,2.0619,2.1094,2.1547,2.1711,2.1735,2.1764,2.1836,2.2056,2.2215,2.2326,2.2554,2.2712,2.2738,2.2876,2.2977,2.3084,2.314,2.3218,2.3376,2.3468,2.358,2.3741,2.3885,2.4004,2.4174,2.4372,2.4526,2.462,2.4731,2.4883,2.5077,2.5243,2.5354,2.5465,2.5496,2.5496,2.5457,2.5535,2.5568,2.5602,2.5562,2.5542,2.5535,2.5503,2.5441,2.5379,2.536,2.5293,2.5215,2.5149,2.508,2.5006,2.491,2.4861,2.4808,2.47,2.4639,2.4575,2.4513,2.4409,2.4321,2.4303,2.4209,2.4096,2.4057,2.4344,2.4652,2.4691,2.5027,2.567,2.6818,2.7907,2.8612,2.8492,2.8344,2.821,2.7989,2.7818,2.7672,2.7539,2.74,2.7276,2.7201,2.7087,2.699,2.6891,2.6792,2.6725,2.6725,2.664,2.6589,2.6589,2.6589,2.6589,2.6589,2.6674,2.5964,2.4506,2.4506,2.3731,2.231,2.231,2.231,0.0,0.0,1.467,1.6381,1.7521,1.8392,0.0,0.0,2.0311,2.0333,2.0945,2.1544,2.1764,2.2031,2.2275,2.2368,2.2563,2.2756,2.2876,2.3077,2.323,2.3277,2.3389,2.3504,2.3558,2.3631,2.372,2.3862,2.3981,2.4098,2.4247,2.4317,2.4402,2.4548,2.4697,2.4837,2.4902,2.5019,2.5192,2.5343,2.5422,2.5485,2.5534,2.5582,2.5565,2.5499,2.5566,2.5581,2.5566,2.5496,2.5463,2.5447,2.5348,2.5292,2.5245,2.5201,2.5115,2.5012,2.4955,2.4874,2.4804,2.47,2.4642,2.4613,2.4495,2.4462,2.441,2.4339,2.4229,2.4115,2.4113,2.3958,2.3891,2.4088,2.453,2.5,2.5396,2.5574,2.6059,2.7331,2.8,2.8291,2.8174,2.8017,2.7829,2.7612,2.7448,2.7341,2.7279,2.7103,2.6973,2.6942,2.6842,2.6775,2.664,2.6555,2.6503,2.6503,2.6434,2.6399,2.6399,2.6399,2.6399,2.6399,2.6504,2.5966,2.4732,2.4563,2.3802,2.2552,2.2367,2.2355,0.0,1.2949,0.0,1.4659,1.6353,1.8012,0.0,0.0,2.0119,2.0119,2.0655,2.1151,2.1247,2.2117,2.2873,2.2873,2.3098,2.3277,2.3348,2.3491,2.3628,2.3753,2.3834,2.3919,2.4058,2.408,2.4155,2.4355,2.4369,2.4452,2.4663,2.4741,2.4828,2.4949,2.5025,2.5106,2.5176,2.5313,2.543,2.5496,2.557,2.5593,2.5586,2.5603,2.5563,2.5508,2.5566,2.5559,2.5507,2.5427,2.5371,2.5302,2.5175,2.5111,2.5103,2.4981,2.4883,2.4809,2.4749,2.4676,2.4596,2.4528,2.4462,2.4412,2.4412,2.4321,2.4209,2.4133,2.4016,2.3896,2.3837,2.3774,2.3891,2.4577,2.47,2.5082,2.6702,2.701,2.713,2.7895,2.7982,2.7897,2.7742,2.7659,2.7539,2.7276,2.712,2.7007,2.6926,2.6825,2.6725,2.6742,2.6657,2.6555,2.6418,2.6349,2.6295,2.6241,2.6206,2.6206,2.6206,2.6206,2.6206,2.6206,2.6241,2.5963,2.5461,2.4738,2.3998,2.3224,2.2534,2.2497,0.0,0.0,0.0,1.4452,1.5386,1.6358,1.7932,1.8655,1.916,1.9722,2.0452,2.0976,2.0991,2.1858,2.2598,2.269,2.3228,2.3674,2.3819,2.3963,2.408,2.4155,2.4246,2.4334,2.447,2.4516,2.461,2.4718,2.4757,2.4853,2.5005,2.5041,2.5099,2.5196,2.5264,2.5313,2.5388,2.5473,2.5546,2.5554,2.5584,2.5579,2.5522,2.5486,2.5441,2.5368,2.5305,2.5313,2.5368,2.5245,2.5173,2.5096,2.4949,2.4877,2.4832,2.4746,2.467,2.4588,2.4543,2.4461,2.4411,2.4339,2.4266,2.419,2.4114,2.4016,2.3917,2.3858,2.3771,2.3685,2.362,2.3531,2.3732,2.4845,2.5456,2.6036,2.7098,2.7412,2.7558,2.7742,2.7659,2.7522,2.74,2.7213,2.7053,2.6891,2.6759,2.6691,2.6657,2.6606,2.6555,2.6469,2.6435,2.6347,2.6154,2.6082,2.599,2.5901,2.5885,2.5864,2.5828,2.5864,2.5828,2.568,2.5754,2.5612,2.5196,2.493,2.4397,2.3682,2.337,2.3323,1.0858,0.0,0.0,0.0,1.4565,1.5411,1.7348,1.7946,1.8359,1.9241,1.9832,2.025,2.058,2.1373,2.208,2.2373,2.3125,2.3713,2.3857,2.4236,2.4535,2.4591,2.4651,2.4743,2.4858,2.4943,2.4993,2.5015,2.5091,2.5186,2.5293,2.5293,2.5327,2.5406,2.5441,2.5486,2.5529,2.5577,2.5597,2.5605,2.5583,2.5531,2.5453,2.5359,2.5273,2.5194,2.5065,2.5077,2.5194,2.5061,2.4968,2.4888,2.4756,2.4666,2.461,2.4561,2.4478,2.4392,2.432,2.4248,2.4153,2.4056,2.3996,2.3937,2.3816,2.3732,2.3667,2.3562,2.3468,2.3412,2.3365,2.3636,2.4155,2.501,2.5964,2.6775,2.7144,2.7417,2.7582,2.7448,2.731,2.7184,2.7053,2.6875,2.6691,2.659,2.6486,2.6434,2.6399,2.6364,2.6293,2.6189,2.6118,2.601,2.5828,2.5696,2.5567,2.5476,2.5476,2.5454,2.5378,2.5454,2.5362,2.5208,2.5301,2.5158,2.4859,2.4882,2.459,2.4097,2.3783,2.3697,0.0,0.0,0.0,0.0,0.0,0.0,1.6154,1.6943,1.7742,1.867,1.8778,1.8982,1.9892,2.068,2.1369,2.1948,2.2792,2.3376,2.3385,2.4217,2.486,2.4972,2.5027,2.5111,2.5196,2.5264,2.5322,2.5309,2.5374,2.5434,2.5499,2.5506,2.5523,2.5609,2.5606,2.5607,2.5598,2.5605,2.5597,2.5587,2.5517,2.5453,2.5393,2.5244,2.5115,2.4981,2.4847,2.4861,2.4968,2.4847,2.4764,2.4692,2.4545,2.4495,2.4478,2.4411,2.4284,2.4173,2.4095,2.3996,2.3876,2.3753,2.3692,2.3671,2.3522,2.3491,2.344,2.3253,2.3151,2.3052,2.302,2.4094,2.5131,2.5034,2.6113,2.7135,2.6926,2.7023,2.7149,2.7103,2.6975,2.6842,2.6708,2.6623,2.6537,2.633,2.6279,2.626,2.6206,2.6063,2.5974,2.5974,2.5717,2.553,2.5378,2.5185,2.5068,2.4966,2.4966,2.5005,2.4966,2.4966,2.491,2.4775,2.4775,2.4695,2.4589,2.4612,2.4583,2.4475,2.3697,2.3499,1.0209,0.0,0.0,0.0,0.0,0.0,1.5268,1.6249,1.7083,1.7936,1.8579,1.907,1.9333,2.0063,2.0682,2.0834,2.1924,2.2787,2.2874,2.3129,2.3573,2.4264,2.4405,2.4698,2.5356,2.5425,2.5446,2.5441,2.5506,2.5556,2.5561,2.5567,2.5572,2.5599,2.5605,2.56,2.5609,2.5558,2.5507,2.5445,2.5337,2.5207,2.5111,2.4975,2.4828,2.4697,2.4572,2.4491,2.4493,2.4559,2.4543,2.4476,2.4338,2.4284,2.4266,2.4095,2.4018,2.3978,2.3837,2.375,2.3682,2.3576,2.3463,2.3324,2.323,2.3133,2.3052,2.2952,2.285,2.279,2.2738,2.3777,2.4807,2.4662,2.5724,2.6691,2.6521,2.6469,2.6538,2.6691,2.6589,2.6486,2.6537,2.6347,2.617,2.6082,2.5937,2.5754,2.5642,2.5513,2.5384,2.5214,2.5153,2.5013,2.4766,2.4751,2.467,2.4508,2.4726,2.4742,2.4508,2.463,2.4589,2.4313,2.4385,2.4369,2.4245,2.4467,2.4587,2.4587,2.4304,2.4162,0.0,0.0,0.0,0.0,0.0,0.0,1.4411,1.5199,1.5784,1.6622,1.7474,1.817,1.854,1.9,1.949,1.9831,2.0584,2.1396,2.2161,2.2605,2.3025,2.3579,2.3708,2.4077,2.4968,2.5046,2.5195,2.5559,2.5586,2.5609,2.5598,2.5605,2.5598,2.5592,2.5574,2.5537,2.5522,2.5441,2.5379,2.5311,2.5171,2.5061,2.4904,2.4756,2.4588,2.4478,2.432,2.4229,2.4135,2.4173,2.4192,2.4229,2.4135,2.4037,2.3976,2.3876,2.3774,2.3707,2.358,2.3486,2.3365,2.3247,2.3126,2.302,2.2919,2.2842,2.2764,2.2659,2.2605,2.2569,2.2487,2.3329,2.4177,2.4332,2.5211,2.6049,2.6158,2.6118,2.6134,2.6399,2.6277,2.617,2.6222,2.6026,2.5828,2.5754,2.5605,2.5416,2.5208,2.5052,2.4895,2.4735,2.4639,2.4517,2.4343,2.4343,2.4302,2.4193,2.4359,2.4359,2.4193,2.4317,2.4219,2.3994,2.4051,2.4051,2.3894,2.4287,2.4467,2.4369,2.4276,2.4193,0.0,0.0,0.0,0.0,1.2798,0.0,1.3591,1.4072,1.4412,1.5098,1.5957,1.6835,1.7614,1.7825,1.8154,1.8924,1.906,1.9633,2.1333,2.2226,2.276,2.2853,2.2916,2.331,2.4179,2.4339,2.4713,2.5484,2.5585,2.5602,2.5598,2.558,2.5598,2.5595,2.5511,2.5472,2.5383,2.532,2.5244,2.516,2.5031,2.4888,2.4746,2.4556,2.4372,2.4229,2.4113,2.3976,2.3834,2.371,2.3774,2.3976,2.3876,2.3774,2.3649,2.3628,2.3558,2.3435,2.3277,2.3175,2.3003,2.2842,2.2764,2.2738,2.2605,2.2579,2.2542,2.2405,2.2349,2.2321,2.2265,2.2794,2.3489,2.4026,2.4647,2.5294,2.5826,2.5881,2.5844,2.601,2.5954,2.5844,2.5844,2.5696,2.5492,2.5378,2.5278,2.5123,2.4879,2.4655,2.4508,2.4441,2.4219,2.4078,2.4036,2.4009,2.3982,2.3982,2.3982,2.3982,2.3982,2.3982,2.3925,2.3782,2.3782,2.3739,2.3595,2.4036,2.4162,2.4021,2.3867,2.3782,1.2454,0.0,0.0,0.0,1.3109,0.0,1.2986,1.3976,1.4843,1.437,1.5474,1.6586,1.6809,1.7423,1.7955,1.8131,1.815,1.8766,2.05,2.0889,2.1243,2.1947,2.2047,2.24,2.328,2.3945,2.4391,2.4564,2.5208,2.5585,2.5525,2.5518,2.5518,2.5511,2.5445,2.5387,2.5322,2.5201,2.5082,2.4966,2.4775,2.4626,2.4481,2.4266,2.4079,2.3878,2.381,2.3678,2.3499,2.3458,2.3576,2.3753,2.362,2.3531,2.344,2.3277,2.3175,2.3077,2.2952,2.2868,2.2764,2.2659,2.2569,2.2487,2.2432,2.2405,2.2338,2.2254,2.2106,2.1986,2.1986,2.2495,2.3136,2.3753,2.4362,2.4925,2.5422,2.5378,2.5262,2.524,2.5394,2.553,2.5642,2.5416,2.5185,2.5185,2.4886,2.4605,2.4426,2.4219,2.4067,2.3967,2.3882,2.3824,2.3724,2.3782,2.3797,2.3696,2.3882,2.3882,2.3696,2.3782,2.3782,2.3653,2.3653,2.3638,2.3595,2.3681,2.3724,2.3681,2.3653,2.3653,1.3481,1.3057,1.2602,1.3489,1.3391,0.0,0.0,1.3489,1.4162,1.3364,1.4559,1.5766,1.5807,1.6183,1.6646,1.7077,1.7159,1.761,1.8921,1.955,2.0163,2.1001,2.1093,2.1445,2.2328,2.2769,2.3174,2.356,2.4374,2.4826,2.4759,2.5161,2.5376,2.5351,2.5283,2.522,2.5145,2.5019,2.487,2.47,2.4561,2.441,2.4247,2.4057,2.3837,2.3642,2.3504,2.336,2.3193,2.3144,2.3157,2.3259,2.3277,2.3223,2.3102,2.2977,2.2893,2.279,2.2685,2.2623,2.2542,2.246,2.2405,2.2338,2.231,2.2209,2.2077,2.202,2.1886,2.1768,2.1631,2.2159,2.285,2.3354,2.4016,2.4636,2.5141,2.5091,2.4895,2.4831,2.4831,2.4895,2.5052,2.495,2.4791,2.471,2.4467,2.4261,2.4135,2.4009,2.3839,2.3696,2.3696,2.3653,2.3595,2.3653,2.3653,2.3595,2.3739,2.3739,2.3595,2.3653,2.3653,2.3595,2.3595,2.3595,2.3595,2.3595,2.3595,2.3595,2.3595,2.3595,1.47,1.3941,1.3109,1.4644,1.3884,1.2665,0.0,0.0,0.0,1.2546,1.3738,1.4939,1.4935,1.4997,1.528,1.599,1.6118,1.64,1.7266,1.8081,1.8923,1.9787,1.9879,2.0212,2.1082,2.1462,2.2004,2.2791,2.3605,2.403,2.3976,2.4782,2.522,2.5153,2.5113,2.5019,2.4934,2.4817,2.4626,2.4439,2.4357,2.4209,2.3994,2.3813,2.362,2.3371,2.3223,2.307,2.2902,2.279,2.2738,2.2712,2.2944,2.2893,2.2738,2.2712,2.2632,2.2542,2.2443,2.2377,2.2366,2.2237,2.2209,2.218,2.214,2.1961,2.1811,2.1721,2.1617,2.1464,2.1246,2.1779,2.2489,2.2955,2.3658,2.4324,2.487,2.4815,2.4614,2.4508,2.4343,2.4302,2.4508,2.4482,2.44,2.4261,2.412,2.4036,2.3967,2.3839,2.3739,2.3595,2.3595,2.3595,2.3595,2.3595,2.3595,2.3595,2.3595,2.3595,2.3595,2.3595,2.3595,2.3595,2.3595,2.3595,2.3595,2.3595,2.3595,2.3595,2.3595,2.3595,1.5655,1.504,1.4526,1.5324,1.4917,1.3955,1.2475,0.0,1.4044,1.2472,0.0,1.4729,1.4719,0.0,0.0,1.5033,1.5079,1.5352,1.6165,1.639,1.6842,1.7883,1.7947,1.828,1.9213,2.0658,2.1867,2.266,2.3467,2.3894,2.382,2.4593,2.5032,2.5019,2.4953,2.4851,2.4746,2.4591,2.4444,2.4229,2.4057,2.3855,2.3638,2.3522,2.3295,2.3052,2.297,2.2816,2.2632,2.2552,2.246,2.2394,2.2579,2.2623,2.2515,2.2405,2.2338,2.2293,2.213,2.2118,2.2197,2.2003,2.1899,2.1827,2.1784,2.1617,2.1448,2.1371,2.1151,2.0893,2.086,2.1316,2.1941,2.2582,2.3252,2.3826,2.4424,2.4343,2.4162,2.4094,2.4067,2.4109,2.4302,2.4219,2.412,2.412,2.3952,2.3824,2.3839,2.3696,2.3595,2.3595,2.3595,2.3595,2.3595,2.3595,2.3595,2.3595,2.3595,2.3595,2.3595,2.3595,2.3595,2.3595,2.3595,2.3595,2.3595,2.3595,2.3595,2.3595,2.3595,2.3595,1.6278,1.5713,1.5196,1.5473,1.4654,1.3593,1.2847,1.3245,1.3589,1.2824,0.0,0.0,0.0,0.0,0.0,0.0,1.3951,1.3943,1.3803,1.3775,1.4719,1.7229,1.7494,1.7644,1.8086,1.8775,1.9313,1.9668,2.0849,2.1555,2.1486,2.3169,2.411,2.4068,2.446,2.4626,2.453,2.4355,2.4173,2.3959,2.3813,2.3594,2.3365,2.3241,2.3028,2.2816,2.2659,2.248,2.2281,2.2186,2.2089,2.202,2.2061,2.2118,2.2147,2.2032,2.202,2.1991,2.1899,2.1886,2.1873,2.1721,2.1601,2.1495,2.1464,2.1277,2.1039,2.0926,2.0745,2.0639,2.0907,2.1492,2.2189,2.2802,2.3498,2.4029,2.4241,2.4135,2.4009,2.3882,2.3839,2.3782,2.3867,2.3909,2.3909,2.3809,2.3739,2.3696,2.3696,2.3638,2.3595,2.3595,2.3595,2.3595,2.3595,2.3595,2.3595,2.3595,2.3595,2.3595,2.3595,2.3595,2.3595,2.3595,2.3595,2.3595,2.3595,2.3595,2.3595,2.3595,2.3595,2.3595,1.6833,1.6273,1.571,1.5699,1.4702,1.3624,1.3118,1.3233,1.3341,1.3052,1.3653,0.0,0.0,0.0,0.0,0.0,0.0,1.2986,1.2401,1.2146,1.3001,1.5631,1.6366,1.6678,1.6734,1.7151,1.7425,1.7416,1.8914,1.98,1.9757,2.2079,2.3397,2.3353,2.4052,2.4393,2.4321,2.4115,2.3919,2.3728,2.3531,2.3319,2.3095,2.2944,2.279,2.2579,2.2388,2.2186,2.1982,2.1823,2.1721,2.1648,2.1526,2.154,2.1645,2.1661,2.1691,2.1691,2.1615,2.1509,2.1433,2.1339,2.1182,2.1087,2.1055,2.086,2.0628,2.0496,2.0481,2.0588,2.095,2.1713,2.2531,2.2924,2.359,2.4135,2.4036,2.3952,2.3839,2.3739,2.3653,2.3595,2.3595,2.3696,2.3696,2.3595,2.3595,2.3595,2.3595,2.3595,2.3595,2.3595,2.3595,2.3595,2.3595,2.3595,2.3595,2.3595,2.3595,2.3595,2.3595,2.3595,2.3595,2.3595,2.3595,2.3595,2.3595,2.3595,2.3595,2.3595,2.3595,2.3595,1.7311,1.6782,1.6252,1.6201,1.565,1.4722,1.317,1.3413,1.3718,1.29,1.3404,1.4012,1.4005,0.0,0.0,0.0,0.0,0.0,0.0,1.2251,1.1923,1.2225,1.3755,1.4783,1.4784,1.6263,1.7221,1.7221,1.8709,1.9604,1.9604,2.19,2.3223,2.3223,2.386,2.4191,2.4113,2.3917,2.371,2.3504,2.3247,2.302,2.2816,2.2659,2.2515,2.231,2.2186,2.1998,2.1781,2.1509,2.1402,2.1277,2.1039,2.0926,2.0958,2.1214,2.1386,2.1446,2.1134,2.0926,2.0827,2.0827,2.0695,2.0527,2.0444,2.0392,2.0304,2.0135,2.043,2.0798,2.0828,2.1792,2.2772,2.2802,2.3314,2.3824,2.3797,2.3696,2.3595,2.3595,2.3595,2.3595,2.3595,2.3595,2.3595,2.3595,2.3595,2.3595,2.3595,2.3595,2.3595,2.3595,2.3595,2.3595,2.3595,2.3595,2.3595,2.3595,2.3595,2.3595,2.3595,2.3595,2.3595,2.3595,2.3595,2.3595,2.3595,2.3595,2.3595,2.3595,2.3595,2.3595,1.7792,1.7275,1.674,1.6685,1.5436,1.4191,1.4146,1.3584,1.3278,1.3951,1.4319,1.4528,1.4541,0.0,0.0,0.0,0.0,0.0,0.0,1.0446,1.0041,1.0178,1.1767,1.2849,1.2909,1.3947,1.4616,1.4616,1.6144,1.7293,1.7794,1.9608,2.1103,2.2098,2.2887,2.345,2.3837,2.3728,2.3508,2.3223,2.3003,2.279,2.2596,2.246,2.2276,2.2073,2.1899,2.1708,2.1464,2.1198,2.1039,2.0958,2.0679,2.0613,2.0646,2.0843,2.0941,2.0958,2.0697,2.0563,2.0527,2.0494,2.0357,2.0254,2.0204,2.008,2.0031,2.0434,2.0662,2.094,2.1824,2.2404,2.284,2.3218,2.3488,2.3653,2.3653,2.3638,2.3595,2.3595,2.3595,2.3595,2.3595,2.3595,2.3595,2.3595,2.3595,2.3595,2.3595,2.3595,2.3595,2.3595,2.3595,2.3595,2.3595,2.3595,2.3595,2.3595,2.3595,2.3595,2.3595,2.3595,2.3595,2.3595,2.3595,2.3595,2.3595,2.3595,2.3595,2.3595,2.3595,2.3595,1.7827,1.7509,1.713,1.6757,1.5641,1.464,1.457,1.4008,1.3718,1.4435,1.4792,1.4877,1.4641,0.0,0.0,0.0,0.0,0.0,0.0,0.9309,0.9157,0.9518,1.0635,1.1394,1.1455,1.2498,1.3198,1.3238,1.4751,1.6021,1.6789,1.8359,1.9948,2.1498,2.2316,2.3037,2.3689,2.3549,2.3295,2.2995,2.2764,2.2552,2.2315,2.2192,2.202,2.184,2.1617,2.1388,2.1119,2.0844,2.0646,2.0527,2.0308,2.0289,2.0323,2.0441,2.0475,2.0441,2.0308,2.0239,2.017,2.0131,2.0045,1.9975,1.9975,1.9869,1.9897,2.0572,2.091,2.1321,2.2398,2.2847,2.3101,2.3505,2.3595,2.3595,2.3595,2.3595,2.3595,2.3595,2.3595,2.3595,2.3595,2.3595,2.3595,2.3595,2.3595,2.3595,2.3595,2.3595,2.3595,2.3595,2.3595,2.3595,2.3595,2.3595,2.3595,2.3595,2.3595,2.3595,2.3595,2.3595,2.3595,2.3595,2.3595,2.3595,2.3595,2.3595,2.3595,2.3595,2.3595,2.3595]},{"header":{"parameterUnit":"m.s-1","parameterCategory":1,"la1":30.6,"la2":29.2853,"lo1":-89.7004,"lo2":-87.6739,"dy":0.0162,"dx":0.0183,"nx":112,"ny":82,"refTime":"2024-10-09T12:00:00:Z","depth":0,"parameterNumber":3,"parameterNumberName":"V-component_of_WINDS"},"data":[0.0,0.0,0.0,0.0,0.0,0.0,0.0,0.0,0.0,0.0,0.0,0.0,0.0,0.0,0.0,0.0,0.0,0.0,0.0,0.0,0.0,0.0,0.0,0.0,0.0,0.0,0.0,0.0,0.0,0.0,0.0,0.0,0.0,0.0,0.0,0.0,0.0,0.0,0.0,0.0,0.0,0.0,0.0,0.0,0.0,0.0,0.0,0.0,0.0,0.0,0.0,0.0,0.0,0.0,0.0,0.0,0.0,0.0,0.0,0.0,0.0,0.0,0.0,0.0,0.0,0.0,0.0,0.0,0.0,0.0,0.0,0.0,0.0,0.0,0.0,0.0,0.0,0.0,0.0,0.0,0.0,0.0,0.0,0.0,0.0,0.0,0.0,0.0,0.0,0.0,-0.6087,-0.6686,-0.7313,-0.7608,-0.7451,-0.6593,-0.5942,-0.5642,0.0,0.0,0.0,0.0,0.0,0.0,0.0,0.0,0.0,0.0,0.0,0.0,0.0,0.0,0.0,0.0,0.0,0.0,0.0,0.0,0.0,0.0,0.0,0.0,0.0,0.0,0.0,0.0,0.0,0.0,0.0,0.0,0.0,0.0,0.0,0.0,0.0,0.0,0.0,0.0,0.0,0.0,0.0,0.0,0.0,0.0,0.0,0.0,0.0,0.0,0.0,0.0,0.0,0.0,0.0,0.0,0.0,0.0,0.0,0.0,0.0,0.0,0.0,0.0,0.0,0.0,0.0,0.0,0.0,0.0,0.0,0.0,0.0,0.0,0.0,0.0,0.0,0.0,0.0,0.0,0.0,0.0,0.0,0.0,0.0,0.0,0.0,0.0,0.0,0.0,0.0,0.0,0.0,0.0,0.0,0.0,0.0,0.0,0.0,0.0,0.0,0.0,0.0,0.0,-0.653,-0.7366,-0.7492,-0.7421,-0.7107,-0.6682,-0.61,-0.5326,0.0,0.0,0.0,0.0,0.0,0.0,0.0,0.0,0.0,0.0,0.0,0.0,0.0,0.0,0.0,0.0,0.0,0.0,0.0,0.0,0.0,0.0,0.0,0.0,0.0,0.0,0.0,0.0,0.0,0.0,0.0,0.0,0.0,0.0,0.0,0.0,0.0,0.0,0.0,0.0,0.0,0.0,0.0,0.0,0.0,0.0,0.0,0.0,0.0,0.0,0.0,0.0,0.0,0.0,0.0,0.0,0.0,0.0,0.0,0.0,0.0,0.0,0.0,0.0,0.0,0.0,0.0,0.0,0.0,0.0,0.0,0.0,0.0,0.0,0.0,0.0,0.0,0.0,0.0,0.0,0.0,0.0,0.0,0.0,0.0,0.0,0.0,0.0,0.0,0.0,0.0,0.0,0.0,0.0,0.0,0.0,0.0,0.0,0.0,0.0,0.0,0.0,0.0,-0.589,-0.644,-0.724,-0.7264,-0.7145,-0.6915,-0.6244,-0.5596,-0.5018,-0.414,0.0,0.0,0.0,0.0,0.0,0.0,0.0,0.0,0.0,0.0,0.0,0.0,0.0,0.0,0.0,0.0,0.0,0.0,0.0,0.0,0.0,0.0,0.0,0.0,0.0,0.0,0.0,0.0,0.0,0.0,0.0,0.0,0.0,0.0,0.0,0.0,0.0,0.0,0.0,0.0,0.0,0.0,0.0,0.0,0.0,0.0,0.0,0.0,0.0,0.0,0.0,0.0,0.0,0.0,0.0,0.0,0.0,0.0,0.0,0.0,0.0,0.0,0.0,0.0,0.0,0.0,0.0,0.0,0.0,0.0,0.0,0.0,0.0,0.0,0.0,0.0,0.0,0.0,0.0,0.0,0.0,0.0,0.0,0.0,0.0,0.0,0.0,0.0,0.0,0.0,0.0,0.0,0.0,0.0,0.0,0.0,0.0,0.0,0.0,0.0,0.0,0.0,-0.5875,-0.6206,-0.6955,-0.6936,-0.6811,-0.6593,-0.5767,-0.5093,-0.4628,-0.3645,0.0,0.0,0.0,0.0,0.0,0.0,0.0,0.0,0.0,0.0,0.0,0.0,0.0,0.0,0.0,0.0,0.0,0.0,0.0,0.0,0.0,0.0,0.0,0.0,0.0,0.0,0.0,0.0,0.0,0.0,0.0,0.0,0.0,0.0,0.0,0.0,0.0,0.0,0.0,0.0,0.0,0.0,0.0,0.0,0.0,0.0,0.0,0.0,0.0,0.0,0.0,0.0,0.0,0.0,0.0,0.0,0.0,0.0,0.0,0.0,0.0,0.0,0.0,0.0,0.0,0.0,0.0,0.0,0.0,0.0,0.0,0.0,0.0,0.0,0.0,0.0,0.0,0.0,0.0,0.0,0.0,0.0,0.0,0.0,0.0,0.0,0.0,0.0,0.0,0.0,0.0,0.0,0.0,0.0,0.0,0.0,0.0,0.0,0.0,0.0,0.0,0.0,-0.5617,-0.5933,-0.6734,-0.6651,-0.6359,-0.5908,-0.5453,-0.4889,-0.4107,-0.3402,0.0,0.0,0.0,0.0,0.0,0.0,0.0,0.0,0.0,0.0,0.0,0.0,0.0,0.0,0.0,0.0,0.0,0.0,0.0,0.0,0.0,0.0,0.0,0.0,0.0,0.0,0.0,0.0,0.0,0.0,0.0,0.0,0.0,0.0,0.0,0.0,0.0,0.0,0.0,0.0,0.0,0.0,0.0,0.0,0.0,0.0,0.0,0.0,0.0,0.0,0.0,0.0,0.0,0.0,0.0,0.0,0.0,0.0,0.0,0.0,0.0,0.0,0.0,0.0,0.0,0.0,0.0,0.0,0.0,0.0,0.0,0.0,0.0,0.0,0.0,0.0,0.0,0.0,0.0,0.0,0.0,0.0,0.0,0.0,0.0,0.0,0.0,0.0,0.0,0.0,0.0,0.0,0.0,0.0,0.0,0.0,0.0,0.0,0.0,0.0,0.0,0.0,-0.5219,-0.5489,-0.6235,-0.6153,-0.5922,-0.552,-0.4996,-0.4415,-0.3742,0.0,0.0,0.0,0.0,0.0,0.0,0.0,0.0,0.0,0.0,0.0,0.0,0.0,0.0,0.0,0.0,0.0,0.0,0.0,0.0,0.0,0.0,0.0,0.0,0.0,0.0,0.0,0.0,0.0,0.0,0.0,0.0,0.0,0.0,0.0,0.0,0.0,0.0,0.0,0.0,0.0,0.0,0.0,0.0,0.0,0.0,0.0,0.0,0.0,0.0,0.0,0.0,0.0,0.0,0.0,0.0,0.0,0.0,0.0,0.0,0.0,0.0,0.0,0.0,0.0,0.0,0.0,0.0,0.0,0.0,0.0,0.0,0.0,0.0,0.0,0.0,0.0,0.0,0.0,0.0,0.0,0.0,0.0,0.0,0.0,0.0,0.0,0.0,0.0,0.0,0.0,0.0,0.0,0.0,0.0,0.0,0.0,0.0,0.0,0.0,0.0,0.0,-0.4726,-0.4807,-0.5056,-0.5707,-0.5655,-0.5362,-0.4942,-0.4448,-0.3872,-0.3249,0.0,0.0,0.0,0.0,0.0,0.0,0.0,0.0,0.0,0.0,0.0,0.0,0.0,0.0,0.0,0.0,0.0,0.0,0.0,0.0,0.0,0.0,0.0,0.0,0.0,0.0,0.0,0.0,0.0,0.0,0.0,0.0,0.0,0.0,0.0,0.0,0.0,0.0,0.0,0.0,0.0,0.0,0.0,0.0,0.0,0.0,0.0,0.0,0.0,0.0,0.0,0.0,0.0,0.0,0.0,0.0,0.0,0.0,0.0,0.0,0.0,0.0,0.0,0.0,0.0,0.0,0.0,0.0,0.0,0.0,0.0,0.0,0.0,0.0,0.0,0.0,0.0,0.0,0.0,0.0,0.0,0.0,0.0,0.0,0.0,0.0,0.0,0.0,0.0,0.0,0.0,0.0,0.0,0.0,0.0,0.0,0.0,0.0,0.0,0.0,0.0,0.0,-0.4329,-0.4402,-0.4629,-0.5217,-0.5119,-0.4758,-0.4129,-0.3794,-0.3307,0.0,0.0,0.0,0.0,0.0,0.0,0.0,0.0,0.0,0.0,0.0,0.0,0.0,0.0,0.0,0.0,0.0,0.0,0.0,0.0,0.0,0.0,0.0,0.0,0.0,0.0,0.0,0.0,0.0,0.0,0.0,0.0,0.0,0.0,0.0,0.0,0.0,0.0,0.0,0.0,0.0,0.0,0.0,0.0,0.0,0.0,0.0,0.0,0.0,0.0,0.0,0.0,0.0,0.0,0.0,0.0,0.0,0.0,0.0,0.0,0.0,0.0,0.0,0.0,0.0,0.0,0.0,0.0,0.0,0.0,0.0,0.0,0.0,0.0,0.0,0.0,0.0,0.0,0.0,0.0,0.0,0.0,0.0,0.0,0.0,0.0,0.0,0.0,0.0,0.0,0.0,0.0,0.0,0.0,0.0,0.0,0.0,0.0,0.0,0.0,0.0,0.0,0.0,-0.3794,-0.3799,-0.3968,-0.4474,-0.4436,-0.4171,-0.3656,-0.338,-0.293,-0.2223,0.0,0.0,0.0,0.0,0.0,0.0,0.0,0.0,0.0,0.0,0.0,0.0,0.0,0.0,0.0,0.0,0.0,0.0,0.0,0.0,0.0,0.0,0.0,0.0,0.0,0.0,0.0,0.0,0.0,0.0,0.0,0.0,0.0,0.0,0.0,0.0,0.0,0.0,0.0,0.0,0.0,0.0,0.0,0.0,0.0,0.0,0.0,0.0,0.0,0.0,0.0,0.0,0.0,0.0,0.0,0.0,0.0,0.0,0.0,0.0,0.0,0.0,0.0,0.0,0.0,0.0,0.0,0.0,0.0,0.0,0.0,0.0,0.0,0.0,0.0,0.0,0.0,0.0,0.0,0.0,0.0,0.0,0.0,0.0,0.0,0.0,0.0,0.0,0.0,0.0,0.0,0.0,0.0,0.0,0.0,0.0,0.0,0.0,0.0,0.0,0.0,0.0,-0.3345,-0.3375,-0.3516,-0.3938,-0.3918,-0.368,-0.3289,-0.299,-0.2576,-0.1959,0.0,0.0,0.0,0.0,0.0,0.0,0.0,0.0,0.0,0.0,0.0,0.0,0.0,0.0,0.0,0.0,0.0,0.0,0.0,0.0,0.0,0.0,0.0,0.0,0.0,0.0,0.0,0.0,0.0,0.0,0.0,0.0,0.0,0.0,0.0,0.0,0.0,0.0,0.0,0.0,0.0,0.0,0.0,0.0,0.0,0.0,0.0,0.0,0.0,0.0,0.0,0.0,0.0,0.0,0.0,0.0,0.0,0.0,0.0,0.0,0.0,0.0,0.0,0.0,0.0,0.0,0.0,0.0,0.0,0.0,0.0,0.0,0.0,0.0,0.0,0.0,0.0,0.0,0.0,0.0,0.0,0.0,0.0,0.0,0.0,0.0,0.0,0.0,0.0,0.0,0.0,0.0,0.0,0.0,0.0,0.0,0.0,0.0,0.0,0.0,0.0,0.0,-0.3035,-0.3059,-0.3217,-0.3593,-0.3532,-0.3319,-0.2982,-0.2599,-0.2191,-0.179,0.0,0.0,0.0,0.0,0.0,0.0,0.0,0.0,0.0,0.0,0.0,0.0,0.0,0.0,0.0,0.0,0.0,0.0,0.0,0.0,0.0,0.0,0.0,0.0,0.0,0.0,0.0,0.0,0.0,0.0,0.0,0.0,0.0,0.0,0.0,0.0,0.0,0.0,0.0,0.0,0.0,0.0,0.0,0.0,0.0,0.0,0.0,0.0,0.0,0.0,0.0,0.0,0.0,0.0,0.0,0.0,0.0,0.0,0.0,0.0,-0.8246,-0.8146,0.0,0.0,0.0,0.0,0.0,0.0,0.0,0.0,0.0,0.0,0.0,0.0,0.0,0.0,0.0,0.0,0.0,0.0,0.0,0.0,0.0,0.0,0.0,0.0,0.0,0.0,0.0,0.0,0.0,0.0,0.0,0.0,0.0,0.0,0.0,0.0,0.0,0.0,0.0,0.0,-0.2824,-0.2817,-0.293,-0.3269,-0.3138,-0.2902,-0.2618,-0.2227,-0.1845,-0.1441,-0.1173,0.0,0.0,0.0,0.0,0.0,0.0,0.0,0.0,0.0,0.0,0.0,0.0,0.0,0.0,0.0,0.0,0.0,0.0,0.0,0.0,0.0,0.0,0.0,0.0,0.0,0.0,0.0,0.0,0.0,0.0,0.0,0.0,0.0,0.0,0.0,0.0,0.0,0.0,0.0,0.0,0.0,0.0,0.0,0.0,0.0,0.0,0.0,0.0,0.0,0.0,0.0,0.0,0.0,0.0,0.0,0.0,0.0,0.0,0.0,-0.9479,-0.8882,0.0,0.0,0.0,0.0,0.0,0.0,0.0,0.0,0.0,0.0,0.0,0.0,0.0,0.0,0.0,0.0,0.0,0.0,0.0,0.0,0.0,0.0,0.0,0.0,0.0,0.0,0.0,0.0,0.0,0.0,0.0,0.0,0.0,0.0,0.0,0.0,0.0,0.0,0.0,0.0,-0.2698,-0.2781,-0.2874,-0.311,-0.294,-0.2707,-0.2437,-0.1998,-0.1616,-0.1313,-0.106,0.0,0.0,0.0,0.0,0.0,0.0,0.0,0.0,0.0,0.0,0.0,0.0,0.0,0.0,0.0,0.0,0.0,0.0,0.0,0.0,0.0,0.0,0.0,0.0,0.0,0.0,0.0,0.0,0.0,0.0,0.0,0.0,0.0,0.0,0.0,0.0,0.0,0.0,0.0,0.0,0.0,0.0,0.0,0.0,0.0,0.0,0.0,0.0,0.0,0.0,0.0,0.0,0.0,-1.2021,-1.1994,-1.2004,-1.2448,-1.2559,-1.2344,-1.1119,-1.0077,-0.9262,-0.9452,0.0,0.0,0.0,0.0,0.0,0.0,0.0,0.0,0.0,0.0,0.0,0.0,0.0,0.0,0.0,0.0,0.0,0.0,0.0,0.0,0.0,0.0,-0.5268,-0.5268,-0.5432,-0.5284,-0.4375,0.0,0.0,0.0,0.0,0.0,0.0,0.0,0.0,0.0,0.0,0.0,-0.2696,-0.2788,-0.2912,-0.3024,-0.2812,-0.2543,-0.2275,-0.181,-0.1476,-0.1265,-0.0936,-0.0745,0.0,0.0,0.0,0.0,0.0,0.0,0.0,0.0,0.0,0.0,0.0,0.0,0.0,0.0,0.0,0.0,0.0,0.0,0.0,0.0,0.0,0.0,0.0,0.0,0.0,0.0,0.0,0.0,0.0,0.0,0.0,0.0,-0.9451,-0.9544,0.0,0.0,0.0,0.0,0.0,0.0,0.0,0.0,0.0,0.0,0.0,0.0,0.0,-1.2115,-1.2764,-1.2553,-1.3035,-1.4192,-1.4085,-1.428,-1.4761,-1.4848,-1.4758,-1.449,-1.4184,0.0,-1.1762,-1.1175,0.0,0.0,0.0,0.0,0.0,0.0,0.0,0.0,0.0,0.0,0.0,0.0,0.0,0.0,0.0,0.0,0.0,0.0,0.0,0.0,0.0,0.0,-0.6307,-0.6364,-0.6299,-0.6062,-0.5695,-0.4875,-0.4118,-0.3697,-0.3232,-0.2794,0.0,0.0,0.0,0.0,0.0,0.0,-0.2749,-0.2747,-0.2765,-0.2831,-0.261,-0.2341,-0.2045,-0.1595,-0.1263,-0.1048,-0.0776,-0.0606,-0.0524,-0.0513,0.0,0.0,0.0,0.0,0.0,0.0,0.0,0.0,0.0,0.0,0.0,0.0,0.0,0.0,0.0,0.0,0.0,0.0,0.0,0.0,0.0,0.0,0.0,0.0,0.0,0.0,0.0,0.0,0.0,-0.9395,-0.9992,-1.0491,-1.0511,-1.0469,0.0,0.0,0.0,0.0,0.0,0.0,0.0,0.0,0.0,-1.3052,-1.368,-1.4287,-1.4832,-1.5137,-1.5669,-1.6443,-1.6413,-1.6501,-1.6692,-1.6581,-1.6422,-1.6182,-1.5967,-1.5379,-1.4492,-1.2894,-1.1942,-1.1372,0.0,0.0,0.0,0.0,-1.0094,-0.9959,-0.9471,-0.9256,-0.9137,-0.8688,0.0,0.0,0.0,0.0,0.0,0.0,0.0,-0.6142,-0.6446,-0.6672,-0.6841,-0.6872,-0.6884,-0.6813,-0.6534,-0.5845,-0.5039,-0.4305,-0.3676,-0.319,-0.2896,-0.2601,0.0,0.0,0.0,-0.2566,-0.2713,-0.2776,-0.2798,-0.2808,-0.251,-0.2242,-0.1978,-0.1511,-0.1168,-0.0972,-0.0734,-0.059,-0.0561,-0.0529,-0.0408,0.0,0.0,0.0,0.0,0.0,0.0,0.0,0.0,0.0,0.0,0.0,0.0,0.0,0.0,0.0,0.0,0.0,0.0,0.0,0.0,0.0,0.0,0.0,0.0,0.0,0.0,0.0,0.0,-1.041,-1.1048,-1.1695,-1.1916,-1.1991,0.0,0.0,0.0,0.0,0.0,0.0,-1.4288,-1.4535,-1.4889,-1.5448,-1.6082,-1.657,-1.6899,-1.7384,-1.7823,-1.8292,-1.826,-1.8303,-1.8437,-1.8223,-1.8041,-1.7822,-1.7387,-1.7001,-1.657,-1.466,-1.3446,-1.2768,-1.266,-1.25,-1.2319,-1.2066,-1.1781,-1.141,-1.1079,-1.0756,-1.0453,-1.0021,-0.9502,-0.8919,-0.8378,0.0,0.0,0.0,0.0,-0.6966,-0.7148,-0.7299,-0.7445,-0.7403,-0.749,-0.7501,-0.7125,-0.6596,-0.5897,-0.487,-0.4175,-0.3637,-0.3218,-0.2865,0.0,-0.2576,-0.2681,-0.2808,-0.2852,-0.2922,-0.2926,-0.2867,-0.2584,-0.229,-0.1992,-0.1545,-0.1161,-0.0908,-0.0743,-0.0598,-0.0567,-0.0536,-0.044,-0.0271,0.0,0.0,0.0,0.0,0.0,0.0,0.0,0.0,0.0,0.0,0.0,0.0,0.0,0.0,0.0,0.0,0.0,0.0,0.0,0.0,0.0,0.0,0.0,0.0,0.0,0.0,0.0,0.0,0.0,-1.3378,-1.4059,0.0,0.0,0.0,0.0,-1.3936,-1.3988,-1.4631,-1.6088,-1.6835,-1.7502,-1.8091,-1.8648,-1.8885,-1.8763,-1.854,-1.8749,-1.9321,-1.924,-1.9546,-2.0177,-1.9969,-1.9778,-1.9504,-1.8617,-1.7964,-1.745,-1.6382,-1.577,-1.5488,-1.5354,-1.513,-1.4892,-1.4675,-1.4406,-1.4014,-1.3495,-1.32,-1.2836,-1.1815,-1.0534,-0.9298,-0.8958,-0.8569,0.0,0.0,-0.8614,-0.8422,-0.8494,-0.849,-0.8404,-0.8271,-0.8145,-0.7942,-0.7553,-0.7084,-0.6434,-0.5307,-0.4592,-0.3996,-0.3385,0.0,-0.3224,-0.3078,-0.3011,-0.3072,-0.3263,-0.3173,-0.3062,-0.2995,-0.2799,-0.2517,-0.2112,-0.1701,-0.1312,-0.0911,-0.0771,-0.0636,-0.0502,-0.0506,-0.0489,-0.0486,-0.0101,0.0,0.0,0.0,0.0,0.0,0.0,0.0,0.0,0.0,0.0,0.0,0.0,0.0,0.0,0.0,0.0,0.0,0.0,0.0,0.0,0.0,0.0,0.0,0.0,0.0,0.0,0.0,0.0,-1.4933,-1.5294,0.0,-1.5908,-1.5719,-1.5974,-1.698,-1.7138,-1.7572,-1.8493,-1.8876,-1.9102,-1.9214,-1.9761,-1.9968,-1.9796,-2.0079,-2.0289,-2.0431,-2.0399,-2.0493,-2.0679,-2.0478,-2.0258,-2.0,-1.9456,-1.8994,-1.8599,-1.8049,-1.7093,-1.5895,-1.57,-1.5513,-1.5349,-1.5133,-1.4826,-1.4423,-1.4026,-1.3622,-1.3148,-1.232,-1.1541,-1.0879,-1.0424,-0.9962,-0.9546,-0.9278,-0.9034,-0.8792,-0.8587,-0.8475,-0.8334,-0.82,-0.8065,-0.7896,-0.7549,-0.7242,-0.6713,-0.5781,-0.4912,-0.4178,-0.3755,-0.3417,-0.3155,-0.3117,-0.308,-0.3097,-0.3155,-0.312,-0.3082,-0.3085,-0.2853,-0.2603,-0.233,-0.1813,-0.1372,-0.1065,-0.0823,-0.0639,-0.0504,-0.0495,-0.0513,-0.0493,-0.0144,0.0133,0.0,0.0,0.0,0.0,0.0,0.0,0.0,0.0,0.0,0.0,0.0,0.0,0.0,0.0,0.0,0.0,0.0,0.0,0.0,0.0,0.0,0.0,0.0,0.0,0.0,-1.4435,-1.552,-1.6517,-1.7104,-1.758,-1.7971,-1.8,-1.8342,-1.9151,-1.9316,-1.9638,-2.0243,-2.0364,-2.0482,-2.0548,-2.0905,-2.0982,-2.0822,-2.1175,-2.1309,-2.1166,-2.1166,-2.1134,-2.1055,-2.0877,-2.0679,-2.0395,-2.005,-1.9711,-1.9332,-1.9087,-1.8186,-1.6922,-1.6612,-1.6359,-1.6114,-1.5932,-1.5616,-1.5215,-1.4725,-1.4108,-1.3426,-1.2872,-1.2335,-1.1854,-1.1516,-1.1022,-1.0545,-1.0056,-0.9667,-0.9331,-0.8985,-0.8742,-0.8553,-0.8413,-0.8322,-0.8147,-0.7853,-0.7578,-0.7098,-0.6368,-0.5375,-0.4559,-0.4071,-0.363,-0.3354,-0.3273,-0.3276,-0.3276,-0.3276,-0.3276,-0.3276,-0.3276,-0.3073,-0.2812,-0.2526,-0.1994,-0.1557,-0.1169,-0.0867,-0.0672,-0.0504,-0.0504,-0.0495,-0.0508,-0.0124,0.0234,0.0576,0.0,0.0,0.0,0.0,0.0,0.0,0.0,0.0,0.0,0.0,0.0,0.0,0.0,0.0,0.0,0.0,0.0,0.0,0.0,0.0,0.0,0.0,0.0,-1.3799,-1.6295,-1.8232,-1.8181,-1.9516,-2.0429,-2.0439,-2.0439,-2.0408,-2.0286,-2.0335,-2.0636,-2.1204,-2.1317,-2.1603,-2.218,-2.2089,-2.1957,-2.1811,-2.1738,-2.1631,-2.1524,-2.1524,-2.1462,-2.1417,-2.1294,-2.1071,-2.0794,-2.0512,-2.017,-1.9726,-1.9487,-1.9176,-1.8745,-1.8226,-1.7774,-1.7404,-1.7253,-1.7002,-1.659,-1.578,-1.4831,-1.3905,-1.3619,-1.2912,-1.2118,-1.2064,-1.1734,-1.1247,-1.0973,-1.0624,-1.0213,-0.9718,-0.9413,-0.9159,-0.9008,-0.891,-0.8731,-0.845,-0.8119,-0.7622,-0.6964,-0.6008,-0.5056,-0.4244,-0.3983,-0.3847,-0.3629,-0.3585,0.0,-0.3581,-0.3581,-0.3581,-0.3581,-0.349,-0.3209,-0.2741,-0.2339,-0.1848,-0.1248,-0.0938,-0.0706,-0.0504,-0.0504,-0.0504,-0.0504,-0.0032,0.0418,0.0898,0.0,0.0,0.0,0.0,0.0,0.0,0.0,0.0,0.0,0.0,0.0,0.0,0.0,0.0,0.0,0.0,0.0,0.0,0.0,0.0,0.0,-1.6526,-1.7613,-1.7107,-1.831,-1.939,-1.9859,-2.0275,-2.0761,-2.135,-2.142,-2.1604,-2.2039,-2.2099,-2.2151,-2.2217,-2.2217,-2.2265,-2.2349,-2.2265,-2.218,-2.2111,-2.1974,-2.1911,-2.1866,-2.1866,-2.1823,-2.1781,-2.1617,-2.1419,-2.1151,-2.0827,-2.0512,-2.017,-1.9839,-1.9493,-1.9176,-1.8461,-1.8082,-1.7814,-1.7625,-1.7199,-1.6595,-1.6076,-1.5318,-1.4575,-1.4359,-1.3814,-1.3176,-1.2912,-1.2474,-1.1889,-1.1342,-1.0922,-1.0462,-0.9769,-0.9458,-0.9263,-0.9061,-0.891,-0.8732,-0.8586,-0.8306,-0.7912,-0.7232,-0.6529,-0.5774,-0.4791,-0.4275,-0.3919,-0.378,-0.3646,-0.3581,-0.3581,-0.3581,-0.3581,-0.3581,-0.349,-0.329,-0.2944,-0.2419,-0.195,-0.1577,-0.1097,-0.0739,-0.0639,-0.0538,-0.0437,-0.0269,-0.0,0.0427,0.0,0.0,0.0,0.0,0.0,0.0,0.0,0.0,0.0,0.0,0.0,0.0,0.0,0.0,0.0,0.0,0.0,0.0,0.0,0.0,0.0,0.0,-1.8589,-1.9972,-2.0134,-2.0435,-2.0767,-2.1132,-2.1488,-2.1896,-2.2417,-2.2452,-2.2645,-2.3035,-2.2995,-2.2876,-2.2685,-2.2632,-2.2542,-2.2405,-2.2338,-2.2282,-2.2225,-2.2163,-2.2118,-2.2118,-2.2118,-2.2089,-2.202,-2.1886,-2.1691,-2.1433,-2.1151,-2.086,-2.0545,-2.0189,-1.9874,-1.9493,0.0,0.0,0.0,0.0,-1.7253,-1.6735,-1.6281,-1.5712,-1.5142,-1.488,-1.4477,-1.3952,-1.3515,-1.3035,-1.2461,-1.1819,-1.1276,-1.0718,-1.0138,-0.9725,-0.9413,-0.9159,-0.8956,-0.8857,-0.8685,-0.8527,-0.8218,-0.7628,-0.7084,0.0,-0.5461,-0.4725,-0.4179,-0.3935,-0.3819,-0.3765,-0.3765,-0.3707,-0.367,-0.367,-0.3567,-0.3398,-0.3123,-0.2605,0.0,0.0,0.0,-0.0827,-0.0639,-0.0538,0.0,0.0,0.0,0.0,0.0,0.0,0.0,0.0,0.1585,0.1666,0.0,0.0,0.0,0.0,0.0,0.0,0.0,0.0,0.0,0.0,0.0,0.0,0.0,0.0,0.0,0.0,-2.0662,-2.1895,-2.2632,-2.2493,-2.2255,-2.2194,-2.2794,-2.3289,-2.3407,-2.343,-2.343,-2.343,-2.3313,-2.3119,-2.2868,-2.2712,0.0,0.0,0.0,-2.231,-2.231,-2.231,-2.231,-2.231,-2.231,-2.2254,-2.2214,-2.2089,-2.1928,-2.1708,-2.1464,-2.1151,-2.086,-2.0545,-2.0189,-1.9752,-1.9228,-1.8736,-1.8279,-1.7706,-1.7267,-1.6905,-1.6497,0.0,0.0,-1.5289,-1.4926,-1.4523,-1.3905,-1.3409,-1.2919,-1.2314,-1.1669,-1.1074,-1.0667,-1.0095,-0.9614,-0.9316,-0.9113,-0.8956,-0.8804,-0.8692,-0.8468,-0.8031,-0.761,-0.7074,-0.6213,-0.5276,-0.4496,-0.4096,-0.4029,-0.4019,-0.4019,-0.39,-0.3812,-0.3792,-0.368,0.0,-0.3262,-0.2836,-0.2433,-0.1973,-0.1433,-0.0937,-0.0549,-0.0514,-0.0445,-0.0343,-0.0137,0.0175,0.0588,0.1054,0.1367,0.1481,0.1511,0.1616,0.0,0.0,0.0,0.0,0.0,0.0,0.0,0.0,0.0,0.0,0.0,0.0,0.0,0.0,0.0,-2.086,-2.1917,-2.2809,-2.3531,-2.3599,-2.3494,-2.3312,-2.3414,-2.3549,-2.3634,-2.3642,-2.3642,-2.3634,-2.3504,-2.3319,-2.307,-2.285,-2.2685,-2.2487,-2.2422,-2.2349,-2.231,-2.231,-2.231,-2.231,-2.231,0.0,-2.2282,-2.2197,-2.2077,-2.194,-2.1708,-2.1495,-2.1261,-2.0877,-2.0361,-1.9752,-1.9273,-1.8912,-1.863,-1.8228,-1.7814,-1.7475,-1.6947,-1.6491,-1.6013,-1.5635,-1.5187,-1.4777,-1.4373,-1.38,0.0,-1.2667,-1.2147,-1.1628,-1.0972,-1.0462,-0.994,-0.9465,-0.9159,-0.8956,-0.8804,-0.8692,-0.8521,-0.8362,-0.7937,-0.7396,-0.6588,-0.5641,-0.4872,-0.4458,-0.4198,-0.4019,-0.4019,-0.3992,-0.3927,-0.3805,-0.3768,-0.3658,-0.3363,-0.301,-0.2644,-0.2305,-0.1557,-0.1003,-0.0764,-0.065,-0.0573,-0.0534,-0.0382,-0.0077,0.0426,0.0614,0.0886,0.1329,0.1553,0.1717,0.0,0.0,0.0,0.0,0.0,0.0,0.0,0.0,0.0,0.0,0.0,-1.8286,-1.872,0.0,-2.1467,-2.2278,-2.3033,-2.3657,-2.4002,-2.4018,-2.3935,-2.3728,-2.3728,-2.3789,-2.3831,-2.3855,-2.3855,-2.3852,-2.3685,-2.3508,-2.3319,-2.3102,-2.2876,-2.2659,-2.2552,-2.246,-2.2366,-2.231,-2.231,-2.231,-2.231,-2.231,-2.231,-2.2271,-2.218,-2.2106,-2.1899,-2.1721,-2.1526,-2.0942,-2.0444,-1.9995,-1.9603,-1.9213,-1.8851,-1.8489,-1.8082,-1.7639,-1.7199,-1.6735,-1.6318,-1.6001,-1.5591,-1.5187,-1.4834,-1.4316,-1.3695,-1.316,-1.2598,-1.2026,-1.1368,-1.0871,-1.0352,-0.9673,-0.9361,-0.9113,-0.8857,-0.8745,-0.8633,-0.8527,-0.8256,-0.783,-0.7074,-0.6445,-0.5681,-0.4831,-0.4502,-0.4348,-0.4243,-0.4178,-0.4053,-0.4029,-0.3883,-0.3761,-0.3595,-0.3152,-0.2665,-0.2184,-0.1644,-0.1167,-0.0827,-0.0746,-0.0668,-0.0589,-0.055,-0.0318,0.0081,0.0326,0.0576,0.084,0.1233,0.1462,0.0,0.0,0.0,0.0,0.0,0.0,0.0,0.0,-1.8633,-1.8787,-1.9973,-2.1038,-2.1265,-2.2365,-2.3277,-2.3444,-2.3949,-2.4303,-2.4247,-2.4172,-2.4056,-2.3896,-2.3917,-2.3976,-2.4016,-2.4016,-2.4036,-2.4016,-2.3855,-2.3689,-2.3553,-2.3365,-2.3144,-2.2893,-2.2764,-2.2623,-2.246,-2.2394,-2.2338,-2.231,-2.231,-2.231,-2.231,-2.231,-2.2254,-2.2197,-2.2044,-2.1899,-2.1634,-2.0974,-2.0579,-2.0304,-1.9975,-1.9545,-1.9093,-1.8721,-1.8266,-1.776,-1.7352,-1.6947,-1.6522,-1.6318,-1.6001,-1.5635,-1.5289,-1.4731,-1.4129,-1.361,-1.3045,-1.2431,-1.1778,-1.1326,-1.0761,-0.9925,-0.9569,-0.9309,-0.891,-0.8804,-0.8752,-0.8685,-0.8527,-0.8203,-0.7557,-0.7182,-0.6583,-0.5281,-0.4959,-0.4798,-0.4629,-0.4469,-0.433,-0.4302,-0.4076,-0.3904,-0.3752,-0.3251,-0.2693,-0.2046,-0.1787,-0.1424,-0.093,-0.0848,-0.0768,-0.0606,-0.0687,-0.0576,-0.0299,0.0086,0.0264,0.0319,0.0872,0.1169,-1.6798,-1.7163,-1.7114,-1.7148,-1.7288,-1.7595,0.0,-1.9035,-1.9832,-2.0551,-2.1372,-2.2185,-2.2974,-2.3254,-2.3609,-2.4321,-2.4422,-2.4392,-2.4375,-2.4266,-2.4191,-2.417,-2.4113,-2.4074,-2.4094,-2.4151,-2.4151,-2.4094,-2.3976,-2.3816,-2.3671,-2.3549,-2.336,-2.3168,-2.3045,-2.2868,-2.2659,-2.2542,-2.246,-2.2377,-2.2338,-2.231,-2.231,-2.231,-2.2282,-2.2282,-2.2073,-2.184,-2.1589,-2.1262,-2.0876,-2.046,-2.017,-1.9889,-1.9545,-1.9049,-1.8592,-1.8147,-1.7598,-1.7157,-1.6791,-1.6491,-1.6275,-1.6057,-1.5603,-1.5006,-1.4362,-1.3905,-1.3296,-1.2735,-1.2175,-1.1628,-1.1074,-1.03,-0.9777,-0.9309,-0.9061,-0.891,-0.8804,-0.8804,-0.8692,-0.8415,-0.7925,-0.7616,-0.7025,-0.5882,-0.5563,-0.5399,-0.5069,-0.4999,-0.4931,-0.4681,-0.4525,-0.4184,-0.368,-0.3342,-0.2943,-0.2443,-0.2135,-0.1733,-0.1281,-0.1019,-0.0843,-0.0709,-0.0709,-0.0667,-0.0625,-0.0417,-0.0189,0.0048,0.0785,0.1123,-1.746,-1.8114,-1.8568,-1.8989,-1.9473,-2.0021,-2.0784,-2.1559,-2.2223,-2.2495,-2.3191,-2.3856,-2.4218,-2.4275,-2.4373,-2.4666,-2.4676,-2.4596,-2.4479,-2.4393,-2.4303,-2.421,-2.4171,-2.4151,-2.4151,-2.417,-2.419,-2.417,-2.4036,-2.3917,-2.3816,-2.3725,-2.3804,-2.4064,-2.3936,-2.3971,-2.4207,-2.3619,-2.323,-2.3084,-2.2609,-2.2338,-2.231,-2.231,-2.231,-2.2282,-2.2073,-2.1911,-2.1768,-2.1402,-2.1055,-2.0712,-2.041,-2.0115,-1.9797,-1.925,-1.8745,-1.8344,-1.7747,-1.7323,-1.6918,-1.6663,-1.6448,-1.6231,-1.5836,-1.5232,-1.4628,-1.4082,-1.3515,-1.2949,-1.2471,-1.1977,-1.1469,-1.0702,-1.0146,-0.9629,-0.9316,-0.9113,-0.9008,-0.8956,-0.885,-0.8685,-0.8256,-0.8049,-0.7681,-0.6918,-0.6322,-0.5832,-0.5559,-0.5454,-0.5225,-0.4737,-0.4557,-0.4309,-0.385,-0.3675,-0.3351,-0.2828,-0.2498,-0.2067,-0.1394,-0.1155,-0.0963,-0.077,-0.077,-0.077,-0.077,-0.0636,-0.0394,0.0,0.03,0.0556,-1.8664,-1.93,-1.9941,-2.0769,-2.1405,-2.2026,-2.2834,-2.3445,-2.3896,-2.4074,-2.4588,-2.498,-2.4947,-2.4953,-2.494,-2.4879,-2.4842,-2.4772,-2.4613,-2.4479,-2.4393,-2.4229,-2.4209,-2.419,-2.417,-2.419,-2.419,-2.417,-2.4074,-2.4067,-2.4224,-2.4179,-2.445,-2.5105,-2.5004,-2.5123,-2.5491,-2.475,-2.4282,-2.4063,-2.3425,-2.2971,-2.2638,-2.2395,-2.231,-2.2282,-2.2118,-2.1986,-2.1853,-2.1556,-2.1246,-2.0942,-2.0597,-2.0323,-1.999,-1.9398,-1.8936,-1.85,-1.7948,-1.7475,-1.7086,-1.6846,-1.6633,-1.6405,-1.5925,-1.5424,-1.4812,-1.4165,-1.3589,-1.3122,-1.2666,-1.2274,-1.1819,-1.1209,-1.0608,-1.0102,-0.9777,-0.9517,-0.9309,-0.9211,-0.9113,-0.8956,-0.8586,-0.8374,-0.8162,-0.7681,-0.7079,-0.6539,-0.6159,-0.5887,-0.5508,-0.4957,-0.4737,-0.4455,-0.409,-0.3943,-0.3618,-0.3066,-0.2818,-0.2317,-0.1463,-0.1312,-0.1059,-0.0806,-0.0806,-0.0806,-0.0806,-0.0764,-0.0512,-0.0102,-0.0052,0.0105,-2.1364,-2.16,-2.1826,-2.2693,-2.2888,-2.3072,-2.3875,-2.4011,-2.4217,-2.4982,-2.516,-2.5176,-2.5103,-2.5087,-2.5101,-2.5101,-2.498,-2.4875,-2.4806,-2.4613,-2.4444,-2.4303,-2.4247,-2.4154,-2.4113,-2.417,-2.417,-2.4113,-2.4036,-2.4304,-2.5023,-2.5059,-2.5397,-2.6149,-2.6098,-2.6021,-2.5978,-2.5683,-2.5438,-2.525,-2.5027,-2.4431,-2.3534,-2.27,-2.231,-2.2282,-2.2225,-2.2094,-2.1899,-2.1738,-2.1481,-2.1151,-2.0745,-2.0478,-2.0235,-1.9596,-1.9139,-1.8707,-1.8187,-1.7733,-1.7321,-1.7015,-1.6803,-1.659,-1.5969,-1.548,-1.4915,-1.4212,-1.3589,-1.3122,-1.2764,-1.2382,-1.2026,-1.1728,-1.1175,-1.0616,-1.0403,-1.0079,-0.9762,-0.9614,-0.9361,-0.9113,-0.8857,-0.8685,-0.8415,-0.7949,-0.7848,-0.7628,-0.6933,-0.6485,-0.5932,-0.5328,-0.5067,-0.4711,-0.4239,-0.4056,-0.377,-0.3218,-0.2963,-0.2413,-0.1614,-0.1363,-0.1059,-0.0806,-0.0806,-0.0806,-0.0806,-0.0784,-0.0638,-0.0372,-0.011,0.0,-2.1698,-2.2193,-2.2824,-2.3659,-2.385,-2.4038,-2.4851,-2.5016,-2.5054,-2.5292,-2.5322,-2.5313,-2.5243,-2.5231,-2.5217,-2.518,-2.5132,-2.5025,-2.4827,-2.4707,-2.4545,-2.4321,-2.4247,-2.4152,-2.4036,-2.4094,-2.4094,-2.4036,-2.4468,-2.4844,-2.5096,-2.5605,-2.6259,-2.7035,-2.7001,-2.7181,-2.7648,-2.6871,-2.6375,-2.6222,-2.5379,-2.4775,-2.4372,-2.3476,-2.3078,-2.3004,-2.2445,-2.2106,-2.1969,-2.1811,-2.1587,-2.1309,-2.0926,-2.063,-2.0323,-1.9797,-1.9362,-1.8912,-1.8333,-1.7855,-1.7406,-1.7086,-1.6846,-1.659,-1.6088,-1.5591,-1.5096,-1.4455,-1.3847,-1.3276,-1.3017,-1.2686,-1.2274,-1.2026,-1.1578,-1.1175,-1.0922,-1.0608,-1.0293,-0.9917,-0.9666,-0.9361,-0.9008,-0.8738,-0.8468,-0.8168,-0.7842,-0.7467,-0.709,-0.6756,-0.6268,-0.5559,-0.5237,-0.4877,-0.4443,-0.4345,-0.41,-0.3616,-0.3238,-0.2703,-0.2003,-0.1517,-0.1193,-0.103,-0.0921,-0.0867,-0.0867,-0.0877,-0.0827,-0.0717,-0.0223,0.0,-2.2186,-2.2903,-2.3837,-2.4944,-2.5229,-2.5368,-2.5886,-2.5978,-2.5866,-2.5499,-2.5437,-2.5432,-2.536,-2.5341,-2.5321,-2.5248,-2.5214,-2.5227,-2.5291,-2.5216,-2.5171,-2.5227,-2.515,-2.5012,-2.4832,-2.4871,-2.4743,-2.4431,-2.4826,-2.5328,-2.5887,-2.6441,-2.71,-2.7894,-2.7882,-2.8087,-2.8569,-2.7841,-2.738,-2.7189,-2.6079,-2.5426,-2.5249,-2.43,-2.3718,-2.3376,-2.2844,-2.2416,-2.2061,-2.1928,-2.1721,-2.1433,-2.1087,-2.073,-2.0342,-1.9854,-1.9435,-1.9026,-1.8503,-1.8029,-1.757,-1.7199,-1.6918,-1.6663,-1.6175,-1.5724,-1.5232,-1.4605,-1.3941,-1.343,-1.3172,-1.2783,-1.248,-1.2274,-1.1927,-1.1578,-1.1377,-1.1074,-1.0718,-1.0285,-0.9873,-0.9465,-0.9106,-0.8791,-0.8474,-0.8321,-0.7895,-0.7521,-0.73,-0.7031,-0.6539,-0.5837,-0.5399,-0.5011,-0.4629,-0.4519,-0.4298,-0.391,-0.3519,-0.2963,-0.2352,-0.1793,-0.1346,-0.1122,-0.0954,-0.0898,-0.0898,-0.0898,-0.0898,-0.0898,-0.028,0.0,-2.2937,-2.3834,-2.4911,-2.6498,-2.6938,-2.6951,-2.6909,-2.6843,-2.6566,-2.568,-2.5478,-2.543,-2.541,-2.5367,-2.5322,-2.5302,-2.5248,-2.5423,-2.6108,-2.6084,-2.6233,-2.6823,-2.6759,-2.6591,-2.6313,-2.6291,-2.6,-2.5277,-2.5223,-2.5851,-2.7327,-2.7507,-2.7894,-2.8676,-2.8694,-2.8694,-2.8694,-2.8569,-2.8353,-2.8081,-2.7038,-2.6411,-2.6122,-2.5111,-2.4228,-2.3444,-2.341,-2.2929,-2.2185,-2.2044,-2.184,-2.1559,-2.115,-2.0747,-2.0342,-1.9854,-1.9435,-1.9026,-1.8673,-1.8242,-1.7842,-1.7365,-1.7086,-1.6791,-1.6219,-1.5768,-1.5379,-1.4651,-1.4046,-1.3573,-1.322,-1.2832,-1.2529,-1.248,-1.2175,-1.1877,-1.1728,-1.1377,-1.0972,-1.0565,-0.9991,-0.9465,-0.9211,-0.8738,-0.8421,-0.8368,-0.8109,-0.7794,-0.7521,-0.73,-0.6815,-0.6109,-0.5614,-0.5171,-0.4743,-0.4574,-0.4353,-0.4024,-0.3741,-0.3294,-0.2577,-0.2071,-0.1568,-0.1122,-0.101,-0.0898,-0.0898,-0.0898,-0.0898,-0.0842,-0.028,0.0,-2.4019,-2.5171,-2.6435,-2.6813,-2.7391,-2.7701,-2.705,-2.6887,-2.6624,-2.5744,-2.5066,-2.4775,-2.5372,-2.4907,-2.4608,-2.5147,-2.5209,-2.5423,-2.6043,-2.6057,-2.618,-2.669,-2.6698,-2.6508,-2.625,-2.6245,-2.639,-2.6789,-2.6825,-2.6982,-2.7381,-2.8027,-2.8494,-2.8694,-2.8694,-2.8694,-2.8694,-2.851,-2.83,-2.8025,-2.7613,-2.7225,-2.6902,-2.5976,-2.5071,-2.4201,-2.363,-2.2929,-2.2185,-2.2044,-2.184,-2.1559,-2.115,-2.0698,-2.0224,-1.9854,-1.9435,-1.9064,-1.8736,-1.8321,-1.7842,-1.7365,-1.7086,-1.6833,-1.6436,-1.6044,-1.5603,-1.5062,-1.4501,-1.3941,-1.3467,-1.3055,-1.2735,-1.2529,-1.2283,-1.2026,-1.1877,-1.1469,-1.0972,-1.0506,-0.9732,-0.9054,-0.8784,-0.858,-0.8374,-0.8275,-0.8062,-0.7848,-0.767,-0.7413,-0.6982,-0.6213,-0.5778,-0.5289,-0.4743,-0.4574,-0.4408,-0.4138,-0.3796,-0.3405,-0.2963,-0.2293,-0.1792,-0.1459,-0.1234,-0.0954,-0.0505,-0.0785,-0.0673,-0.0224,-0.0056,0.0,-2.4392,-2.5664,-2.7082,-2.7394,-2.7839,-2.8071,-2.7585,-2.6882,-2.6087,-2.5213,-2.4347,-2.3876,-2.4316,-2.3944,-2.3816,-2.4553,-2.4645,-2.513,-2.6513,-2.6569,-2.6818,-2.7688,-2.7687,-2.7506,-2.7296,-2.7254,-2.7453,-2.7881,-2.7616,-2.7562,-2.7924,-2.8384,-2.8662,-2.8662,-2.8662,-2.8644,-2.8619,-2.8458,-2.8246,-2.8042,-2.7777,-2.7509,-2.7164,-2.6595,-2.5822,-2.4932,-2.4188,-2.3431,-2.2651,-2.2166,-2.1751,-2.1419,-2.1071,-2.0597,-2.008,-1.9762,-1.9398,-1.9064,-1.8774,-1.84,-1.7963,-1.7447,-1.7115,-1.6833,-1.6479,-1.6132,-1.5703,-1.5244,-1.464,-1.3978,-1.3505,-1.3045,-1.2676,-1.248,-1.2224,-1.1927,-1.1628,-1.1226,-1.071,-0.9984,-0.9368,-0.885,-0.8626,-0.8368,-0.8162,-0.8062,-0.7901,-0.7681,-0.7515,-0.7359,-0.6977,-0.6263,-0.5778,-0.5285,-0.4849,-0.4629,-0.4463,-0.4356,-0.3962,-0.363,-0.335,-0.2685,-0.2128,-0.1682,-0.129,-0.0842,-0.0393,-0.0449,-0.0336,0.0,0.0,0.0,-2.4567,-2.5842,-2.73,-2.7872,-2.8184,-2.8265,-2.7923,-2.6681,-2.5323,-2.4327,-2.3428,-2.2854,-2.2966,-2.2849,-2.2995,-2.3861,-2.3936,-2.4686,-2.6977,-2.7175,-2.7568,-2.8857,-2.8952,-2.8834,-2.8612,-2.8587,-2.8587,-2.8587,-2.7936,-2.787,-2.8551,-2.8587,-2.8587,-2.8587,-2.8587,-2.8562,-2.8466,-2.8309,-2.8191,-2.8042,-2.7707,-2.7417,-2.7166,-2.6975,-2.6435,-2.5542,-2.4814,-2.4008,-2.3194,-2.2274,-2.1631,-2.1214,-2.0893,-2.0426,-1.9935,-1.9683,-1.9376,-1.9064,-1.8812,-1.8503,-1.8109,-1.757,-1.7199,-1.6833,-1.6522,-1.6132,-1.5736,-1.5289,-1.4628,-1.3931,-1.3505,-1.2949,-1.248,-1.2323,-1.2076,-1.1728,-1.1175,-1.0769,-1.0249,-0.9316,-0.8956,-0.8692,-0.8527,-0.8156,-0.7901,-0.7848,-0.7628,-0.7413,-0.7257,-0.7144,-0.6864,-0.6263,-0.5664,-0.5171,-0.4901,-0.4625,-0.4463,-0.4463,-0.4187,-0.3855,-0.3572,-0.3021,-0.2408,-0.179,-0.1233,-0.0785,-0.0393,-0.0112,0.0,0.0,0.0,0.0,-2.5466,-2.6713,-2.7854,-2.7268,-2.8174,-2.8643,-2.6523,-2.5821,0.0,-2.3547,-2.2526,-2.2139,-2.2796,-2.2277,-2.2213,-2.3687,-2.3869,-2.4398,-2.6016,-2.6701,-2.727,-2.7954,-2.8535,-2.8834,-2.8612,-2.8587,-2.8587,-2.8587,-2.846,-2.8442,-2.8587,-2.8587,-2.8587,-2.8587,-2.8562,-2.8458,-2.8353,-2.8101,-2.7858,-2.7677,-2.7417,-2.7198,-2.704,-2.6942,-2.6402,-2.5478,-2.4719,-2.3916,-2.2979,-2.2096,-2.1462,-2.1007,-2.0763,-2.0258,-1.9726,-1.9647,-1.9376,-1.9064,-1.8874,-1.8553,-1.8201,-1.7598,-1.7199,-1.6918,-1.6565,-1.625,-1.5901,-1.5513,-1.4915,-1.4186,-1.3552,-1.3045,-1.2578,-1.2224,-1.1828,-1.1469,-1.1023,-1.0241,-0.9465,-0.8962,-0.8738,-0.8527,-0.8109,-0.7955,-0.7794,-0.7478,-0.7252,-0.7085,-0.6815,-0.6874,-0.6712,-0.6109,-0.5609,-0.5171,-0.4743,-0.4574,-0.4408,-0.4249,-0.4079,-0.3855,-0.3466,-0.3074,-0.2516,-0.179,-0.1401,-0.0954,-0.0393,-0.0112,0.0,0.0,0.0,0.0,-2.5696,-2.659,-2.7413,-2.7002,-2.7501,-2.7653,-2.5931,0.0,0.0,-2.1998,-2.0933,-2.0405,-2.081,-2.0496,-2.073,-2.2335,-2.2882,-2.3651,-2.5152,-2.592,-2.6693,-2.7672,-2.8054,-2.8312,-2.8576,-2.8587,-2.8587,-2.8587,-2.8562,-2.8562,-2.8587,-2.8562,-2.8536,-2.8502,-2.8406,-2.8318,-2.8209,-2.7893,-2.7659,-2.7496,-2.7149,-2.6923,-2.6859,-2.6742,-2.6421,-2.5849,-2.4727,-2.3897,-2.321,-2.1967,-2.115,-2.0663,-2.041,-1.996,-1.9523,-1.9376,-1.9242,-1.9003,-1.8736,-1.845,-1.8135,-1.7557,-1.724,-1.696,-1.6607,-1.6219,-1.5824,-1.5501,-1.4812,-1.4035,-1.3457,-1.29,-1.2372,-1.1977,-1.1267,-1.0608,-1.0293,-0.9673,-0.9106,-0.8738,-0.8533,-0.8268,-0.7955,-0.7634,-0.7252,-0.6977,-0.6707,-0.6436,-0.6164,-0.6105,-0.5996,-0.5786,-0.5395,-0.5011,-0.4743,-0.4467,-0.4301,-0.4193,-0.3971,-0.3694,-0.3413,-0.3021,-0.2462,-0.179,-0.1626,-0.1178,-0.0393,-0.0112,0.0,0.0,0.0,0.0168,-2.5637,-2.6279,-2.6851,-2.6645,-2.6734,-2.6528,-2.5221,-2.3862,-2.2357,-2.0469,-1.9489,-1.8922,-1.8729,-1.8839,-1.9424,-2.0872,-2.1714,-2.2729,-2.4256,-2.501,-2.5931,-2.7334,-2.7547,-2.7822,-2.8515,-2.8562,-2.8536,-2.8536,-2.8466,-2.8466,-2.8536,-2.851,-2.8458,-2.838,-2.8237,-2.8126,-2.8025,-2.7659,-2.7417,-2.7261,-2.6908,-2.6691,-2.659,-2.6503,-2.6264,-2.5909,-2.4564,-2.3704,-2.3141,-2.1682,-2.0763,-2.0289,-1.9975,-1.9669,-1.9302,-1.9101,-1.9003,-1.8879,-1.8556,-1.8268,-1.8029,-1.7475,-1.7157,-1.6918,-1.6565,-1.6088,-1.5647,-1.5311,-1.4571,-1.3789,-1.3304,-1.2696,-1.2126,-1.1628,-1.071,-0.9888,-0.9562,-0.9204,-0.885,-0.858,-0.8321,-0.8062,-0.7741,-0.7198,-0.6761,-0.648,-0.6105,-0.5782,-0.5508,-0.5285,-0.5171,-0.5344,-0.5011,-0.4739,-0.4581,-0.4301,-0.4082,-0.4082,-0.3694,-0.3416,-0.319,-0.2856,-0.241,-0.1736,-0.1908,-0.1515,-0.0505,-0.0168,0.0056,0.0168,0.0168,0.0449,-2.5415,-2.6237,-2.6693,-2.5848,-2.619,-2.606,-2.3597,0.0,-2.209,-1.9558,-1.8969,-1.8677,-1.7868,-1.8323,-1.9107,-1.9981,-2.0755,-2.1744,-2.3232,-2.4019,-2.4966,-2.6435,-2.71,-2.77,-2.8446,-2.8458,-2.838,-2.8327,-2.8273,-2.8282,-2.8406,-2.8406,-2.838,-2.83,-2.8182,-2.7996,-2.773,-2.7338,-2.7053,-2.6841,-2.6623,-2.6468,-2.633,-2.633,-2.5808,-2.4886,-2.4013,-2.3075,-2.2059,-2.0996,-2.0361,-1.999,-1.9675,-1.9384,-1.9101,-1.8898,-1.8812,-1.8673,-1.8361,-1.8055,-1.776,-1.7201,-1.6976,-1.6833,-1.6362,-1.5925,-1.5424,-1.504,-1.4305,-1.3563,-1.3122,-1.255,-1.1877,-1.1023,-1.0293,-0.9718,-0.9309,-0.8942,-0.858,-0.8268,-0.8062,-0.7741,-0.7095,-0.6815,-0.648,-0.5937,-0.5609,-0.534,-0.5179,-0.4794,-0.457,-0.4574,-0.4574,-0.4463,-0.4249,-0.3965,-0.3799,-0.3638,-0.3357,-0.2965,-0.2577,-0.2635,-0.2355,-0.1515,-0.2249,-0.2023,-0.0842,-0.028,0.028,0.0842,0.0842,0.0842,-2.5327,-2.5758,-2.5912,-2.5534,-2.5653,-2.5302,-2.3216,-2.2719,-2.1809,-1.8739,-1.8085,-1.7794,-1.6965,-1.7443,-1.8212,-1.9023,-2.059,-2.1892,-2.243,-2.3507,-2.4614,-2.5667,-2.6313,-2.6953,-2.7666,-2.8066,-2.8174,-2.7979,-2.7904,-2.7847,-2.7725,-2.8007,-2.8081,-2.7864,-2.7795,-2.76,-2.7338,-2.7053,-2.6842,-2.6691,-2.6434,-2.6258,-2.6118,-2.5974,-2.531,-2.4325,-2.3442,-2.2457,-2.1444,-2.0501,-1.9909,-1.9596,-1.9362,-1.9124,-1.886,-1.8567,-1.8372,-1.8214,-1.7774,-1.7475,-1.7242,-1.674,-1.6398,-1.6207,-1.6013,-1.5647,-1.5153,-1.4731,-1.4082,-1.3372,-1.2842,-1.2067,-1.1167,-1.0462,-0.9932,-0.9465,-0.9061,-0.8685,-0.8368,-0.8055,-0.7681,-0.7246,-0.6815,-0.6322,-0.5832,-0.5449,-0.5066,-0.4736,-0.4577,-0.4298,-0.4073,-0.4073,-0.4132,-0.4132,-0.3965,-0.3688,-0.3466,-0.3188,-0.2968,-0.2519,-0.179,-0.1681,-0.1345,-0.0729,-0.1066,-0.0954,-0.0336,0.0056,0.0449,0.0898,0.129,0.1459,-2.4736,-2.4856,-2.4698,-2.4924,-2.4745,-2.411,-2.2622,-2.2026,-2.0991,-1.8099,-1.7283,-1.682,-1.6006,-1.6658,-1.7493,-1.8061,-2.0129,-2.1726,-2.1895,-2.2977,-2.4113,-2.5111,-2.571,-2.6339,-2.7046,-2.761,-2.7829,-2.7582,-2.7474,-2.7334,-2.7115,-2.7413,-2.7522,-2.7448,-2.7404,-2.723,-2.6956,-2.6758,-2.6556,-2.6434,-2.6187,-2.5954,-2.5828,-2.5567,-2.4788,-2.3597,-2.2854,-2.1858,-2.0628,-1.9927,-1.9493,-1.9176,-1.895,-1.8745,-1.85,-1.8095,-1.7895,-1.772,-1.7227,-1.6921,-1.674,-1.6312,-1.5876,-1.5579,-1.5367,-1.5108,-1.4731,-1.4222,-1.3563,-1.289,-1.2274,-1.1418,-1.0608,-0.9991,-0.9524,-0.9159,-0.8745,-0.8427,-0.8162,-0.7848,-0.7354,-0.681,-0.6426,-0.5832,-0.5344,-0.4959,-0.4629,-0.4356,-0.4135,-0.3799,-0.3574,-0.3519,-0.3577,-0.3577,-0.3519,-0.3299,-0.3021,-0.2571,-0.2238,-0.1736,-0.1007,-0.0616,-0.028,0.0056,0.0112,0.0224,0.0393,0.0673,0.0954,0.1178,0.174,0.202,-2.3458,-2.3477,-2.3022,-2.3813,-2.3313,-2.2397,-2.1524,-2.0611,-1.9435,-1.7665,-1.6674,-1.5846,-1.4982,-1.6079,-1.7101,-1.7096,-1.9077,-2.088,-2.1603,-2.23,-2.3275,-2.4809,-2.541,-2.6011,-2.6837,-2.714,-2.7272,-2.7213,-2.6956,-2.6791,-2.6725,-2.659,-2.6691,-2.7085,-2.7038,-2.6875,-2.6607,-2.64,-2.6189,-2.601,-2.5811,-2.5589,-2.5378,-2.5185,-2.4137,-2.2496,-2.2324,-2.1167,-1.9508,-1.9362,-1.9101,-1.8784,-1.8422,-1.8187,-1.7948,-1.7557,-1.7323,-1.7157,-1.6808,-1.6539,-1.6269,-1.592,-1.549,-1.5017,-1.4408,-1.4222,-1.4082,-1.3552,-1.2793,-1.1977,-1.1276,-1.0761,-1.0249,-0.9569,-0.9211,-0.8903,-0.8474,-0.8162,-0.7848,-0.7574,-0.7025,-0.6426,-0.5882,-0.5395,-0.4959,-0.4574,-0.4356,-0.4079,-0.3852,-0.3408,-0.3074,-0.2905,-0.2798,-0.2745,-0.2905,-0.2798,-0.2408,-0.1677,-0.1008,-0.0505,-0.0224,0.028,0.0561,0.0617,0.1066,0.129,0.129,0.1628,0.1797,0.1797,0.2186,0.2517,-2.1891,-2.2451,-2.2707,-2.2923,-2.2723,-2.2254,-2.1367,-2.0476,-1.9343,-1.7588,-1.656,-1.5703,-1.4815,-1.5924,-1.6956,-1.6898,-1.9321,-2.1279,-2.1479,-2.2558,-2.3462,-2.3858,-2.468,-2.546,-2.6001,-2.6559,-2.6808,-2.659,-2.6521,-2.6383,-2.6225,-2.6173,-2.6279,-2.6556,-2.6521,-2.6418,-2.6189,-2.6118,-2.601,-2.5775,-2.553,-2.5262,-2.4974,-2.4599,-2.3508,-2.1963,-2.1635,-2.067,-1.9199,-1.8965,-1.8774,-1.8581,-1.824,-1.7908,-1.7598,-1.7199,-1.6905,-1.665,-1.6219,-1.5988,-1.5756,-1.5209,-1.4801,-1.4362,-1.3589,-1.3505,-1.3457,-1.2501,-1.176,-1.1057,-1.049,-1.0028,-0.9569,-0.8995,-0.8738,-0.8474,-0.799,-0.767,-0.7402,-0.7144,-0.6539,-0.5882,-0.5395,-0.4959,-0.4519,-0.4073,-0.3802,-0.3524,-0.3239,-0.2965,-0.2631,-0.2068,-0.1568,-0.1456,-0.1956,-0.1677,-0.1174,-0.0559,-0.0056,0.0448,0.1007,0.1568,0.1792,0.168,0.1849,0.1905,0.1905,0.2017,0.224,0.2573,0.3016,0.335,-2.0021,-2.0546,-2.0752,-2.1005,-2.0766,-2.0318,-1.9757,-1.8933,-1.7975,-1.6872,-1.5947,-1.5157,-1.4596,-1.577,-1.6812,-1.6751,-1.9323,-2.1345,-2.1265,-2.2478,-2.3383,-2.3445,-2.4029,-2.4726,-2.5424,-2.5866,-2.6117,-2.6173,-2.6118,-2.601,-2.5844,-2.5791,-2.5828,-2.5937,-2.603,-2.601,-2.5844,-2.577,-2.5642,-2.5384,-2.5107,-2.4846,-2.4517,-2.3804,-2.2776,-2.1475,-2.0918,-1.998,0.0,-1.8528,-1.8307,-1.8055,-1.7747,-1.7421,-1.706,-1.6693,-1.6436,-1.6175,-1.5691,-1.5412,-1.5164,-1.4571,-1.3862,-1.316,-1.2472,-1.2433,-1.2491,-1.1569,-1.0905,-1.0387,-0.9917,-0.9458,-0.8995,-0.8461,-0.815,-0.7883,-0.7461,-0.7133,-0.6804,-0.6598,-0.5941,-0.5336,-0.4959,-0.4515,-0.4073,-0.363,-0.3522,-0.3246,-0.2571,-0.2237,-0.1734,-0.1062,-0.0392,-0.0112,-0.0391,-0.0335,-0.0056,0.0559,0.1175,0.168,0.2012,0.2517,0.2687,0.2517,0.2629,0.2631,0.2517,0.2685,0.2961,0.3403,0.3793,0.4184,0.0,-1.7956,-1.7653,-1.8399,-1.7939,-1.727,-1.7191,-1.6465,0.0,-1.5692,-1.5026,-1.4441,-1.4366,-1.5659,-1.6727,-1.6679,-1.9129,-2.1046,-2.0965,-2.2095,-2.3059,-2.3334,-2.3425,-2.3853,-2.4896,-2.5028,-2.5273,-2.5842,-2.5758,-2.5642,-2.5578,-2.5422,-2.5307,-2.5294,-2.5481,-2.5556,-2.5562,-2.5323,-2.5067,-2.48,-2.448,-2.4164,-2.3869,-2.2858,-2.1901,-2.1024,-2.0134,-1.9185,-1.8266,-1.8028,-1.772,-1.7352,-1.7076,-1.6752,-1.6423,-1.6076,-1.5869,-1.5703,-1.5198,-1.4869,-1.4514,-1.3862,-1.2764,-1.1651,-1.1099,-1.1158,-1.1267,-1.0769,-1.0293,-0.9814,-0.9406,-0.8883,-0.8408,-0.7925,-0.7498,-0.7133,-0.6874,-0.6436,-0.61,-0.5946,-0.534,-0.4736,-0.446,-0.4018,-0.3574,-0.3074,-0.3246,-0.3021,-0.1846,-0.1118,-0.0559,0.0056,0.0672,0.1232,0.1677,0.112,0.1008,0.1677,0.2521,0.2968,0.2792,0.3186,0.3355,0.3186,0.3355,0.3355,0.3186,0.3516,0.3901,0.4288,0.4629,0.5011,-1.4344,0.0,-1.7318,-1.7513,-1.7345,-1.7132,0.0,-1.6312,-1.5611,-1.5492,0.0,-1.5042,-1.4926,-1.6191,-1.724,-1.7206,-1.9172,-2.0678,-2.0564,-2.1516,-2.2209,-2.2149,-2.2604,-2.2992,-2.3047,-2.4025,-2.4635,-2.4636,-2.511,-2.541,-2.5371,-2.4766,-2.4627,-2.513,-2.4467,-2.4451,-2.5224,-2.4506,-2.4029,-2.3819,-2.2915,-2.233,-2.1992,-2.1403,-2.0651,-1.9804,-1.9349,-1.87,-1.7868,-1.7516,-1.7269,-1.7047,-1.6752,-1.6423,-1.6076,-1.5812,-1.5501,-1.5198,-1.4743,-1.4305,-1.3815,-1.2667,-1.1692,-1.0947,-1.0379,-1.0277,-1.0277,-0.9829,-0.9309,-0.883,-0.8349,-0.7925,-0.745,-0.6864,-0.6588,-0.6372,-0.6,-0.5723,-0.5386,-0.5058,-0.4673,-0.4236,-0.3744,-0.3352,-0.2905,-0.2181,-0.1845,-0.1397,-0.0559,0.0112,0.067,0.1174,0.2125,0.2685,0.2625,0.2519,0.2464,0.2571,0.3021,0.3355,0.3519,0.363,0.3741,0.3799,0.3913,0.4079,0.4184,0.457,0.4842,0.5058,0.5609,0.5882,-1.2473,-1.404,-1.5535,-1.5841,-1.5894,-1.5821,-1.5702,0.0,0.0,0.0,0.0,-1.5037,-1.4943,-1.6186,-1.732,-1.7629,-1.9186,-2.0521,-2.0957,-2.1456,-2.1721,-2.1526,-2.1917,-2.2214,-2.2345,-2.3056,-2.3568,-2.3731,-2.4095,-2.426,-2.4147,-2.3676,-2.3658,-2.4155,-2.3551,-2.373,-2.4831,-2.3864,-2.3271,-2.3016,-2.1949,-2.1289,-2.1017,-2.0245,-1.9628,-1.9073,-1.8452,-1.7892,-1.7407,-1.7018,-1.6765,-1.6539,-1.625,-1.5957,-1.5647,-1.5311,-1.5006,-1.4697,-1.4082,-1.3294,-1.2463,-1.1475,-1.0685,-0.9976,-0.9458,-0.9138,-0.8922,-0.8942,-0.8573,-0.8096,-0.7664,-0.7235,-0.6756,-0.6327,-0.5941,-0.5614,-0.5238,-0.4901,-0.4508,-0.4229,-0.3846,-0.3347,-0.2852,-0.2404,-0.1899,-0.1174,-0.0614,-0.0056,0.067,0.1452,0.2066,0.2291,0.2907,0.3355,0.3297,0.3413,0.3469,0.3408,0.3577,0.3799,0.4128,0.4128,0.4239,0.4405,0.4629,0.4791,0.5014,0.5395,0.5719,0.5932,0.6372,0.6696,-1.1506,-1.2386,-1.3317,-1.4277,-1.458,-1.4575,-1.4395,0.0,0.0,0.0,0.0,0.0,-1.4966,-1.6218,0.0,-1.7966,-1.9205,-2.0415,-2.139,-2.1481,-2.1388,-2.1183,-2.1277,-2.152,-2.2001,-2.2146,-2.2417,-2.2888,-2.2992,-2.2912,-2.2713,-2.2462,-2.2508,-2.2863,-2.2636,-2.2964,-2.3912,-2.302,-2.2473,-2.2194,-2.1032,-2.0342,-2.0133,-1.9141,-1.8643,-1.8421,-1.7479,-1.6976,-1.6837,-1.6509,-1.6163,-1.5856,-1.5691,-1.5435,-1.5074,-1.4663,-1.4387,-1.4035,-1.316,-1.203,-1.0889,-1.0372,-0.9651,-0.8942,-0.8415,-0.7883,-0.7616,-0.7937,-0.7777,-0.7402,-0.7025,-0.6544,-0.6109,-0.5891,-0.5344,-0.4849,-0.4522,-0.4076,-0.3685,-0.3347,-0.2847,-0.2289,-0.1789,-0.1342,-0.0782,-0.0056,0.0502,0.1061,0.1733,0.274,0.3355,0.3241,0.3469,0.3691,0.3907,0.4076,0.4132,0.419,0.4135,0.4242,0.4574,0.4625,0.4736,0.5011,0.5281,0.5555,0.5727,0.6154,0.6534,0.675,0.7139,0.7461,-1.1112,-1.1531,-1.2148,-1.4431,-1.5335,-1.5644,-1.5557,0.0,0.0,0.0,0.0,0.0,0.0,-1.7344,-1.8349,-1.8327,-1.9269,-2.0185,-2.0701,-2.0794,-2.0777,-2.0628,-2.0778,-2.0907,-2.0935,-2.1455,-2.1764,-2.1682,-2.2238,-2.249,-2.2324,-2.1583,-2.1356,-2.1809,-2.138,-2.1135,-2.118,-2.1218,-2.1133,-2.0952,-1.9249,-1.8343,-1.8154,-1.7703,-1.7358,-1.708,-1.665,-1.6367,-1.6275,-1.5824,-1.5546,-1.5355,-1.5028,-1.4674,-1.4316,-1.3909,-1.3474,-1.2861,-1.1733,-1.0736,-0.9917,-0.9392,-0.8758,-0.8184,-0.7605,-0.7128,-0.6696,-0.6431,-0.649,-0.6544,-0.6218,-0.5727,-0.5234,-0.4963,-0.4519,-0.4021,-0.3463,-0.3524,-0.3299,-0.2124,-0.1676,-0.1229,-0.0559,-0.0112,0.0391,0.1229,0.1675,0.2176,0.2794,0.3352,0.3744,0.3855,0.4242,0.4522,0.4577,0.468,0.4849,0.5077,0.4798,0.4743,0.5014,0.512,0.5285,0.5508,0.5882,0.6209,0.6426,0.6912,0.7289,0.7557,0.7895,0.8062,-1.07,-1.1323,-1.2086,-1.4284,-1.4881,-1.5003,-1.5248,0.0,0.0,0.0,0.0,0.0,0.0,0.0,-1.8876,-1.907,-1.9747,-2.0319,-2.0366,-2.0376,-2.0357,-2.0326,-2.0478,-2.0579,-2.0527,-2.0808,-2.0876,-2.0645,-2.088,-2.0849,-2.055,-2.0026,-1.9929,-2.022,-1.9921,-1.9838,-1.9943,-1.9525,-1.936,-1.9544,-1.8207,-1.7421,-1.7214,-1.6879,-1.6637,-1.6436,-1.6032,-1.5812,-1.568,-1.5322,-1.4994,-1.4674,-1.4433,-1.3956,-1.3341,-1.2696,-1.2061,-1.1484,-1.0635,-0.9865,-0.9138,-0.8508,-0.7818,-0.7224,-0.675,-0.6263,-0.5823,-0.5504,-0.5614,-0.5719,-0.5449,-0.5011,-0.457,-0.4298,-0.3796,-0.3241,-0.2629,-0.2348,-0.1956,-0.1005,-0.0503,-0.0,0.0503,0.106,0.1619,0.2291,0.2792,0.3236,0.3796,0.4132,0.4353,0.4574,0.4794,0.4959,0.5014,0.5175,0.5234,0.5183,0.5234,0.5344,0.5348,0.5614,0.5882,0.6159,0.6588,0.6907,0.7182,0.7616,0.7889,0.8103,0.8315,0.848,-1.0262,-1.1011,-1.1845,-1.3747,0.0,-1.4544,-1.5092,0.0,0.0,0.0,0.0,0.0,0.0,-1.8137,-1.9183,-1.9639,-2.0087,-2.0277,-2.005,-1.9945,-1.9909,-1.9929,-2.0015,-2.0085,-2.0085,-2.0085,-1.9995,-1.9741,-1.9566,-1.9258,-1.8898,-1.8669,-1.8607,-1.8687,-1.8684,-1.8701,-1.8702,-1.8033,-1.7922,-1.8369,-1.7418,-1.6808,-1.6497,-1.6238,-1.602,-1.5869,-1.5468,-1.5187,-1.504,-1.4674,-1.4294,-1.3836,-1.3627,-1.2996,-1.2159,-1.1266,-1.0618,-1.0079,-0.9547,-0.8922,-0.8243,-0.7551,-0.6853,-0.6209,-0.5778,-0.534,-0.5003,-0.4677,-0.4673,-0.4728,-0.4677,-0.4291,-0.3846,-0.3741,-0.3072,-0.2347,-0.1789,-0.1174,-0.0503,0.0168,0.0838,0.1396,0.1732,0.2232,0.279,0.3352,0.3741,0.4128,0.4519,0.4743,0.4963,0.5179,0.5289,0.5449,0.5609,0.5832,0.5837,0.5563,0.5778,0.5941,0.5896,0.6268,0.6588,0.6858,0.7289,0.7616,0.7883,0.8162,0.8374,0.8527,0.8633,0.8738,-0.9811,-1.018,-1.0666,-1.256,-1.4161,0.0,-1.5975,-1.6499,0.0,-1.6843,0.0,0.0,0.0,-1.8573,-1.9244,-1.9712,-1.9829,-1.9767,-1.9472,-1.9347,-1.9258,-1.9213,-1.9213,-1.9199,-1.9199,-1.9199,-1.9087,-1.8898,-1.8755,-1.8535,-1.8185,-1.7974,-1.772,-1.7461,-1.7804,-1.7552,-1.6721,-1.6953,-1.7267,-1.767,-1.6698,-1.6044,-1.568,-1.5591,-1.5367,-1.4994,-1.4686,-1.4455,-1.4222,-1.3742,-1.3256,-1.2861,-1.2355,-1.1516,-1.0517,-0.9909,-0.9399,-0.8823,-0.8243,-0.7599,-0.6961,-0.6303,-0.5764,-0.5277,-0.4791,-0.4457,-0.4177,-0.379,-0.3405,-0.3183,-0.3738,-0.3461,-0.3072,-0.3299,-0.2347,-0.1285,-0.0782,-0.0056,0.0726,0.151,0.246,0.313,0.3178,0.3458,0.3852,0.4349,0.4522,0.4684,0.4846,0.5073,0.5352,0.5567,0.5887,0.6209,0.648,0.681,0.6977,0.6977,0.6598,0.6495,0.6771,0.7079,0.7343,0.7616,0.7949,0.8215,0.8368,0.8527,0.8685,0.8956,0.8956,0.9054,-0.9319,-0.9673,-1.021,-1.2459,-1.3443,0.0,0.0,-1.5876,-1.6544,-1.6496,-1.7403,0.0,0.0,0.0,-1.9334,-1.9536,-1.9457,-1.931,-1.9168,-1.8927,-1.8707,-1.863,-1.8525,-1.8472,-1.8472,-1.8472,-1.8355,-1.808,-1.7961,-1.772,-1.7312,-1.7076,-1.6892,-1.6637,-1.6666,-1.646,-1.5869,-1.5915,-1.5863,-1.567,-1.5629,-1.5457,-1.513,-1.4812,-1.4536,-1.4294,-1.3779,-1.3389,-1.3044,-1.2657,-1.2218,-1.1742,-1.0872,-1.0056,-0.934,-0.8869,-0.8396,-0.7919,-0.7439,-0.6848,-0.6253,-0.555,-0.4952,-0.4405,-0.3959,-0.3738,-0.3519,-0.2794,-0.2235,-0.2124,-0.3186,-0.2794,-0.2012,-0.1676,-0.1061,-0.0279,0.0447,0.1062,0.1677,0.246,0.313,0.3685,0.3846,0.4128,0.4463,0.4794,0.4963,0.5187,0.5403,0.5622,0.5841,0.6055,0.6593,0.702,0.7235,0.7402,0.7509,0.761,0.7348,0.7241,0.7408,0.7676,0.7943,0.8156,0.8427,0.8646,0.8798,0.9001,0.9152,0.9263,0.9413,0.951,-0.8875,-0.9217,-0.9764,-1.2004,0.0,0.0,-1.4141,-1.5449,-1.6459,-1.656,-1.7434,-1.8329,-1.8797,0.0,-1.9011,-1.9064,-1.8936,-1.8798,-1.8697,-1.8386,-1.8135,-1.7948,-1.7814,-1.772,-1.7666,-1.7666,-1.7544,-1.7216,-1.7131,-1.6934,-1.6582,-1.6337,-1.612,-1.5913,-1.578,-1.5546,-1.5153,-1.4994,-1.4674,-1.4176,-1.4387,-1.4468,-1.4387,-1.4025,-1.3684,-1.3379,-1.2803,-1.2316,-1.1913,-1.1566,-1.1015,-1.0372,-0.9444,-0.8823,-0.8296,-0.7812,-0.7331,-0.6902,-0.6416,-0.5873,-0.5273,-0.4563,-0.4073,-0.3633,-0.2956,-0.2623,-0.2291,-0.151,-0.095,-0.0782,-0.1673,-0.1452,-0.0894,-0.0279,0.0279,0.0894,0.19,0.2348,0.2738,0.3408,0.3852,0.4184,0.4515,0.4739,0.5018,0.5344,0.5458,0.5626,0.5955,0.6114,0.6376,0.6761,0.7295,0.767,0.7883,0.7937,0.8043,0.8143,0.8096,0.8096,0.799,0.8268,0.848,0.8685,0.8903,0.9061,0.9263,0.9465,0.9614,0.9725,0.9925,1.0131,-0.8458,-0.8806,-0.9207,0.0,0.0,0.0,-1.3851,-1.5462,-1.6817,-1.7311,-1.7838,-1.8202,-1.8202,-1.8147,-1.8159,-1.8266,-1.8305,-1.8226,-1.8028,-1.772,-1.7434,-1.724,-1.7002,-1.682,-1.6723,-1.668,-1.6582,-1.6312,-1.6219,-1.6144,-1.5988,-1.5724,-1.5501,-1.5311,-1.5142,-1.488,-1.4373,-1.4269,-1.3931,-1.3362,-1.2967,-1.3016,-1.3362,-1.3112,-1.2706,-1.2159,-1.1765,-1.1366,-1.0965,-1.0415,-0.9651,-0.8725,-0.829,-0.7759,-0.7235,-0.675,-0.6263,-0.5719,-0.5117,-0.4515,-0.391,-0.3297,-0.3188,-0.3019,-0.1677,-0.095,-0.0447,0.0056,0.0447,0.0782,0.1118,0.0726,0.0335,0.0838,0.151,0.235,0.3641,0.386,0.3962,0.4405,0.4632,0.4857,0.5246,0.5305,0.5466,0.5955,0.6009,0.6119,0.6391,0.6598,0.6977,0.7622,0.8002,0.8281,0.8381,0.8527,0.8633,0.8633,0.885,0.8903,0.8626,0.8745,0.9008,0.9413,0.9413,0.9562,0.9814,0.9969,1.0123,1.0395,1.0557,1.0812,-0.8077,-0.8622,0.0,-1.1206,0.0,0.0,0.0,-1.5518,0.0,0.0,-1.7477,-1.7529,-1.7611,-1.7571,-1.7598,-1.7828,-1.7787,-1.7666,-1.753,-1.7284,-1.7047,-1.6723,-1.6534,-1.6362,-1.6207,-1.6132,-1.6001,-1.5869,-1.578,-1.5647,-1.5525,-1.5153,-1.4926,-1.48,-1.4501,-1.4118,-1.3705,-1.3457,-1.3064,-1.255,-1.2039,-1.208,-1.256,-1.1963,-1.1516,-1.1065,-1.0466,-0.9953,-0.954,-0.896,-0.8336,-0.7711,-0.7391,-0.6848,-0.6204,-0.571,-0.5164,-0.4618,-0.4122,-0.3514,-0.2847,-0.2235,-0.1676,-0.1116,-0.0335,0.0335,0.095,0.1342,0.2069,0.2738,0.2734,0.2676,0.2621,0.2738,0.2903,0.3181,0.3802,0.419,0.4519,0.4849,0.5278,0.564,0.6041,0.6218,0.6429,0.689,0.7123,0.7407,0.7862,0.7931,0.8114,0.8764,0.8899,0.9088,0.9455,0.9494,0.9526,0.9526,0.9429,0.9309,0.9047,0.9256,0.9465,0.9666,0.9984,1.0138,1.0241,1.0702,1.0964,1.1065,1.1368,1.1569,-0.7744,-0.8388,0.0,-1.1061,-1.1839,-1.2688,-1.4675,0.0,0.0,0.0,-1.7018,-1.685,-1.6892,-1.6837,-1.6854,-1.7118,-1.7047,-1.6976,-1.6879,-1.6667,-1.6466,-1.6219,-1.5969,-1.5792,-1.5647,-1.5468,-1.5345,-1.5255,-1.5153,-1.5006,-1.488,-1.4512,-1.4233,-1.4035,-1.3695,-1.3304,-1.289,-1.2638,-1.2197,-1.1651,-1.1091,-1.088,-1.1015,-1.0762,-1.0415,-1.0012,-0.919,-0.8613,-0.819,-0.7599,-0.7063,-0.6578,-0.6253,-0.566,-0.5003,-0.4897,-0.4233,-0.3342,-0.2901,-0.2287,-0.1563,-0.1005,-0.0335,0.0335,0.0949,0.1676,0.2404,0.2627,0.3241,0.3855,0.3904,0.4067,0.4177,0.391,0.3852,0.3956,0.4294,0.4688,0.5022,0.5293,0.5828,0.6297,0.6587,0.6934,0.7315,0.7736,0.8027,0.8322,0.8733,0.8825,0.9074,0.9421,0.9633,0.989,1.0179,1.025,1.0302,1.0413,1.0256,1.0234,1.0371,1.0016,1.0037,1.0533,1.0672,1.0929,1.1224,1.1497,1.1628,1.1728,1.1977,1.2175,-0.745,-0.8133,-0.9044,-1.0624,-1.1482,0.0,-1.4463,-1.5879,-1.6693,-1.6637,0.0,-1.6194,-1.6144,-1.6057,-1.6032,-1.6238,-1.6163,-1.6144,-1.6144,-1.5925,-1.5703,-1.5626,-1.5402,-1.5165,-1.5062,-1.4789,-1.4616,-1.4523,-1.443,-1.428,-1.4129,-1.3858,-1.3515,-1.3112,-1.2812,-1.2433,-1.1977,-1.1719,-1.1259,-1.0651,-1.0123,-0.9614,-0.9099,-0.951,-0.9406,-0.889,-0.7937,-0.7295,-0.6864,-0.6317,-0.5823,-0.5382,-0.5007,-0.4346,-0.3685,-0.4027,-0.3239,-0.1952,-0.1453,-0.0838,-0.0112,0.0391,0.0949,0.1509,0.2176,0.2961,0.3694,0.3855,0.4125,0.4401,0.4739,0.512,0.5222,0.4563,0.4512,0.4684,0.4952,0.5234,0.5521,0.5872,0.637,0.6797,0.7109,0.764,0.8147,0.851,0.8924,0.916,0.9225,0.9558,0.9849,0.9876,1.0256,1.0653,1.0855,1.0997,1.1153,1.1332,1.1264,1.1472,1.2189,1.1011,1.0817,1.1814,1.1593,1.1833,1.2559,1.2305,1.2262,1.2323,1.248,1.2578,-0.7004,-0.8082,0.0,0.0,-1.1729,-1.3305,-1.4167,-1.4973,-1.5546,-1.5812,-1.5768,-1.568,-1.5724,-1.5748,-1.5792,-1.5869,-1.5824,-1.5724,-1.5647,-1.5424,-1.5198,-1.5096,-1.4891,-1.4708,-1.4558,-1.4419,-1.4269,-1.4129,-1.3999,-1.3858,-1.3752,-1.3266,-1.2812,-1.2414,-1.1999,-1.151,-1.0905,-1.0635,-1.0226,-0.9718,-0.9145,-0.8718,-0.8343,-0.8567,-0.8143,-0.7122,-0.6593,-0.6046,-0.5492,-0.5164,-0.4673,-0.4181,-0.4301,-0.3572,-0.2341,-0.1842,-0.1173,-0.0391,0.0056,0.0726,0.1394,0.1729,0.2233,0.2794,0.3292,0.3849,0.4353,0.4739,0.5066,0.5395,0.5773,0.5937,0.6046,0.6095,0.5882,0.5673,0.5727,0.6109,0.6539,0.6885,0.7381,0.7898,0.8457,0.8815,0.9229,0.98,1.0118,1.0367,1.0733,1.0707,1.0838,1.1326,1.1488,1.174,1.2056,1.2354,1.2596,1.2587,1.2513,1.2615,1.2931,1.2157,1.2087,1.286,1.3004,1.3007,1.2818,1.294,1.2893,1.2627,1.2725,1.2832,-0.6457,0.0,0.0,-1.0261,0.0,-1.3178,-1.3674,-1.4215,-1.4605,-1.4777,-1.5051,-1.5187,-1.521,-1.5267,-1.5267,-1.521,-1.5108,-1.5006,-1.4915,-1.464,-1.4455,-1.4362,-1.4176,-1.3999,-1.3941,-1.3695,-1.3494,-1.3437,-1.3276,-1.3094,-1.29,-1.2491,-1.2039,-1.1534,-1.1091,-1.0643,-1.0131,-0.9806,-0.9399,-0.889,-0.8355,-0.7652,-0.6891,-0.7278,-0.6956,-0.6095,-0.55,-0.4952,-0.4453,-0.3895,-0.3342,-0.2843,-0.2621,-0.184,-0.0781,-0.0112,0.0447,0.1062,0.1843,0.2287,0.2619,0.2956,0.3403,0.3852,0.4346,0.4677,0.5007,0.55,0.5832,0.6159,0.6539,0.675,0.6966,0.7074,0.6696,0.6268,0.6268,0.6593,0.6986,0.7386,0.7976,0.8527,0.9089,0.9606,1.0104,1.0681,1.0933,1.1185,1.149,1.1591,1.1791,1.2205,1.2498,1.2827,1.3199,1.3459,1.3632,1.3682,1.3546,1.3644,1.4025,1.3571,1.3451,1.3774,1.3815,1.3714,1.3485,1.3397,1.319,1.2783,1.2881,1.2881,-0.579,0.0,-0.8407,-1.0241,-1.1487,0.0,-1.2869,-1.3398,-1.3752,-1.3752,-1.4307,-1.4777,-1.4719,-1.4684,-1.4673,-1.4534,-1.4384,-1.4233,-1.4082,-1.38,-1.3621,-1.3621,-1.3372,-1.3228,-1.318,-1.2871,-1.2677,-1.2579,-1.2403,-1.2175,-1.1868,-1.156,-1.1158,-1.0541,-1.0115,-0.9703,-0.9295,-0.8928,-0.8508,-0.8103,-0.7391,-0.6411,-0.5273,-0.5588,-0.5588,-0.5218,-0.4453,-0.3849,-0.335,-0.251,-0.184,-0.1337,-0.0614,0.0112,0.0781,0.1452,0.1956,0.2462,0.3413,0.3741,0.3735,0.4128,0.446,0.4846,0.5336,0.5496,0.5714,0.6258,0.6588,0.6858,0.7192,0.7515,0.7777,0.783,0.7396,0.6912,0.6858,0.7166,0.7543,0.7948,0.8655,0.931,0.9653,1.0325,1.0933,1.1428,1.1677,1.1864,1.205,1.2482,1.2781,1.3017,1.3442,1.3812,1.413,1.4249,1.4428,1.4597,1.4456,1.4544,1.5079,1.4859,1.4667,1.4601,1.4321,1.4179,1.4077,1.3789,1.3359,1.2881,1.2881,1.2881,-0.4917,0.0,-0.8148,0.0,-1.0264,-1.112,0.0,0.0,-1.2792,-1.2792,-1.3609,-1.4269,-1.428,-1.428,-1.4269,-1.4269,-1.3952,-1.3658,-1.3515,-1.317,-1.2909,-1.2764,-1.2696,-1.252,-1.2314,-1.2224,-1.2067,-1.1719,-1.1669,-1.141,-1.0821,-1.0423,-0.9961,-0.9436,-0.9033,-0.862,-0.8137,-0.7865,-0.7385,-0.6804,-0.5769,-0.4838,-0.4015,-0.3448,-0.3448,-0.3846,-0.3067,-0.2456,-0.1845,-0.1005,-0.0391,0.0167,0.0894,0.1507,0.212,0.335,0.3688,0.363,0.4187,0.4574,0.4901,0.5062,0.5445,0.5837,0.6046,0.6367,0.6745,0.7069,0.7343,0.7616,0.7949,0.8115,0.8215,0.8415,0.8415,0.8256,0.8055,0.8287,0.8757,0.933,1.0181,1.0822,1.1044,1.1281,1.1622,1.212,1.2413,1.2773,1.3199,1.345,1.3631,1.4001,1.424,1.441,1.4597,1.4902,1.5098,1.5088,1.5196,1.5235,1.5352,1.5303,1.5264,1.5264,1.5216,1.4827,1.4077,1.4029,1.3652,1.2881,1.2881,1.2881,-0.4549,-0.5808,-0.7081,0.0,-0.9094,-0.993,-1.0261,-1.0935,-1.1547,-1.1547,-1.2056,-1.2755,-1.3501,-1.3647,-1.36,-1.3447,-1.3122,-1.289,-1.2696,-1.2246,-1.195,-1.19,-1.1719,-1.1519,-1.1259,-1.1099,-1.0889,-1.0592,-1.0387,-1.0131,-0.9592,-0.9228,-0.8856,-0.8383,-0.7978,-0.7557,-0.7176,-0.6858,-0.6204,-0.5273,-0.4736,-0.3846,-0.2676,-0.1895,-0.1895,-0.2563,-0.1618,-0.0949,-0.0391,0.0446,0.1115,0.1618,0.2287,0.2899,0.3398,0.4187,0.4574,0.4673,0.5117,0.5445,0.5773,0.6095,0.6372,0.6647,0.6966,0.7182,0.7396,0.7729,0.799,0.8256,0.8487,0.8692,0.889,0.8995,0.9284,0.9463,0.9416,0.9357,0.9534,1.0362,1.1063,1.156,1.1802,1.2104,1.2413,1.2903,1.3268,1.3571,1.3881,1.4112,1.435,1.4616,1.4784,1.4961,1.5059,1.5313,1.5508,1.5508,1.5614,1.5662,1.5662,1.5662,1.5662,1.5662,1.5478,1.499,1.4077,1.4077,1.3701,1.2881,1.2881,1.2881,0.0,0.0,-0.5816,-0.6743,-0.7755,-0.8576,0.0,0.0,-1.0127,-1.0082,-1.0386,-1.0977,-1.194,-1.2464,-1.2667,-1.2463,-1.2187,-1.1909,-1.1719,-1.1318,-1.0956,-1.0854,-1.0659,-1.0403,-1.0182,-0.9909,-0.9644,-0.934,-0.9086,-0.8771,-0.829,-0.8019,-0.7694,-0.7213,-0.6907,-0.6539,-0.6209,-0.5719,-0.4897,-0.3788,-0.3516,-0.2679,-0.1282,-0.0447,-0.0279,-0.0668,-0.0,0.0502,0.1004,0.1895,0.2508,0.3012,0.3619,0.4119,0.4508,0.4956,0.5281,0.566,0.5991,0.6317,0.6588,0.6966,0.7241,0.7408,0.7723,0.7889,0.8049,0.8321,0.858,0.8837,0.8956,0.9256,0.9532,0.9671,1.0036,1.0483,1.065,1.0528,1.0528,1.1391,1.1813,1.2228,1.2544,1.2842,1.3199,1.3692,1.4061,1.4309,1.4428,1.4715,1.4951,1.5088,1.5264,1.5381,1.5536,1.572,1.5846,1.5846,1.5961,1.6019,1.6019,1.6019,1.6019,1.6019,1.5768,1.5219,1.4351,1.4253,1.3812,1.3086,1.2978,1.3037,0.0,-0.3591,0.0,-0.494,-0.5952,-0.6869,0.0,0.0,-0.8488,-0.8437,-0.8874,-0.9252,-0.9128,-1.0431,-1.1466,-1.1466,-1.1141,-1.0854,-1.0702,-1.0336,-0.9969,-0.9718,-0.9569,-0.9302,-0.8935,-0.8705,-0.8435,-0.8031,-0.7859,-0.7534,-0.6956,-0.6745,-0.6421,-0.5932,-0.5778,-0.5508,-0.5179,-0.4349,-0.3461,-0.2567,-0.1676,-0.0782,0.0112,0.1062,0.1788,0.2232,0.1732,0.1843,0.2456,0.3178,0.3735,0.4177,0.478,0.5109,0.5336,0.5882,0.6204,0.6416,0.6864,0.7192,0.7461,0.7616,0.7889,0.8168,0.8168,0.8434,0.8752,0.8903,0.9159,0.9413,0.951,0.9666,0.9896,1.0432,1.074,1.1036,1.1472,1.1744,1.215,1.2639,1.2826,1.3009,1.3381,1.364,1.3881,1.435,1.4725,1.497,1.5156,1.5254,1.5352,1.5362,1.5546,1.572,1.5874,1.5989,1.6114,1.6239,1.6296,1.6296,1.6296,1.6296,1.6296,1.6296,1.6239,1.5833,1.4923,1.4572,1.4136,1.368,1.3273,1.3451,0.0,0.0,0.0,-0.3637,-0.4376,-0.5079,-0.5611,-0.6106,-0.6504,-0.6551,-0.6893,-0.7171,-0.7126,-0.8831,-1.018,-0.9925,-0.986,-0.9806,-0.9503,-0.9079,-0.8705,-0.8435,-0.8171,-0.7906,-0.754,-0.732,-0.6999,-0.6681,-0.646,-0.6081,-0.5601,-0.5437,-0.5164,-0.467,-0.4512,-0.4349,-0.4135,-0.2959,-0.2011,-0.1283,-0.0279,0.0614,0.1505,0.2847,0.3519,0.3622,0.3782,0.3727,0.3622,0.4395,0.4893,0.5277,0.576,0.6145,0.648,0.6804,0.7074,0.7283,0.7503,0.783,0.8109,0.8321,0.8533,0.8745,0.8896,0.9159,0.9361,0.9458,0.9725,0.9932,1.0087,1.0293,1.0753,1.1651,1.2142,1.2558,1.3143,1.3075,1.2997,1.3381,1.364,1.3872,1.4112,1.4469,1.4765,1.5059,1.5371,1.5566,1.5624,1.5672,1.572,1.5826,1.5884,1.6066,1.6343,1.6457,1.6637,1.674,1.6729,1.6797,1.6853,1.6797,1.6853,1.7078,1.6965,1.6395,1.544,1.5277,1.5024,1.4584,1.4532,1.4644,-0.1141,0.0,0.0,0.0,-0.2963,-0.3487,-0.4125,-0.4558,-0.4833,-0.4931,-0.5221,-0.5473,-0.537,-0.6842,-0.8091,-0.8199,-0.836,-0.8339,-0.804,-0.77,-0.7326,-0.6993,-0.6779,-0.6514,-0.614,-0.5873,-0.5655,-0.5374,-0.5105,-0.4725,-0.4346,-0.4233,-0.3898,-0.3345,-0.3067,-0.2847,-0.2627,-0.1564,-0.067,0.0056,0.1061,0.1953,0.2788,0.4073,0.4684,0.4783,0.5328,0.5273,0.4783,0.5441,0.5937,0.6263,0.6691,0.7015,0.7348,0.7509,0.7777,0.8043,0.8196,0.8468,0.8791,0.9054,0.9211,0.9309,0.9562,0.9769,0.9925,1.0123,1.0387,1.0608,1.071,1.1147,1.1781,1.2606,1.323,1.379,1.4433,1.4121,1.3752,1.4061,1.4369,1.4606,1.4765,1.5128,1.541,1.5584,1.5836,1.5961,1.6019,1.6077,1.6192,1.6285,1.64,1.657,1.6853,1.7088,1.7245,1.7346,1.7346,1.7412,1.7523,1.7412,1.7512,1.7733,1.7634,1.7291,1.6689,1.6158,1.5817,1.5574,1.5519,1.5685,0.0,0.0,0.0,0.0,0.0,0.0,-0.2631,-0.3217,-0.361,-0.3545,-0.3906,-0.4165,-0.3912,-0.4443,-0.5278,-0.6293,-0.6536,-0.6483,-0.6375,-0.6207,-0.5968,-0.5479,-0.532,-0.5109,-0.467,-0.4512,-0.4294,-0.4009,-0.3849,-0.3574,-0.3074,-0.3019,-0.2683,-0.1959,-0.1398,-0.095,-0.0614,-0.0056,0.067,0.1397,0.2345,0.3125,0.3852,0.4622,0.5281,0.5882,0.6426,0.6372,0.5937,0.6426,0.681,0.7139,0.7563,0.7723,0.7777,0.8109,0.8421,0.8679,0.8949,0.9211,0.9465,0.9718,0.9814,0.9865,1.0167,1.0336,1.0498,1.0905,1.1167,1.1368,1.1477,1.2211,1.3013,1.3241,1.3958,1.4656,1.5156,1.4902,1.4588,1.4715,1.5029,1.5264,1.542,1.5604,1.5788,1.6056,1.6104,1.6171,1.6296,1.6524,1.6627,1.6627,1.7022,1.7301,1.7523,1.7799,1.7963,1.8139,1.8139,1.8084,1.8139,1.8139,1.8182,1.8333,1.8333,1.8441,1.8614,1.7154,1.6504,1.6664,1.621,1.653,0.0334,0.0,0.0,0.0,0.0,0.0,-0.1403,-0.1959,-0.2363,-0.2322,-0.2528,-0.268,-0.2631,-0.2775,-0.2999,-0.33,-0.451,-0.5313,-0.5019,-0.4758,-0.4529,-0.4224,-0.3975,-0.3746,-0.3564,-0.3347,-0.3181,-0.3067,-0.3019,-0.2742,-0.2068,-0.1396,-0.0837,-0.0559,0.0,0.0503,0.0894,0.1563,0.2456,0.3633,0.3956,0.4501,0.5109,0.5823,0.6421,0.6907,0.7337,0.7605,0.7664,0.745,0.7503,0.7717,0.8203,0.8421,0.8533,0.8949,0.9099,0.9204,0.951,0.9777,0.9991,1.019,1.0446,1.0753,1.0956,1.1158,1.1368,1.1569,1.1769,1.1927,1.2026,1.2776,1.3539,1.3882,1.4702,1.5488,1.5778,1.5826,1.571,1.5488,1.5662,1.5836,1.5788,1.6066,1.6353,1.6457,1.6684,1.6965,1.7134,1.729,1.7446,1.7655,1.7776,1.8007,1.841,1.8398,1.8506,1.8721,1.8464,1.8476,1.8721,1.856,1.8614,1.891,1.8881,1.8869,1.9028,1.8354,1.8028,1.8028,1.7984,1.8207,0.0,0.0,0.0,0.0,0.0,0.0,-0.0283,-0.0697,-0.1069,-0.1126,-0.126,-0.139,-0.1418,-0.1537,-0.1534,-0.143,-0.2391,-0.3245,-0.3411,-0.3479,-0.3441,-0.3157,-0.3069,-0.2956,-0.2734,-0.2356,-0.1983,-0.1843,-0.1733,-0.1342,-0.0614,0.0112,0.0614,0.0838,0.162,0.2122,0.2289,0.2899,0.368,0.4691,0.5007,0.5441,0.6036,0.6691,0.7283,0.7777,0.8196,0.8521,0.8784,0.862,0.8508,0.8461,0.8784,0.9047,0.9263,0.9465,0.9666,0.988,1.0131,1.0395,1.071,1.0964,1.1217,1.1477,1.1678,1.1828,1.1977,1.2175,1.2274,1.2382,1.2529,1.3065,1.3748,1.4261,1.4999,1.5729,1.6187,1.64,1.641,1.6019,1.6181,1.6353,1.6306,1.6581,1.6853,1.6965,1.719,1.7468,1.7733,1.7952,1.817,1.8387,1.8483,1.8643,1.8934,1.8934,1.8987,1.9158,1.8946,1.8946,1.9158,1.8999,1.9093,1.9344,1.9303,1.9303,1.9436,1.8975,1.8774,1.8869,1.9052,1.9158,0.0,0.0,0.0,0.0,0.1176,0.0,0.0772,0.0522,0.022,0.0033,-0.0104,-0.0184,-0.0307,-0.0506,-0.0594,-0.0289,-0.0333,-0.0771,-0.1773,-0.2287,-0.2442,-0.21,-0.2257,-0.2245,-0.1956,-0.1329,-0.0809,-0.0445,-0.0167,0.0391,0.1174,0.1509,0.1846,0.2127,0.3132,0.358,0.3511,0.4067,0.4622,0.5062,0.5664,0.6263,0.6804,0.7391,0.7978,0.858,0.8956,0.9263,0.9569,0.9821,0.9666,0.9263,0.9465,0.9666,0.9917,0.9969,1.0182,1.0557,1.0854,1.1116,1.1469,1.1828,1.1977,1.2026,1.2274,1.2323,1.2431,1.2676,1.2774,1.2822,1.292,1.3293,1.3767,1.4508,1.5103,1.5729,1.6532,1.6807,1.6864,1.657,1.6694,1.6864,1.6864,1.7088,1.7357,1.7523,1.77,1.792,1.8159,1.8494,1.8721,1.8839,1.9093,1.9239,1.9291,1.9356,1.942,1.942,1.942,1.942,1.942,1.942,1.946,1.9604,1.9604,1.9656,1.9798,1.9291,1.9133,1.9279,1.95,1.9604,0.2562,0.0,0.0,0.0,0.2252,0.0,0.1767,0.1561,0.1331,0.1131,0.1286,0.1342,0.0954,0.0799,0.0705,0.0712,0.0713,0.0369,-0.0582,-0.0638,-0.0556,-0.0527,-0.0385,-0.0293,-0.0254,0.0157,0.0426,0.0536,0.1156,0.2014,0.3021,0.2907,0.2907,0.3132,0.3633,0.4021,0.4294,0.4956,0.5618,0.6109,0.6696,0.7295,0.7895,0.8355,0.8823,0.9406,0.9681,1.0051,1.0462,1.0506,1.019,0.9718,1.0087,1.0293,1.0498,1.0854,1.1116,1.1318,1.1569,1.1778,1.1977,1.2175,1.2382,1.2529,1.2627,1.2676,1.2832,1.2978,1.3152,1.3276,1.3276,1.3718,1.4317,1.4914,1.5595,1.6342,1.7147,1.7523,1.7689,1.7755,1.7534,1.7301,1.7134,1.7468,1.7799,1.7799,1.8247,1.8625,1.8827,1.9093,1.9316,1.9408,1.9512,1.9552,1.9643,1.9604,1.9617,1.9708,1.9512,1.9512,1.9708,1.9604,1.9604,1.9759,1.9759,1.9747,1.9798,1.9695,1.9643,1.9695,1.9759,1.9759,0.333,0.3256,0.3142,0.3301,0.3122,0.0,0.0,0.2561,0.2465,0.2147,0.2339,0.2462,0.2186,0.2023,0.1933,0.1946,0.1917,0.1734,0.1282,0.0896,0.0704,0.0779,0.129,0.1594,0.1561,0.1692,0.1773,0.1854,0.2401,0.3103,0.3866,0.3817,0.3962,0.4242,0.4629,0.4959,0.523,0.5891,0.649,0.6966,0.7509,0.8049,0.8586,0.8995,0.951,1.0035,1.0403,1.0769,1.1124,1.1226,1.1108,1.0846,1.0854,1.1015,1.1267,1.1519,1.1728,1.1927,1.2126,1.2283,1.2431,1.2578,1.2676,1.2832,1.2881,1.3017,1.32,1.3296,1.3478,1.3668,1.3847,1.4253,1.4768,1.5531,1.6123,1.6774,1.7522,1.7897,1.817,1.829,1.829,1.817,1.7952,1.8127,1.8344,1.8452,1.8774,1.904,1.9198,1.9356,1.9565,1.9708,1.9708,1.9759,1.9798,1.9759,1.9759,1.9798,1.9656,1.9656,1.9798,1.9759,1.9759,1.9798,1.9798,1.9798,1.9798,1.9798,1.9798,1.9798,1.9798,1.9798,0.4146,0.403,0.3883,0.4268,0.4014,0.3662,0.0,0.0,0.0,0.3128,0.3267,0.3449,0.3379,0.3188,0.3074,0.3108,0.306,0.304,0.3083,0.2421,0.1947,0.1949,0.2529,0.2976,0.2963,0.2921,0.2995,0.3152,0.3528,0.3967,0.439,0.4649,0.4959,0.5289,0.5567,0.5891,0.6159,0.6766,0.7295,0.7706,0.8209,0.8692,0.9271,0.9621,1.0087,1.0651,1.1015,1.1377,1.1669,1.1927,1.2026,1.2076,1.1628,1.1728,1.2026,1.2076,1.2224,1.2431,1.2569,1.2725,1.2783,1.2968,1.3017,1.3065,1.3172,1.3392,1.3563,1.3705,1.3905,1.414,1.4466,1.4829,1.5312,1.6148,1.6643,1.719,1.7904,1.8278,1.8548,1.8721,1.8934,1.8987,1.8721,1.8786,1.8893,1.904,1.9186,1.9291,1.9408,1.9565,1.9656,1.9798,1.9798,1.9798,1.9798,1.9798,1.9798,1.9798,1.9798,1.9798,1.9798,1.9798,1.9798,1.9798,1.9798,1.9798,1.9798,1.9798,1.9798,1.9798,1.9798,1.9798,0.5162,0.5032,0.4966,0.5464,0.5209,0.4703,0.4265,0.0,0.4496,0.3962,0.0,0.4398,0.429,0.0,0.0,0.3888,0.3865,0.3899,0.403,0.3935,0.3618,0.2952,0.3044,0.3182,0.3172,0.3411,0.3757,0.4098,0.4562,0.4916,0.5172,0.5565,0.5837,0.5891,0.6164,0.6485,0.6804,0.7343,0.7883,0.8461,0.8995,0.9517,1.0095,1.0411,1.0863,1.1368,1.1578,1.1877,1.2224,1.2372,1.2578,1.2735,1.2323,1.2283,1.248,1.2676,1.2832,1.2871,1.3035,1.3094,1.3075,1.3286,1.342,1.3573,1.3678,1.3905,1.4129,1.428,1.4605,1.4971,1.5017,1.5487,1.6088,1.6634,1.7206,1.7873,1.8573,1.8934,1.9133,1.9251,1.9316,1.9263,1.8987,1.9093,1.9186,1.9186,1.9396,1.9552,1.9565,1.9708,1.9798,1.9798,1.9798,1.9798,1.9798,1.9798,1.9798,1.9798,1.9798,1.9798,1.9798,1.9798,1.9798,1.9798,1.9798,1.9798,1.9798,1.9798,1.9798,1.9798,1.9798,1.9798,0.6208,0.5992,0.5757,0.6017,0.5589,0.5082,0.49,0.4952,0.498,0.4795,0.0,0.0,0.0,0.0,0.0,0.0,0.4466,0.4363,0.4286,0.4244,0.4151,0.3859,0.3838,0.3791,0.368,0.382,0.4017,0.4226,0.4765,0.5175,0.5457,0.6046,0.646,0.6618,0.6956,0.7295,0.7676,0.809,0.862,0.9197,0.9621,1.0198,1.071,1.1023,1.1418,1.1877,1.2175,1.2461,1.2735,1.2939,1.3142,1.3296,1.319,1.3094,1.3045,1.3238,1.3296,1.3344,1.342,1.3478,1.3536,1.3705,1.3894,1.4093,1.414,1.4419,1.4731,1.4858,1.5142,1.5482,1.597,1.6491,1.7026,1.7575,1.8112,1.8606,1.8939,1.9198,1.9356,1.9512,1.9565,1.9604,1.95,1.9448,1.9448,1.954,1.9656,1.9708,1.9708,1.9747,1.9798,1.9798,1.9798,1.9798,1.9798,1.9798,1.9798,1.9798,1.9798,1.9798,1.9798,1.9798,1.9798,1.9798,1.9798,1.9798,1.9798,1.9798,1.9798,1.9798,1.9798,1.9798,0.7232,0.695,0.6628,0.6704,0.6203,0.5643,0.5535,0.5515,0.556,0.554,0.5725,0.0,0.0,0.0,0.0,0.0,0.0,0.492,0.4698,0.4602,0.4477,0.4372,0.4347,0.4313,0.4172,0.4276,0.4385,0.4423,0.5024,0.5491,0.5712,0.654,0.7042,0.7251,0.7699,0.8103,0.8434,0.8837,0.9302,0.9829,1.0293,1.0812,1.1326,1.1628,1.1927,1.2323,1.2666,1.2939,1.3208,1.3505,1.3705,1.3858,1.4046,1.3988,1.3789,1.38,1.3752,1.3752,1.3836,1.4035,1.4186,1.4258,1.449,1.4697,1.4743,1.5017,1.5334,1.5445,1.5787,1.6158,1.6739,1.7349,1.7922,1.8399,1.8848,1.9198,1.9291,1.9396,1.9565,1.9656,1.9759,1.9798,1.9798,1.9708,1.9708,1.9798,1.9798,1.9798,1.9798,1.9798,1.9798,1.9798,1.9798,1.9798,1.9798,1.9798,1.9798,1.9798,1.9798,1.9798,1.9798,1.9798,1.9798,1.9798,1.9798,1.9798,1.9798,1.9798,1.9798,1.9798,1.9798,1.9798,0.8257,0.8005,0.7665,0.7727,0.7339,0.6787,0.6141,0.6219,0.6397,0.6118,0.6286,0.646,0.6382,0.0,0.0,0.0,0.0,0.0,0.0,0.5327,0.4848,0.4269,0.4436,0.4555,0.4485,0.4856,0.506,0.506,0.5675,0.6087,0.6087,0.7116,0.7658,0.7658,0.8274,0.8685,0.8956,0.9361,0.9821,1.0403,1.0964,1.1477,1.1877,1.2175,1.248,1.2881,1.2939,1.3218,1.361,1.4035,1.4233,1.4419,1.4731,1.4858,1.4812,1.4512,1.4222,1.4061,1.4525,1.4858,1.5062,1.5062,1.5244,1.5468,1.5546,1.5647,1.5792,1.5944,1.6544,1.7144,1.7169,1.7964,1.8772,1.8797,1.9219,1.9552,1.9617,1.9708,1.9798,1.9798,1.9798,1.9798,1.9798,1.9798,1.9798,1.9798,1.9798,1.9798,1.9798,1.9798,1.9798,1.9798,1.9798,1.9798,1.9798,1.9798,1.9798,1.9798,1.9798,1.9798,1.9798,1.9798,1.9798,1.9798,1.9798,1.9798,1.9798,1.9798,1.9798,1.9798,1.9798,1.9798,0.9262,0.8945,0.8575,0.8639,0.7822,0.7037,0.7169,0.681,0.6548,0.6994,0.7217,0.7323,0.721,0.0,0.0,0.0,0.0,0.0,0.0,0.518,0.4762,0.4558,0.4606,0.4613,0.4445,0.4667,0.482,0.482,0.5363,0.587,0.6214,0.6943,0.7577,0.8098,0.8443,0.8943,0.951,0.9829,1.0344,1.1015,1.1469,1.1927,1.2332,1.2578,1.2861,1.3132,1.342,1.3763,1.414,1.4501,1.4731,1.488,1.5232,1.5322,1.5277,1.5074,1.4937,1.488,1.5175,1.5355,1.5468,1.5513,1.5691,1.5824,1.5856,1.6044,1.6293,1.6695,1.7032,1.7493,1.8232,1.8634,1.8996,1.9396,1.9622,1.9759,1.9759,1.9747,1.9798,1.9798,1.9798,1.9798,1.9798,1.9798,1.9798,1.9798,1.9798,1.9798,1.9798,1.9798,1.9798,1.9798,1.9798,1.9798,1.9798,1.9798,1.9798,1.9798,1.9798,1.9798,1.9798,1.9798,1.9798,1.9798,1.9798,1.9798,1.9798,1.9798,1.9798,1.9798,1.9798,1.9798,1.0137,0.9906,0.9544,0.9529,0.8804,0.8073,0.816,0.7845,0.7643,0.796,0.8242,0.8331,0.8032,0.0,0.0,0.0,0.0,0.0,0.0,0.5081,0.4869,0.4981,0.4875,0.4749,0.4599,0.4829,0.4967,0.4916,0.5442,0.595,0.6403,0.7001,0.7657,0.836,0.8734,0.9249,0.9873,1.03,1.0863,1.1528,1.1977,1.2372,1.2754,1.3007,1.3296,1.3515,1.3905,1.4291,1.4651,1.5006,1.5277,1.5468,1.5724,1.578,1.5736,1.5614,1.557,1.5614,1.5724,1.5812,1.5901,1.6013,1.6088,1.6175,1.6175,1.6306,1.6548,1.711,1.7468,1.789,1.8794,1.9171,1.9384,1.9723,1.9798,1.9798,1.9798,1.9798,1.9798,1.9798,1.9798,1.9798,1.9798,1.9798,1.9798,1.9798,1.9798,1.9798,1.9798,1.9798,1.9798,1.9798,1.9798,1.9798,1.9798,1.9798,1.9798,1.9798,1.9798,1.9798,1.9798,1.9798,1.9798,1.9798,1.9798,1.9798,1.9798,1.9798,1.9798,1.9798,1.9798,1.9798]}]]